[[{"header":{"parameterUnit":"m.s-1","parameterCategory":1,"la1":31.0,"la2":29.5877,"lo1":-88.7671,"lo2":-86.6584,"dy":0.0162,"dx":0.0185,"nx":115,"ny":88,"refTime":"2024-02-23T18:00:00:Z","depth":0,"parameterNumber":2,"parameterNumberName":"U-component_of_WINDS"},"data":[0.0,0.0,0.0,0.0,0.0,0.0,0.0,0.0,0.0,0.0,0.0,0.0,0.0,0.0,0.0,0.0,0.0,0.0,0.0,0.0,0.0,0.0,0.0,0.0,0.0,0.0,0.0,0.0,0.0,0.0,0.0,0.0,0.0,0.0,0.0,0.0,0.0,0.0,0.0,0.0,0.0,0.0,0.0,0.0,0.0,0.0,0.0,0.0,0.0,0.0,0.0,0.0,0.0,0.0,0.0,0.0,0.0,0.0,0.0,0.0,0.0,0.0,0.0,0.0,0.0,0.0,0.0,0.0,0.0,0.0,0.0,0.0,0.0,0.0,0.0,0.0,0.0,0.0,0.0,0.0,0.0,0.0,0.0,0.0,0.0,0.0,0.0,0.0,0.0,0.0,0.0,0.0,0.0,0.0,0.0,0.0,0.0,0.0,0.0,0.0,0.0,0.0,0.0,0.0,0.0,0.0,0.0,0.0,0.0,0.0,0.0,0.0,0.0,0.0,0.0,0.0,0.0,0.0,0.0,0.0,0.0,0.0,0.0,0.0,0.0,0.0,0.0,0.0,0.0,0.0,0.0,0.0,0.0,0.0,0.0,0.0,0.0,0.0,0.0,0.0,0.0,0.0,0.0,0.0,0.0,0.0,0.0,0.0,0.0,0.0,0.0,0.0,0.0,0.0,0.0,0.0,0.0,0.0,0.0,0.0,0.0,0.0,0.0,0.0,0.0,0.0,0.0,0.0,0.0,0.0,0.0,0.0,0.0,0.0,0.0,0.0,0.0,0.0,0.0,0.0,0.0,0.0,0.0,0.0,0.0,0.0,0.0,0.0,0.0,0.0,0.0,0.0,0.0,0.0,0.0,0.0,0.0,0.0,0.0,0.0,0.0,0.0,0.0,0.0,0.0,0.0,0.0,0.0,0.0,0.0,0.0,0.0,0.0,0.0,0.0,0.0,0.0,0.0,0.0,0.0,0.0,0.0,0.0,0.0,0.0,0.0,0.0,0.0,0.0,0.0,0.0,0.0,0.0,0.0,0.0,0.0,0.0,0.0,0.0,0.0,0.0,0.0,0.0,0.0,0.0,0.0,0.0,0.0,0.0,0.0,0.0,0.0,0.0,0.0,0.0,0.0,0.0,0.0,0.0,0.0,0.0,0.0,0.0,0.0,0.0,0.0,0.0,0.0,0.0,0.0,0.0,0.0,0.0,0.0,0.0,0.0,0.0,0.0,0.0,0.0,0.0,0.0,0.0,0.0,0.0,0.0,0.0,0.0,0.0,0.0,0.0,0.0,0.0,0.0,0.0,0.0,0.0,0.0,0.0,0.0,0.0,0.0,0.0,0.0,0.0,0.0,0.0,0.0,0.0,0.0,0.0,0.0,0.0,0.0,0.0,0.0,0.0,0.0,0.0,0.0,0.0,0.0,0.0,0.0,0.0,0.0,0.0,0.0,0.0,0.0,0.0,0.0,0.0,0.0,0.0,0.0,0.0,0.0,0.0,0.0,0.0,0.0,0.0,0.0,0.0,0.0,0.0,0.0,0.0,0.0,0.0,0.0,0.0,0.0,0.0,0.0,0.0,0.0,0.0,0.0,0.0,0.0,0.0,0.0,0.0,0.0,0.0,0.0,0.0,0.0,0.0,0.0,0.0,0.0,0.0,0.0,0.0,0.0,0.0,0.0,0.0,0.0,0.0,0.0,0.0,0.0,0.0,0.0,0.0,0.0,0.0,0.0,0.0,0.0,0.0,0.0,0.0,0.0,0.0,0.0,0.0,0.0,0.0,0.0,0.0,0.0,0.0,0.0,0.0,0.0,0.0,0.0,0.0,0.0,0.0,0.0,0.0,0.0,0.0,0.0,0.0,0.0,0.0,0.0,0.0,0.0,0.0,0.0,0.0,0.0,0.0,0.0,0.0,0.0,0.0,0.0,0.0,0.0,0.0,0.0,0.0,0.0,0.0,0.0,0.0,0.0,0.0,0.0,0.0,0.0,0.0,0.0,0.0,0.0,0.0,0.0,0.0,0.0,0.0,0.0,0.0,0.0,0.0,0.0,0.0,0.0,0.0,0.0,0.0,0.0,0.0,0.0,0.0,0.0,0.0,0.0,0.0,0.0,0.0,0.0,0.0,0.0,0.0,0.0,0.0,0.0,0.0,0.0,0.0,0.0,0.0,0.0,0.0,0.0,0.0,0.0,0.0,0.0,0.0,0.0,0.0,0.0,0.0,0.0,0.0,0.0,0.0,0.0,0.0,0.0,0.0,0.0,0.0,0.0,0.0,0.0,0.0,0.0,0.0,0.0,0.0,0.0,0.0,0.0,0.0,0.0,0.0,0.0,0.0,0.0,0.0,0.0,0.0,0.0,0.0,0.0,0.0,0.0,0.0,0.0,0.0,0.0,0.0,0.0,0.0,0.0,0.0,0.0,0.0,0.0,0.0,0.0,0.0,0.0,0.0,0.0,0.0,0.0,0.0,0.0,0.0,0.0,0.0,0.0,0.0,0.0,0.0,0.0,0.0,0.0,0.0,0.0,0.0,0.0,0.0,0.0,0.0,0.0,0.0,0.0,0.0,0.0,0.0,0.0,0.0,0.0,0.0,0.0,0.0,0.0,0.0,0.0,0.0,0.0,0.0,0.0,0.0,0.0,0.0,0.0,0.0,0.0,0.0,0.0,0.0,0.0,0.0,0.0,0.0,0.0,0.0,0.0,0.0,0.0,0.0,0.0,0.0,0.0,0.0,0.0,0.0,0.0,0.0,0.0,0.0,0.0,0.0,0.0,0.0,0.0,0.0,0.0,0.0,0.0,0.0,0.0,0.0,0.0,0.0,0.0,0.0,0.0,0.0,0.0,0.0,0.0,0.0,0.0,0.0,0.0,0.0,0.0,0.0,0.0,0.0,0.0,0.0,0.0,0.0,0.0,0.0,0.0,0.0,0.0,0.0,0.0,0.0,0.0,0.0,0.0,0.0,0.0,0.0,0.0,0.0,0.0,0.0,0.0,0.0,0.0,0.0,0.0,0.0,0.0,0.0,0.0,0.0,0.0,0.0,0.0,0.0,0.0,0.0,0.0,0.0,0.0,0.0,0.0,0.0,0.0,0.0,0.0,0.0,0.0,0.0,0.0,0.0,0.0,0.0,0.0,0.0,0.0,0.0,0.0,0.0,0.0,0.0,0.0,0.0,0.0,0.0,0.0,0.0,0.0,0.0,0.0,0.0,0.0,0.0,0.0,0.0,0.0,0.0,0.0,0.0,0.0,0.0,0.0,0.0,0.0,0.0,0.0,0.0,0.0,0.0,0.0,0.0,0.0,0.0,0.0,0.0,0.0,0.0,0.0,0.0,0.0,0.0,0.0,0.0,0.0,0.0,0.0,0.0,0.0,0.0,0.0,0.0,0.0,0.0,0.0,0.0,0.0,0.0,0.0,0.0,0.0,0.0,0.0,0.0,0.0,0.0,0.0,0.0,0.0,0.0,0.0,0.0,0.0,0.0,0.0,0.0,0.0,0.0,0.0,0.0,0.0,0.0,0.0,0.0,0.0,0.0,0.0,0.0,0.0,0.0,0.0,0.0,0.0,0.0,0.0,0.0,0.0,0.0,0.0,0.0,0.0,0.0,0.0,0.0,0.0,0.0,0.0,0.0,0.0,0.0,0.0,0.0,0.0,0.0,0.0,0.0,0.0,0.0,0.0,0.0,0.0,0.0,0.0,0.0,0.0,0.0,0.0,0.0,0.0,0.0,0.0,0.0,0.0,0.0,0.0,0.0,0.0,0.0,0.0,0.0,0.0,0.0,0.0,0.0,0.0,0.0,0.0,0.0,0.0,0.0,0.0,0.0,0.0,0.0,0.0,0.0,0.0,0.0,0.0,0.0,0.0,0.0,0.0,0.0,0.0,0.0,0.0,0.0,0.0,0.0,0.0,0.0,0.0,0.0,0.0,0.0,0.0,0.0,0.0,0.0,0.0,0.0,0.0,0.0,0.0,0.0,0.0,0.0,0.0,0.0,0.0,0.0,0.0,0.0,0.0,0.0,0.0,0.0,0.0,0.0,0.0,0.0,0.0,0.0,0.0,0.0,0.0,0.0,0.0,0.0,0.0,0.0,0.0,0.0,0.0,0.0,0.0,0.0,0.0,0.0,0.0,0.0,0.0,0.0,0.0,0.0,0.0,0.0,0.0,0.0,0.0,0.0,0.0,0.0,0.0,0.0,0.0,0.0,0.0,0.0,0.0,0.0,0.0,0.0,0.0,0.0,0.0,0.0,0.0,0.0,0.0,-0.432,0.0,0.0,0.0,0.0,0.0,0.0,0.0,0.0,0.0,0.0,0.0,0.0,0.0,0.0,0.0,0.0,0.0,0.0,0.0,0.0,0.0,0.0,0.0,0.0,0.0,0.0,0.0,0.0,0.0,0.0,0.0,0.0,0.0,0.0,0.0,0.0,0.0,0.0,0.0,0.0,0.0,0.0,0.0,0.0,0.0,0.0,0.0,0.0,0.0,0.0,0.0,0.0,0.0,0.0,0.0,0.0,0.0,0.0,0.0,0.0,0.0,0.0,0.0,0.0,0.0,0.0,0.0,0.0,0.0,0.0,0.0,0.0,0.0,0.0,0.0,0.0,0.0,0.0,0.0,0.0,0.0,0.0,0.0,0.0,0.0,0.0,0.0,0.0,0.0,0.0,0.0,0.0,0.0,0.0,0.0,0.0,0.0,0.0,0.0,0.0,0.0,0.0,0.0,0.0,0.0,0.0,0.0,0.0,0.0,0.0,-0.4307,-0.4334,-0.4191,-0.4156,-0.418,0.0,0.0,0.0,0.0,0.0,0.0,0.0,0.0,0.0,0.0,0.0,0.0,0.0,0.0,0.0,0.0,0.0,0.0,0.0,0.0,0.0,0.0,0.0,0.0,0.0,0.0,0.0,0.0,0.0,0.0,0.0,0.0,0.0,0.0,0.0,0.0,0.0,0.0,0.0,0.0,0.0,0.0,0.0,0.0,0.0,0.0,0.0,0.0,0.0,0.0,0.0,0.0,0.0,0.0,0.0,0.0,0.0,0.0,0.0,0.0,0.0,0.0,0.0,0.0,0.0,0.0,0.0,0.0,0.0,0.0,0.0,0.0,0.0,0.0,0.0,0.0,0.0,0.0,0.0,0.0,0.0,0.0,0.0,0.0,0.0,0.0,0.0,0.0,0.0,0.0,0.0,0.0,0.0,0.0,0.0,0.0,0.0,0.0,0.0,0.0,0.0,0.0,0.0,0.0,0.0,0.0,0.0,0.0,0.0,0.0,0.0,0.0,-0.3956,-0.3847,-0.3884,0.0,0.0,0.0,0.0,0.0,0.0,0.0,0.0,0.0,0.0,0.0,0.0,0.0,0.0,0.0,0.0,0.0,0.0,0.0,0.0,0.0,0.0,0.0,0.0,0.0,0.0,0.0,0.0,0.0,0.0,0.0,0.0,0.0,0.0,0.0,0.0,0.0,0.0,0.0,0.0,0.0,0.0,0.0,0.0,0.0,0.0,0.0,0.0,0.0,0.0,0.0,0.0,0.0,0.0,0.0,0.0,0.0,0.0,0.0,0.0,0.0,0.0,0.0,0.0,0.0,0.0,0.0,0.0,0.0,0.0,0.0,0.0,0.0,0.0,0.0,0.0,0.0,0.0,0.0,0.0,0.0,0.0,0.0,0.0,0.0,0.0,0.0,0.0,0.0,0.0,0.0,0.0,0.0,0.0,0.0,0.0,0.0,0.0,0.0,0.0,0.0,0.0,0.0,0.0,0.0,0.0,0.0,0.0,0.0,0.0,-0.398,-0.3932,-0.3674,0.0,-0.329,0.0,0.0,0.0,0.0,0.0,0.0,0.0,0.0,0.0,0.0,0.0,0.0,0.0,0.0,0.0,0.0,0.0,0.0,0.0,0.0,0.0,0.0,0.0,0.0,0.0,0.0,0.0,0.0,0.0,0.0,0.0,0.0,0.0,0.0,0.0,0.0,0.0,0.0,0.0,0.0,0.0,0.0,0.0,0.0,0.0,0.0,0.0,0.0,0.0,0.0,0.0,0.0,0.0,0.0,0.0,0.0,0.0,0.0,0.0,0.0,0.0,0.0,0.0,0.0,0.0,0.0,0.0,0.0,0.0,0.0,0.0,0.0,0.0,0.0,0.0,0.0,0.0,0.0,0.0,0.0,0.0,0.0,0.0,0.0,0.0,0.0,0.0,0.0,0.0,0.0,0.0,0.0,0.0,0.0,0.0,0.0,0.0,0.0,0.0,0.0,0.0,0.0,0.0,0.0,0.0,0.0,0.0,0.0,0.0,0.0,-0.3603,-0.3486,-0.3385,-0.32,0.0,0.0,0.0,0.0,0.0,0.0,0.0,0.0,0.0,0.0,0.0,0.0,0.0,0.0,0.0,0.0,0.0,0.0,0.0,0.0,0.0,0.0,0.0,0.0,0.0,0.0,0.0,0.0,0.0,0.0,0.0,0.0,0.0,0.0,0.0,0.0,0.0,0.0,0.0,0.0,0.0,0.0,0.0,0.0,0.0,0.0,0.0,0.0,0.0,0.0,0.0,0.0,0.0,0.0,0.0,0.0,0.0,0.0,0.0,0.0,0.0,0.0,0.0,0.0,0.0,0.0,0.0,0.0,0.0,0.0,0.0,0.0,0.0,0.0,0.0,0.0,0.0,0.0,0.0,0.0,0.0,0.0,0.0,0.0,0.0,0.0,0.0,0.0,0.0,0.0,0.0,0.0,0.0,0.0,0.0,0.0,0.0,0.0,0.0,0.0,0.0,0.0,0.0,0.0,0.0,0.0,0.0,0.0,0.0,0.0,-0.3284,-0.3183,-0.3012,-0.3003,-0.2904,-0.2721,0.0,0.0,0.0,0.0,0.0,0.0,0.0,0.0,0.0,0.0,0.0,0.0,0.0,0.0,0.0,0.0,0.0,0.0,0.0,0.0,0.0,0.0,0.0,0.0,0.0,0.0,0.0,0.0,0.0,0.0,0.0,0.0,0.0,0.0,0.0,0.0,0.0,0.0,0.0,0.0,0.0,0.0,0.0,0.0,0.0,0.0,0.0,0.0,0.0,0.0,0.0,0.0,0.0,0.0,0.0,0.0,0.0,0.0,0.0,0.0,0.0,0.0,0.0,0.0,0.0,0.0,0.0,0.0,0.0,0.0,0.0,0.0,0.0,0.0,0.0,0.0,0.0,0.0,0.0,0.0,0.0,0.0,0.0,0.0,0.0,0.0,0.0,0.0,0.0,0.0,0.0,0.0,0.0,0.0,0.0,0.0,0.0,0.0,0.0,0.0,0.0,0.0,0.0,0.0,0.0,0.0,0.0,0.0,-0.3209,-0.3018,-0.2786,-0.2548,-0.2527,-0.2538,0.0,0.0,0.0,0.0,0.0,0.0,0.0,0.0,0.0,0.0,0.0,0.0,0.0,0.0,0.0,0.0,0.0,0.0,0.0,0.0,0.0,0.0,0.0,0.0,0.0,0.0,0.0,0.0,0.0,0.0,0.0,0.0,0.0,0.0,0.0,0.0,0.0,0.0,0.0,0.0,0.0,0.0,0.0,0.0,0.0,0.0,0.0,0.0,0.0,0.0,0.0,0.0,0.0,0.0,0.0,0.0,0.0,0.0,0.0,0.0,0.0,0.0,0.0,0.0,0.0,0.0,0.0,0.0,0.0,0.0,0.0,0.0,0.0,0.0,0.0,0.0,0.0,0.0,0.0,0.0,0.0,0.0,0.0,0.0,0.0,0.0,0.0,0.0,0.0,0.0,0.0,0.0,0.0,0.0,0.0,0.0,0.0,0.0,0.0,0.0,0.0,0.0,0.0,0.0,0.0,0.0,0.0,0.0,0.0,-0.2629,-0.2418,-0.2254,-0.2128,-0.2233,-0.2331,0.0,0.0,0.0,0.0,0.0,0.0,0.0,0.0,0.0,0.0,0.0,0.0,0.0,0.0,0.0,0.0,0.0,0.0,0.0,0.0,0.0,0.0,0.0,0.0,0.0,0.0,0.0,0.0,0.0,0.0,0.0,0.0,0.0,0.0,0.0,0.0,0.0,0.0,0.0,0.0,0.0,0.0,0.0,0.0,0.0,0.0,0.0,0.0,0.0,0.0,0.0,0.0,0.0,0.0,0.0,0.0,0.0,0.0,0.0,0.0,0.0,0.0,0.0,0.0,0.0,0.0,0.0,0.0,0.0,0.0,0.0,0.0,0.0,0.0,0.0,0.0,0.0,0.0,0.0,0.0,0.0,0.0,0.0,0.0,0.0,0.0,0.0,0.0,0.0,0.0,0.0,0.0,0.0,0.0,0.0,0.0,0.0,0.0,0.0,0.0,0.0,0.0,0.0,0.0,0.0,0.0,0.0,0.0,0.0,-0.2313,0.0,-0.1899,-0.1845,-0.1998,-0.2113,0.0,0.0,0.0,0.0,0.0,0.0,0.0,0.0,0.0,0.0,0.0,0.0,0.0,0.0,0.0,0.0,0.0,0.0,0.0,0.0,0.0,0.0,0.0,0.0,0.0,0.0,0.0,0.0,0.0,0.0,0.0,0.0,0.0,0.0,0.0,0.0,0.0,0.0,0.0,0.0,0.0,0.0,0.0,0.0,0.0,0.0,0.0,0.0,0.0,0.0,0.0,0.0,0.0,0.0,0.0,0.0,0.0,0.0,0.0,0.0,0.0,0.0,0.0,0.0,0.0,0.0,0.0,0.0,0.0,0.0,0.0,0.0,0.0,0.0,0.0,0.0,0.0,0.0,0.0,0.0,0.0,0.0,0.0,0.0,0.0,0.0,0.0,0.0,0.0,0.0,0.0,0.0,0.0,0.0,0.0,0.0,0.0,0.0,0.0,0.0,0.0,0.0,0.0,0.0,0.0,0.0,0.0,0.0,-0.2834,-0.2321,-0.1992,-0.178,-0.1717,-0.1784,-0.1907,0.0,0.0,0.0,0.0,0.0,0.0,0.0,0.0,0.0,0.0,0.0,0.0,0.0,0.0,0.0,0.0,0.0,0.0,0.0,0.0,0.0,0.0,0.0,0.0,0.0,0.0,0.0,0.0,0.0,0.0,0.0,0.0,0.0,0.0,0.0,0.0,0.0,0.0,0.0,0.0,0.0,0.0,0.0,0.0,0.0,0.0,0.0,0.0,0.0,0.0,0.0,0.0,0.0,0.0,0.0,0.0,0.0,0.0,0.0,0.0,0.0,0.0,0.0,0.0,0.0,0.0,0.0,0.0,0.0,0.0,0.0,0.0,0.0,0.0,0.0,0.0,0.0,0.0,0.0,0.0,0.0,0.0,0.0,0.0,0.0,0.0,0.0,0.0,0.0,0.0,0.0,0.0,0.0,0.0,0.0,0.0,0.0,0.0,0.0,0.0,0.0,0.0,0.0,0.0,0.0,0.0,0.0,0.0,0.0,-0.2381,-0.2137,-0.203,-0.2114,-0.2047,-0.2069,0.0,0.0,0.0,0.0,0.0,0.0,0.0,0.0,0.0,0.0,0.0,0.0,0.0,0.0,0.0,0.0,0.0,0.0,0.0,0.0,0.0,0.0,0.0,0.0,0.0,0.0,0.0,0.0,0.0,0.0,0.0,0.0,0.0,0.0,0.0,0.0,0.0,0.0,0.0,0.0,0.0,0.0,0.0,0.0,0.0,0.0,0.0,0.0,0.0,0.0,0.0,0.0,0.0,0.0,0.0,0.0,0.0,0.0,0.0,0.0,0.0,0.0,0.0,0.0,0.0,0.0,0.0,0.0,0.0,0.0,0.0,0.0,0.0,0.0,0.0,0.0,0.0,0.0,0.0,0.0,0.0,0.0,0.0,0.0,0.0,0.0,0.0,0.0,0.0,0.0,0.0,0.0,0.0,0.0,0.0,0.0,0.0,0.0,0.0,0.0,0.0,0.0,0.0,0.0,0.0,0.0,0.0,0.0,0.0,-0.273,-0.2405,-0.2279,-0.2346,-0.2245,-0.2197,-0.2224,0.0,0.0,0.0,0.0,0.0,0.0,0.0,0.0,0.0,0.0,0.0,0.0,0.0,0.0,0.0,0.0,0.0,0.0,0.0,0.0,0.0,0.0,0.0,0.0,0.0,0.0,0.0,0.0,0.0,0.0,0.0,0.0,0.0,0.0,0.0,0.0,0.0,0.0,0.0,0.0,0.0,0.0,0.0,0.0,0.0,0.0,0.0,0.0,0.0,0.0,0.0,0.0,0.0,0.0,0.0,0.0,0.0,0.0,0.0,0.0,0.0,0.0,0.0,0.0,0.0,0.0,0.0,0.0,0.0,0.0,0.0,0.0,0.0,0.0,0.0,0.0,0.0,0.0,0.0,0.0,0.0,0.0,0.0,0.0,0.0,0.0,0.0,0.0,0.0,0.0,0.0,0.0,0.0,0.0,0.0,0.0,0.0,0.0,0.0,0.0,0.0,0.0,0.0,0.0,0.0,0.0,0.0,0.0,-0.329,-0.2804,-0.2515,-0.246,-0.2373,-0.2278,0.0,0.0,0.0,0.0,0.0,0.0,0.0,0.0,0.0,0.0,0.0,0.0,0.0,0.0,0.0,0.0,0.0,0.0,0.0,0.0,0.0,0.0,0.0,0.0,0.0,0.0,0.0,0.0,0.0,0.0,0.0,0.0,0.0,0.0,0.0,0.0,0.0,0.0,0.0,0.0,0.0,0.0,0.0,0.0,0.0,0.0,0.0,0.0,0.0,0.0,0.0,0.0,0.0,0.0,0.0,0.0,0.0,0.0,0.0,0.0,0.0,0.0,0.0,0.0,0.0,0.0,0.0,0.0,0.0,0.0,0.0,0.0,0.0,0.0,0.0,0.0,0.0,0.0,0.0,0.0,0.0,0.0,0.0,0.0,0.0,0.0,0.0,0.0,0.0,0.0,0.0,0.0,0.0,0.0,0.0,0.0,0.0,0.0,0.0,0.0,0.0,0.0,0.0,0.0,0.0,0.0,0.0,0.0,0.0,-0.3193,-0.3089,-0.3021,-0.299,-0.2835,-0.2659,0.0,0.0,0.0,0.0,0.0,0.0,0.0,0.0,0.0,0.0,0.0,0.0,0.0,0.0,0.0,0.0,0.0,0.0,0.0,0.0,0.0,0.0,0.0,0.0,0.0,0.0,0.0,0.0,0.0,0.0,0.0,0.0,0.0,0.0,0.0,0.0,0.0,0.0,0.0,0.0,0.0,0.0,0.0,0.0,0.0,0.0,0.0,0.0,0.0,0.0,0.0,0.0,0.0,0.0,0.0,0.0,0.0,0.0,0.0,0.0,0.0,0.0,0.0,0.0,0.0,0.0,0.0,0.0,0.0,0.0,0.0,0.0,0.0,0.0,0.0,0.0,0.0,0.0,0.0,0.0,0.0,0.0,0.0,0.0,0.0,0.0,0.0,0.0,0.0,0.0,0.0,0.0,0.0,0.0,0.0,0.0,0.0,0.0,0.0,0.0,0.0,0.0,0.0,0.0,0.0,0.0,0.0,0.0,-0.2814,-0.2988,-0.3016,-0.304,-0.304,-0.2936,-0.2762,0.0,0.0,0.0,0.0,0.0,0.0,0.0,0.0,0.0,0.0,0.0,0.0,0.0,0.0,0.0,0.0,0.0,0.0,0.0,0.0,0.0,0.0,0.0,0.0,0.0,0.0,0.0,0.0,0.0,0.0,0.0,0.0,0.0,0.0,0.0,0.0,0.0,0.0,0.0,0.0,0.0,0.0,0.0,0.0,0.0,0.0,0.0,0.0,0.0,0.0,0.0,0.0,0.0,0.0,0.0,0.0,0.0,0.0,0.0,0.0,0.0,0.0,0.0,0.0,0.0,0.0,0.0,0.0,0.0,0.0,0.0,0.0,0.0,0.0,0.0,0.0,0.0,0.0,0.0,0.0,0.0,0.0,0.0,0.0,0.0,0.0,0.0,0.0,0.0,0.0,0.0,0.0,0.0,0.0,0.0,0.0,0.0,0.0,0.0,0.0,0.0,0.0,0.0,0.0,0.0,0.0,0.0,0.0,-0.2598,-0.2686,-0.2746,-0.2773,-0.2749,-0.2823,-0.2648,0.0,0.0,0.0,0.0,0.0,0.0,0.0,0.0,0.0,0.0,0.0,0.0,0.0,0.0,0.0,0.0,0.0,0.0,0.0,0.0,0.0,0.0,0.0,0.0,0.0,0.0,0.0,0.0,0.0,0.0,0.0,0.0,0.0,0.0,0.0,0.0,0.0,0.0,0.0,0.0,0.0,0.0,0.0,0.0,0.0,0.0,0.0,0.0,0.0,0.0,0.0,0.0,0.0,0.0,0.0,0.0,0.0,0.0,0.0,0.0,0.0,0.0,0.0,0.0,0.0,0.0,0.0,0.0,0.0,0.0,0.0,0.0,0.0,0.0,0.0,0.0,0.0,0.0,0.0,0.0,0.0,0.0,0.0,0.0,0.0,0.0,0.0,0.0,0.0,0.0,0.0,0.0,0.0,0.0,0.0,0.0,0.0,0.0,0.0,0.0,0.0,0.0,0.0,0.0,0.0,0.0,0.0,0.0,-0.2291,-0.2613,-0.2637,-0.2558,-0.2411,-0.2569,-0.2487,0.0,0.0,0.0,0.0,0.0,0.0,0.0,0.0,0.0,0.0,0.0,0.0,0.0,0.0,0.0,0.0,0.0,0.0,0.0,0.0,0.0,0.0,0.0,0.0,0.0,0.0,0.0,0.0,0.0,0.0,0.0,0.0,0.0,0.0,0.0,0.0,0.0,0.0,0.0,0.0,0.0,0.0,0.0,0.0,0.0,0.0,0.0,0.0,0.5443,0.0,0.0,0.0,0.0,0.0,0.0,0.0,0.0,0.0,0.0,0.0,0.0,0.0,0.0,0.0,0.0,0.0,0.0,0.0,0.0,0.0,0.0,0.0,0.0,0.0,0.0,0.0,0.0,0.0,0.0,0.0,0.0,0.0,0.0,0.0,0.0,0.0,0.0,0.0,0.0,0.0,0.0,0.0,0.0,0.0,0.0,0.0,0.0,0.0,0.0,0.0,0.0,0.0,0.0,0.0,0.0,0.0,0.0,0.0,-0.1741,-0.1887,-0.1866,-0.1796,-0.1705,-0.1797,-0.1815,0.0,0.0,0.0,0.0,0.0,0.0,0.0,0.0,0.0,0.0,0.0,0.0,0.0,0.0,0.0,0.0,0.0,0.0,0.0,0.0,0.0,0.0,0.0,0.0,0.0,0.0,0.0,0.0,0.0,0.0,0.0,0.0,0.0,0.0,0.0,0.0,0.0,0.0,0.0,0.0,0.0,0.0,0.0,0.0,0.0,0.0,0.0,0.0,0.0,0.0,0.0,0.0,0.0,0.0,0.0,0.0,0.0,0.0,0.0,0.0,0.0,0.0,0.0,0.0,0.0,0.0,0.0,0.0,0.0,0.0,0.0,0.0,0.0,0.0,0.0,0.0,0.0,0.0,0.0,0.0,0.0,0.0,0.0,0.0,0.0,0.0,0.0,0.0,0.0,0.0,0.0,0.0,0.0,0.0,0.0,0.0,0.0,0.0,0.0,0.0,0.0,0.0,0.0,0.0,0.0,0.0,0.0,-0.1276,-0.118,-0.1086,-0.1002,-0.097,-0.0965,-0.0968,-0.1026,-0.1151,0.0,0.0,0.0,0.0,0.0,0.0,0.0,0.0,0.0,0.0,0.0,0.0,0.0,0.0,0.0,0.0,0.0,0.0,0.0,0.0,0.0,0.0,0.0,0.0,0.0,0.0,0.0,0.0,0.0,0.0,0.0,0.0,0.0,0.0,0.0,0.0,0.0,0.0,0.4463,0.5165,0.0,0.0,0.0,0.0,0.0,0.0,0.0,0.0,0.5856,0.0,0.0,0.0,0.0,0.0,0.0,0.0,0.0,0.0,0.0,0.0,0.0,0.0,0.0,0.0,0.0,0.0,0.0,0.0,0.0,0.0,0.0,0.0,0.0,0.0,0.0,0.0,0.0,0.0,0.0,0.0,0.0,0.0,0.0,0.0,0.0,0.0,0.0,0.0,0.0,0.0,0.0,0.0,0.0,0.0,0.0,0.0,0.0,0.0,0.0,0.0,0.0,0.0,0.0,0.0,0.0,-0.1162,-0.0979,-0.0928,-0.1005,-0.0896,-0.0843,-0.0835,-0.0829,-0.0751,-0.0561,0.0,0.0,0.0,0.0,0.0,0.0,0.0,0.0,0.0,0.0,0.0,0.0,0.0,0.0,0.0,0.0,0.0,0.0,0.0,0.0,0.0,0.0,0.0,0.0,0.0,0.0,0.0,0.0,0.0,0.0,0.0,0.0,0.0,0.0,0.0,0.0,0.0,0.0,0.0,0.595,0.6229,0.0,0.0,0.0,0.0,0.0,0.0,0.0,0.0,0.6774,0.0,0.0,0.0,0.0,0.0,0.0,0.0,0.0,0.0,0.0,0.0,0.0,0.0,0.0,0.0,0.0,0.0,0.0,0.0,0.0,0.0,0.0,0.0,0.0,0.0,0.0,0.0,0.0,0.0,0.0,0.0,0.0,0.0,0.0,0.0,0.0,0.0,0.0,0.0,0.0,0.0,0.0,0.0,0.0,0.0,0.0,0.0,0.0,0.0,0.0,0.0,0.0,0.0,0.0,0.0,-0.0945,-0.0744,-0.0613,-0.0586,-0.0462,-0.0389,-0.0396,-0.0376,-0.0316,0.0,0.0,0.0,0.0,0.0,0.0,0.0,0.0,0.0,0.0,0.0,0.0,0.0,0.0,0.0,0.0,0.0,0.0,0.0,0.0,0.0,0.0,0.0,0.0,0.0,0.0,0.0,0.0,0.0,0.0,0.0,0.0,0.0,0.0,0.0,0.0,0.0,0.0,0.0,0.0,0.6308,0.6732,0.7145,0.0,0.0,0.0,0.0,0.0,0.0,0.706,0.696,0.0,0.0,0.0,0.0,0.0,0.0,0.0,0.0,0.0,0.0,0.0,0.0,0.0,0.0,0.0,0.0,0.0,0.0,0.0,0.0,0.0,0.0,0.0,0.0,0.0,0.0,0.0,0.0,0.0,0.0,0.0,0.0,0.0,0.0,0.0,0.0,0.0,0.0,0.0,0.0,0.0,0.0,0.0,0.0,0.0,0.0,0.0,0.0,0.0,0.0,0.0,0.0,0.0,0.0,0.0,-0.0728,-0.0546,-0.0343,-0.0158,-0.0066,0.0,0.0,0.0,0.0,0.0,0.0,0.0,0.0,0.0,0.0,0.0,0.0,0.0,0.0,0.0,0.0,0.0,0.0,0.0,0.0,0.0,0.0,0.0,0.0,0.0,0.0,0.0,0.0,0.0,0.0,0.0,0.0,0.0,0.0,0.0,0.0,0.0,0.0,0.0,0.0,0.0,0.0,0.0,0.0,0.0,0.726,0.7689,0.7717,0.0,0.0,0.0,0.0,0.7885,0.7526,0.0,0.0,0.0,0.0,0.0,0.0,0.0,0.0,0.0,0.0,0.0,0.0,0.0,0.0,0.0,0.0,0.0,0.0,0.0,0.0,0.0,0.0,0.0,0.0,0.0,0.0,0.0,0.0,0.0,0.0,0.0,0.0,0.0,0.0,0.0,0.0,0.0,0.0,0.0,0.0,0.0,0.0,0.0,0.0,0.0,0.0,0.0,0.0,0.0,0.0,0.0,0.0,0.0,0.0,0.0,0.0,-0.0445,-0.0317,-0.0159,-0.0038,0.0,0.0,0.0,0.0,0.0,0.0,0.0,0.0,0.0,0.0,0.0,0.0,0.0,0.0,0.0,0.0,0.0,0.0,0.0,0.0,0.0,0.0,0.0,0.0,0.0,0.0,0.0,0.0,0.0,0.0,0.0,0.0,0.0,0.0,0.0,0.0,0.0,0.0,0.0,0.0,0.0,0.0,0.0,0.0,0.0,0.0,0.7993,0.8577,0.8456,0.8202,0.0,0.0,0.0,0.8322,0.8365,0.0,0.0,0.0,0.0,0.0,0.0,0.0,0.0,0.0,0.0,0.0,0.0,0.0,0.0,0.0,0.0,0.0,0.0,0.0,0.0,0.0,0.0,0.0,0.0,0.0,0.0,0.0,0.0,0.0,0.0,0.0,0.0,0.0,0.0,0.0,0.0,0.0,0.0,0.0,0.0,0.0,0.0,0.0,0.0,0.0,0.0,0.0,0.0,0.0,0.0,0.0,0.0,0.0,0.0,0.0,-0.0473,-0.0348,-0.0258,-0.0122,0.0,0.0,0.0,0.0,0.0,0.0,0.0,0.0,0.0,0.0,0.0,0.0,0.0,0.0,0.0,0.0,0.0,0.0,0.0,0.0,0.0,0.0,0.0,0.0,0.0,0.0,0.0,0.0,0.0,0.0,0.0,0.0,0.0,0.0,0.0,0.0,0.0,0.0,0.0,0.0,0.0,0.0,0.0,0.0,0.0,0.0,0.0,0.0,0.8918,0.9078,0.0,0.0,0.0,0.8938,0.9207,0.0,0.0,0.0,0.0,0.0,0.0,0.0,0.0,0.0,0.0,0.0,0.0,0.0,0.0,0.0,0.0,0.0,0.0,0.0,0.0,0.0,0.0,0.0,0.0,0.0,0.0,0.0,0.0,0.0,0.0,0.0,0.0,0.0,0.0,0.0,0.0,0.0,0.0,0.0,0.0,0.0,0.0,0.0,0.0,0.0,0.0,0.0,0.0,0.0,0.0,0.0,0.0,0.0,0.0,0.0,0.0,0.0,-0.0274,-0.0202,-0.0086,0.0038,0.005,0.0063,0.0101,0.0105,0.0,0.0,0.0,0.0,0.0,0.0,0.0,0.0,0.0,0.0,0.0,0.0,0.0,0.0,0.0,0.0,0.0,0.0,0.0,0.0,0.0,0.0,0.0,0.0,0.0,0.0,0.0,0.3428,0.0,0.0,0.0,0.0,0.0,0.0,0.0,0.0,0.0,0.0,0.0,0.0,0.0,0.0,0.8525,0.931,0.9689,0.9908,0.0,0.0,0.9675,1.0015,0.9785,0.9475,0.0,0.0,0.0,0.0,0.0,0.0,0.0,0.0,0.0,0.0,0.0,0.0,0.0,0.0,0.0,0.0,0.0,0.0,0.0,0.0,0.0,0.0,0.0,0.0,0.0,0.0,0.0,0.0,0.0,0.0,0.0,0.0,0.0,0.0,0.0,0.0,0.0,0.0,0.0,0.0,0.0,0.0,0.0,0.0,0.0,0.0,0.0,0.0,0.0,0.0,0.0,0.0,0.0,0.0,0.0,-0.0202,-0.0074,0.005,0.0189,0.0202,0.0239,0.0377,0.0363,0.0382,0.0,0.0,0.0,0.0,0.0,0.0,0.0,0.0,0.0,0.0,0.0,0.0,0.0,0.0,0.0,0.0,0.0,0.0,0.0,0.0,0.0,0.0,0.0,0.0,0.0,0.0,0.0,0.0,0.0,0.0,0.0,0.0,0.0,0.0,0.0,0.0,0.0,0.0,0.0,0.0,0.0,0.9337,0.9943,1.0231,1.0461,0.0,0.0,1.0526,1.0547,1.053,1.033,0.9739,0.0,0.0,0.0,0.0,0.0,0.0,0.0,0.0,0.0,0.0,0.0,0.0,0.0,0.0,0.0,0.0,0.0,0.0,0.0,0.0,0.0,0.0,0.0,0.0,0.0,0.0,0.0,0.0,0.0,0.0,0.0,0.0,0.0,0.0,0.0,0.0,0.0,0.0,0.0,0.0,0.0,0.0,0.0,0.0,0.0,0.0,0.0,0.0,0.0,0.0,0.0,0.0,0.0,-0.0055,-0.0084,-0.0025,0.0077,0.0208,0.0208,0.0339,0.0587,0.0571,0.06,0.0,0.0,0.0,0.0,0.0,0.0,0.0,0.0,0.0,0.0,0.0,0.0,0.0,0.0,0.0,0.0,0.0,0.0,0.0,0.0,0.0,0.0,0.0,0.0,0.0,0.0,0.0,0.0,0.6168,0.6635,0.6858,0.0,0.0,0.0,0.0,0.0,0.0,0.0,0.0,0.0,0.0,0.9533,1.045,1.0729,0.0,0.0,1.1098,1.0898,1.1122,1.0796,1.0503,1.0389,0.9858,0.0,0.0,0.0,0.0,0.0,0.0,0.0,0.0,0.0,0.0,0.0,0.0,0.0,0.0,0.0,0.0,0.0,0.0,0.0,0.0,0.0,0.0,0.0,0.0,0.0,0.0,0.0,0.0,0.0,0.0,0.0,0.0,0.0,0.0,0.0,0.0,0.0,0.0,0.0,0.0,0.0,0.0,0.0,0.0,0.0,0.0,0.0,0.0,0.0,0.0,0.0,0.0,0.0034,0.0061,0.0051,0.0171,0.0419,0.0446,0.0663,0.1,0.107,0.113,0.0,0.0,0.0,0.0,0.0,0.0,0.0,0.0,0.0,0.0,0.0,0.0,0.0,0.0,0.0,0.0,0.0,0.0,0.0,0.0,0.0,0.0,0.0,0.0,0.0,0.0,0.0,0.0,0.6441,0.6742,0.698,0.0,0.0,0.0,0.0,0.0,0.0,0.0,0.0,0.0,0.0,0.992,1.0767,1.1122,1.1472,1.1878,1.1731,1.1631,1.1841,1.1499,1.1165,1.1146,0.0,0.0,0.0,0.0,0.0,0.0,0.0,0.0,0.0,0.0,0.0,0.0,0.0,0.0,0.0,0.0,0.0,0.0,0.0,0.0,0.0,0.0,0.0,0.0,0.0,0.0,0.0,0.0,0.0,0.0,0.0,0.0,0.0,0.0,0.0,0.0,0.0,0.0,0.0,0.0,0.0,0.0,0.0,0.0,0.0,0.0,0.0,0.0,0.0,0.0,0.0,0.0,0.0,0.0,0.0189,0.0202,0.042,0.0854,0.1009,0.13,0.1744,0.1894,0.203,0.2157,0.0,0.0,0.0,0.0,0.0,0.0,0.0,0.0,0.0,0.0,0.0,0.0,0.0,0.0,0.0,0.0,0.0,0.0,0.0,0.0,0.0,0.0,0.0,0.0,0.0,0.0,0.6645,0.6864,0.698,0.0,0.0,0.0,0.0,0.0,0.0,0.0,0.0,0.0,0.0,0.9995,1.0619,1.0798,1.1373,1.1906,1.225,1.2547,1.275,1.2758,1.2733,1.2555,0.0,0.0,0.0,0.0,0.0,0.0,0.0,0.0,0.0,0.0,0.0,0.0,0.0,0.0,0.0,0.0,0.0,0.0,0.0,0.0,0.0,0.0,0.0,0.0,0.0,0.0,0.0,-0.1636,-0.1465,0.0,0.0,0.0,0.0,0.0,0.0,0.0,0.0,0.0,0.0,0.0,-0.0255,-0.017,0.0,0.0,0.0,0.0,0.0,0.0,0.0,0.0,0.0,0.0,0.0,0.0,0.0316,0.0391,0.0506,0.0723,0.11,0.1192,0.1499,0.2057,0.2104,0.2231,0.2448,0.0,0.0,0.0,0.0,0.0,0.0,0.0,0.0,0.0,0.0,0.0,0.0,0.0,0.0,0.0,0.0,0.0,0.0,0.0,0.0,0.0,0.0,0.0,0.0,0.0,0.6654,0.0,0.0,0.0,0.0,0.0,0.0,0.0,0.0,0.0,0.0,0.0,0.9192,1.0025,1.0397,1.0847,1.1514,1.1818,1.218,0.0,0.0,0.0,0.0,0.0,0.0,0.0,0.0,0.0,0.0,0.0,0.0,0.0,0.0,1.1513,1.0321,1.01,1.01,1.011,0.0,0.0,0.0,0.0,0.0,0.0,0.0,0.0,0.0,0.0,0.0,0.0,0.0,0.0,0.0,0.0,-0.1187,0.0,0.0,0.0,0.0,0.0,0.0,0.0,0.0,-0.0381,-0.0236,-0.0136,-0.0027,0.0,0.0,0.0,0.0037,0.0,0.0,0.0,0.0,0.0,0.0,0.0,0.0,0.0588,0.0677,0.0907,0.1165,0.15,0.1659,0.1999,0.2491,0.2617,0.2755,0.2873,0.2749,0.26,0.0,0.0,0.0,0.0,0.0,0.0,0.0,0.0,0.0,0.0,0.0,0.0,0.0,0.0,0.0,0.0,0.0,0.0,0.0,0.0,0.0,0.0,0.0,0.6939,0.0,0.0,0.0,0.0,0.0,0.0,0.0,0.0,0.0,0.8959,0.9472,1.0066,1.0625,1.0953,1.1346,1.1952,0.0,0.0,0.0,0.0,0.0,0.0,0.0,1.3801,1.3985,1.3677,1.3523,1.3859,1.3928,1.4011,1.428,0.0,0.0,1.2055,1.1736,1.1724,1.1724,1.2052,1.2422,1.2703,1.3484,1.4212,0.0,0.0,0.0,0.0,0.0,0.0,0.0,0.0,-0.1021,-0.0946,0.0,-0.0826,0.0,0.0,0.0,0.0,0.0,0.0,0.0,0.0,-0.0187,-0.0056,0.0,0.0,0.0,0.0,0.0,0.0084,0.0202,0.0094,0.0,0.0,0.0,0.0,0.0,0.0,0.0897,0.1045,0.1435,0.1791,0.2099,0.2429,0.2766,0.3081,0.3416,0.3513,0.3411,0.3272,0.3115,0.2921,0.2782,0.0,0.0,0.0,0.0,0.0,0.0,0.0,0.0,0.0,0.0,0.0,0.0,0.0,0.0,0.0,0.0,0.0,0.0,0.0,0.0,0.6778,0.0,0.0,0.0,0.0,0.0,0.0,0.0,0.0,0.0,0.0,0.9462,1.0563,1.1294,1.1009,0.0,0.0,0.0,0.0,1.3021,1.3545,1.4172,1.4744,1.51,1.5454,1.5661,1.5689,0.0,0.0,1.5175,1.5194,1.546,1.6204,1.6314,1.5737,1.3851,1.3511,1.3442,1.3456,1.3772,1.4258,1.4983,1.5441,1.5989,-0.2147,0.0,0.0,0.0,0.0,-0.1206,-0.1019,-0.0624,-0.0768,-0.068,-0.0496,-0.063,0.0,0.0,0.0,0.0,0.0,0.0,-0.024,-0.0252,-0.0089,-0.0015,0.0,0.0,0.0076,0.0206,0.0221,0.029,0.0423,0.0527,0.0561,0.0563,0.0,0.0,0.0,0.0,0.1539,0.1791,0.2133,0.2418,0.2605,0.2842,0.3081,0.3304,0.3502,0.3571,0.3527,0.3506,0.342,0.3263,0.3127,0.0,0.0,0.0,0.0,0.0,0.0,0.0,0.0,0.0,0.0,0.0,0.0,0.0,0.0,0.0,0.0,0.0,0.0,0.0,0.7266,0.7468,0.7535,0.0,0.0,0.0,0.0,0.0,0.0,0.0,0.0,0.0,1.1218,1.1556,1.1873,0.0,0.0,1.2872,1.3011,1.3339,1.3672,1.3917,0.0,0.0,0.0,1.5352,1.562,1.605,1.6505,1.6807,1.6807,1.7055,1.7312,1.755,1.7596,1.7376,1.6863,1.6241,1.5865,1.59,1.6193,1.6522,1.6771,1.712,1.7477,-0.1791,-0.1593,-0.1505,-0.1276,-0.0958,-0.0978,-0.078,-0.0465,-0.0487,-0.041,-0.0243,-0.0377,-0.0411,-0.039,-0.0464,0.0,0.0,0.0,-0.0121,-0.0124,-0.0031,0.0,0.0,0.0096,0.0173,0.0306,0.0428,0.0608,0.081,0.102,0.124,0.1441,0.0,0.0,0.1822,0.2052,0.2258,0.2426,0.2787,0.3009,0.3117,0.3291,0.3412,0.3463,0.3544,0.3599,0.3599,0.3599,0.3564,0.349,0.3357,0.3205,0.0,0.0,0.0,0.0,0.0,0.0,0.0,0.0,0.0,0.0,0.0,0.3934,0.0,0.0,0.0,0.0,0.6521,0.7044,0.7775,0.7745,0.0,0.0,0.0,0.0,0.0,0.0,0.0,1.0322,1.1037,1.1767,1.2593,1.2746,1.283,1.3013,1.3192,1.3367,1.3541,0.0,1.4073,1.438,1.4822,1.5232,1.5514,1.5675,1.5969,1.6553,1.7112,1.7623,1.7944,1.8182,1.8384,1.855,1.8567,1.8567,1.8567,1.8183,1.7743,1.7441,1.756,1.7779,1.7935,1.8183,1.8384,-0.1398,-0.1276,-0.129,-0.1155,-0.0997,-0.0865,-0.0648,-0.042,-0.0299,-0.0158,-0.003,-0.0154,-0.0215,-0.0209,-0.0185,0.0,0.0,0.0,0.0,0.0,0.0,0.0,0.0034,0.022,0.0317,0.0356,0.0697,0.1022,0.1382,0.1598,0.2032,0.2625,0.2186,0.2107,0.2386,0.2747,0.2948,0.2987,0.3334,0.3562,0.3647,0.3751,0.3759,0.3632,0.3605,0.3599,0.3599,0.3599,0.3599,0.3597,0.349,0.3347,0.3222,0.0,0.0,0.0,0.0,0.0,0.0,0.0,0.0,0.0,0.0,0.0,0.0,0.0,0.0,0.0,0.7354,0.0,0.7937,0.7844,0.0,0.0,0.0,0.8282,0.9432,0.9613,1.0174,1.1498,0.0,0.0,0.0,0.0,1.3945,1.355,1.3604,1.3731,1.3848,1.4064,1.4363,1.484,1.5257,1.5652,1.5992,1.6237,1.6563,1.7045,1.7406,1.7889,1.8513,1.8714,1.8907,1.9191,1.9283,1.9274,1.9283,1.9201,1.9081,1.8311,1.821,1.832,1.865,1.8742,1.8833,-0.1312,-0.1157,-0.1158,-0.1041,-0.0917,-0.0885,-0.0748,-0.0552,-0.0528,-0.04,-0.0219,-0.0272,-0.0268,-0.0262,-0.0118,-0.0119,-0.0219,-0.0069,0.0,0.0,0.0,0.0088,0.0226,0.0278,0.0513,0.09,0.1099,0.146,0.1979,0.2288,0.265,0.3064,0.324,0.3253,0.3144,0.3243,0.3385,0.3586,0.3782,0.3909,0.3974,0.3922,0.3848,0.3745,0.3657,0.3599,0.3599,0.3599,0.3599,0.3599,0.3569,0.3487,0.3362,0.3362,0.0,0.0,0.0,0.0,0.0,0.0,0.0,0.0,0.0,0.5202,0.572,0.0,0.679,0.0,0.7803,0.8235,0.8479,0.8498,0.0,0.0,0.8994,0.9317,0.9966,1.066,1.1375,1.205,1.2724,1.3346,1.3917,1.4036,1.4153,1.4275,1.4334,1.4369,1.4396,1.4721,1.4965,1.5135,1.5477,1.5799,1.6079,1.6599,1.6992,1.7171,1.7852,1.8485,1.8678,1.8952,1.9181,1.9263,1.9292,1.9292,1.9292,1.9292,1.9237,1.9044,1.9026,1.9025,1.9146,1.9146,1.9182,-0.1268,-0.1191,-0.116,-0.1118,-0.1069,-0.0955,-0.084,-0.0718,-0.0642,-0.053,-0.0428,-0.0428,-0.0442,-0.042,-0.0319,-0.0285,-0.0285,-0.0181,-0.0091,0.0,0.0091,0.0199,0.0321,0.057,0.0879,0.125,0.1643,0.2075,0.2557,0.2891,0.3224,0.3563,0.3823,0.3936,0.3877,0.383,0.3871,0.4011,0.4097,0.4123,0.4086,0.3967,0.3876,0.38,0.3671,0.3599,0.3599,0.3599,0.3599,0.3599,0.3599,0.3605,0.3587,0.3572,0.3608,0.0,0.0,0.0,0.0,0.0,0.0,0.0,0.0,0.0,0.0,0.0,0.7556,0.0,0.8283,0.0,0.8692,0.8812,0.9038,0.9449,0.9918,1.0451,1.1071,1.1797,1.2457,1.2959,1.3417,1.388,1.4256,1.4329,1.4383,1.4573,1.4587,1.4587,1.4641,1.4937,1.5196,1.5214,1.5532,1.5832,1.5956,1.644,1.6875,1.7126,1.7687,1.8229,1.8402,1.876,1.9036,1.9045,1.9173,1.9292,1.9283,1.9146,1.9045,1.9017,1.8898,1.8926,1.9219,1.9292,1.9292,-0.1259,-0.128,-0.1239,-0.1244,-0.1285,-0.106,-0.0969,-0.0946,-0.0765,-0.0676,-0.0626,-0.0607,-0.0607,-0.0625,-0.0607,-0.0515,-0.0368,-0.0331,-0.0202,-0.0037,0.0184,0.0312,0.0403,0.0952,0.1355,0.1586,0.227,0.2797,0.3142,0.3449,0.377,0.4091,0.4223,0.4359,0.4508,0.4412,0.4338,0.4322,0.4308,0.4249,0.4126,0.3989,0.3901,0.3808,0.3693,0.3627,0.3599,0.3599,0.3599,0.3599,0.3599,0.3672,0.3791,0.3836,0.3981,0.0,0.4552,0.0,0.0,0.0,0.0,0.0,0.0,0.0,0.0,0.7853,0.8338,0.8719,0.8773,0.8824,0.8854,0.9095,0.9505,1.0168,1.0787,1.1496,1.227,1.2852,1.3395,1.386,1.4062,1.4282,1.455,1.4587,1.4579,1.4587,1.4587,1.4605,1.4659,1.4955,1.5196,1.5196,1.5532,1.5805,1.5858,1.6096,1.6457,1.683,1.7288,1.7614,1.7963,1.8338,1.8622,1.865,1.8869,1.9109,1.9146,1.8842,1.865,1.8613,1.8375,1.8375,1.8916,1.9072,1.9146,-0.1289,-0.1316,-0.1273,-0.1284,-0.1308,-0.1257,-0.1242,-0.1213,-0.1186,-0.1051,-0.0833,-0.0678,-0.0698,-0.0833,-0.0658,-0.0678,-0.0775,-0.0445,-0.0271,-0.0233,0.0136,0.046,0.079,0.1241,0.1799,0.2459,0.2948,0.3409,0.3891,0.4138,0.4334,0.4571,0.4589,0.4636,0.4654,0.0,0.0,0.0,0.4363,0.4273,0.4265,0.4113,0.3992,0.3888,0.3798,0.0,0.3605,0.3599,0.3599,0.3599,0.3599,0.0,0.0,0.0,0.0,0.0,0.0,0.0,0.0,0.0,0.0,0.0,0.8518,0.8533,0.8076,0.8366,0.8711,0.8999,0.9233,0.945,0.9638,0.9913,1.0325,1.0924,1.1333,1.1886,1.2618,1.3319,1.3838,1.4039,1.4328,1.4526,1.4581,1.4587,1.4587,1.4587,1.4587,1.4659,1.4818,1.5052,1.5196,1.5222,1.5558,1.5805,1.5805,1.6096,1.6333,1.6492,1.7054,1.7486,1.7623,1.7963,1.821,1.8219,1.8264,1.8357,1.8347,1.8265,1.8219,1.8219,1.8127,1.8127,1.8274,1.8329,1.8329,-0.1304,0.0,-0.132,-0.1306,0.0,-0.1306,-0.131,-0.1322,-0.1322,-0.1212,-0.1099,-0.0987,-0.1002,-0.1081,-0.0983,-0.0864,-0.0746,-0.0452,-0.0138,0.0177,0.0707,0.1112,0.1425,0.2021,0.2547,0.3004,0.3487,0.3923,0.4256,0.447,0.4617,0.469,0.4732,0.4741,0.4762,0.4759,0.4669,0.4506,0.4432,0.4374,0.43,0.4181,0.4056,0.3994,0.0,0.0,0.0,0.0,0.0,0.0,0.0,0.0,0.0,0.0,0.0,0.5562,0.6233,0.6866,0.7457,0.808,0.8612,0.8975,0.9386,0.9477,0.9075,0.9206,0.9408,0.9677,0.9817,0.9955,1.0088,1.0432,1.0855,1.1359,1.2006,1.2667,1.3234,1.3847,1.4247,1.4351,1.4486,1.4587,1.4587,1.4587,1.4587,1.4605,1.4703,1.48,1.4882,1.507,1.5258,1.547,1.5647,1.5805,1.5841,1.607,1.6289,1.6377,1.681,1.7175,1.7219,1.7541,1.7798,1.7807,1.7972,1.81,1.8082,1.7953,1.7816,1.777,1.7642,1.7514,1.7532,1.7798,1.81,-0.1313,-0.1313,-0.1319,-0.1321,-0.1321,-0.1321,-0.1321,-0.132,0.0,0.0,0.0,-0.1304,-0.131,-0.1305,-0.1305,-0.1065,-0.0648,-0.0373,0.0059,0.0629,0.1355,0.1825,0.2078,0.2859,0.3312,0.3518,0.405,0.4365,0.4515,0.468,0.4753,0.4745,0.4817,0.4828,0.4828,0.4828,0.4738,0.456,0.4508,0.4457,0.4333,0.4194,0.4121,0.4086,0.4005,0.3927,0.3905,0.3903,0.3903,0.3903,0.3933,0.4106,0.4491,0.5073,0.5773,0.6544,0.7258,0.7946,0.8575,0.9009,0.9381,0.9707,0.9978,1.0095,0.9986,0.9973,1.0063,1.0274,1.0334,1.0382,1.0423,1.0848,1.1315,1.1789,1.2673,1.3411,1.3855,1.4307,1.4571,1.4587,1.4579,1.4587,1.4587,1.4587,1.4587,1.4623,1.4774,1.4961,1.5015,1.5159,1.539,1.5691,1.5788,1.5823,1.5885,1.6096,1.6289,1.6377,1.6665,1.6891,1.6954,1.7174,1.7367,1.7394,1.767,1.7816,1.7853,1.7596,1.7394,1.7385,1.7138,1.6908,1.6963,1.7413,1.7834,-0.1384,-0.1386,-0.139,-0.14,-0.1379,-0.1378,-0.1378,-0.1374,-0.1327,-0.1304,-0.132,-0.1316,-0.1321,-0.1317,-0.1316,-0.1141,-0.0845,-0.0295,0.0196,0.0,0.1648,0.2314,0.2707,0.3372,0.3891,0.4247,0.4518,0.4748,0.4889,0.4944,0.4944,0.4966,0.4963,0.4971,0.4971,0.4971,0.4884,0.4765,0.4575,0.4478,0.4462,0.435,0.4208,0.4092,0.4086,0.4008,0.3908,0.3905,0.3903,0.3918,0.4073,0.4359,0.4806,0.5519,0.6203,0.6915,0.778,0.8409,0.8684,0.938,1.0008,1.0554,1.067,1.0562,1.0275,1.0244,1.0256,1.0304,1.052,1.0718,1.0898,1.1332,1.1906,1.2604,1.3146,1.3674,1.4217,1.4461,1.4587,1.4587,1.4587,1.4587,1.4587,1.4587,1.4587,1.4615,1.4784,1.5025,1.5328,1.5443,1.5558,1.5744,1.5805,1.5885,1.6017,1.6175,1.6342,1.6542,1.6734,1.6908,1.6908,1.6972,1.7037,1.7,1.711,1.7138,1.7138,1.7019,1.7027,1.7027,1.6945,1.6908,1.6908,1.7064,1.7111,-0.1414,-0.1394,-0.1407,-0.1413,-0.1413,-0.1413,-0.1413,-0.141,-0.1364,-0.1342,-0.1348,-0.1313,-0.131,-0.1303,-0.1303,-0.1025,-0.055,-0.0079,0.0648,0.1491,0.2313,0.2978,0.3511,0.4036,0.4367,0.4562,0.4779,0.4898,0.4998,0.4998,0.4998,0.4998,0.4998,0.4998,0.4998,0.4998,0.4971,0.4912,0.4738,0.4605,0.4492,0.4454,0.4352,0.4219,0.4219,0.4191,0.4121,0.4116,0.418,0.4273,0.4549,0.4908,0.5427,0.6238,0.6977,0.7626,0.8331,0.8821,0.9018,0.9466,0.9958,1.0432,1.0575,1.0626,1.0574,1.0665,1.0755,1.0755,1.0943,1.1156,1.1376,1.1876,1.2415,1.2984,1.3521,1.3974,1.4325,1.4515,1.4587,1.4587,1.4587,1.4587,1.4587,1.4587,1.4587,1.4623,1.4848,1.5195,1.5594,1.5647,1.5691,1.5788,1.5805,1.5885,1.607,1.6202,1.6377,1.6568,1.6751,1.6891,1.6908,1.6908,1.6908,1.6908,1.6908,1.6908,1.6908,1.6908,1.6908,1.6908,1.6908,1.6908,1.6908,1.6908,1.6908,-0.1413,-0.1413,-0.1413,-0.1413,-0.1413,-0.1413,-0.1413,-0.1413,-0.1412,-0.14,-0.1399,-0.1333,-0.1309,-0.1324,-0.1255,-0.0911,-0.0297,0.0275,0.1177,0.2255,0.2997,0.3643,0.4216,0.4604,0.4759,0.4781,0.4918,0.4998,0.4998,0.4998,0.4998,0.4998,0.4998,0.4998,0.4998,0.4998,0.4998,0.4993,0.4904,0.4752,0.4579,0.4561,0.4503,0.4404,0.4382,0.4396,0.4399,0.4433,0.4549,0.477,0.5149,0.5588,0.6127,0.6967,0.7677,0.8212,0.8717,0.9118,0.9359,0.9511,0.9771,1.018,1.0387,1.0594,1.0775,1.0981,1.113,1.1167,1.1341,1.157,1.1916,1.2409,1.29,1.3357,1.3866,1.4227,1.4425,1.4533,1.4587,1.4587,1.4587,1.4587,1.4587,1.4587,1.4641,1.4776,1.5044,1.539,1.5735,1.5805,1.5814,1.585,1.5841,1.5903,1.6088,1.6237,1.6394,1.6612,1.6795,1.6891,1.6908,1.6908,1.6908,1.6908,1.6908,1.6908,1.6908,1.6908,1.6908,1.6908,1.6908,1.6908,1.6908,1.6908,1.6908,-0.1413,-0.1413,-0.1413,-0.1413,-0.1413,-0.1413,-0.1413,-0.1413,-0.1413,-0.1412,-0.1406,-0.1406,-0.1387,-0.1359,-0.1142,-0.0787,-0.0283,0.0713,0.1666,0.2529,0.3528,0.4253,0.4604,0.4879,0.4979,0.4979,0.4998,0.4998,0.4998,0.4998,0.4998,0.4998,0.4998,0.4998,0.4998,0.4998,0.4998,0.4998,0.4988,0.4917,0.4766,0.471,0.4668,0.4657,0.4654,0.4654,0.4643,0.4821,0.5033,0.5245,0.5783,0.6324,0.6886,0.7499,0.7998,0.8353,0.8761,0.9175,0.9511,0.9582,0.9771,1.0161,1.0368,1.0569,1.0775,1.0981,1.1167,1.1372,1.1577,1.1917,1.247,1.2918,1.3375,1.3894,1.4209,1.4433,1.4551,1.4587,1.4587,1.4587,1.4587,1.4587,1.4623,1.4641,1.4784,1.5088,1.5284,1.5514,1.5752,1.5805,1.5867,1.5964,1.5938,1.5956,1.6211,1.6298,1.6464,1.6769,1.6891,1.6908,1.6908,1.6908,1.6908,1.6908,1.6908,1.6908,1.6908,1.6908,1.6908,1.6908,1.6908,1.6908,1.6908,1.6908,1.6908,-0.1413,-0.1413,-0.1413,-0.1413,-0.1413,-0.1413,-0.1413,-0.1413,-0.1413,-0.1413,-0.1413,-0.1413,-0.133,-0.1151,-0.0915,-0.0458,0.0244,0.109,0.2057,0.3038,0.3782,0.4372,0.4859,0.494,0.4998,0.4998,0.4998,0.4998,0.4998,0.4998,0.4998,0.4998,0.4998,0.4998,0.4998,0.4998,0.4998,0.4998,0.4998,0.4952,0.4917,0.4803,0.4743,0.4698,0.4708,0.4765,0.4873,0.5087,0.5375,0.5824,0.6371,0.6933,0.7508,0.7955,0.8316,0.8542,0.8727,0.8941,0.9232,0.934,0.9549,0.9827,1.0143,1.0419,1.0631,1.0818,1.1149,1.1663,1.1935,1.2298,1.2874,1.343,1.3884,1.4227,1.4425,1.4551,1.4587,1.4587,1.4587,1.4587,1.4587,1.4667,1.4774,1.4892,1.507,1.5319,1.547,1.5602,1.577,1.5805,1.5885,1.6026,1.6026,1.6132,1.6385,1.6473,1.6595,1.6812,1.6908,1.6908,1.6908,1.6908,1.6908,1.6908,1.6908,1.6908,1.6908,1.6908,1.6908,1.6908,1.6908,1.6908,1.6908,1.6908,1.6908,-0.1397,-0.1414,-0.1413,-0.1413,-0.1413,-0.1413,-0.1413,-0.1413,-0.1413,-0.1413,-0.1412,-0.1338,-0.1148,-0.0826,-0.0617,-0.0063,0.0717,0.1531,0.2487,0.3487,0.4036,0.4526,0.4979,0.4998,0.4998,0.4998,0.4998,0.4998,0.4998,0.4998,0.4998,0.4998,0.4998,0.4998,0.4998,0.4998,0.4998,0.4998,0.4998,0.4998,0.4985,0.4909,0.4822,0.4799,0.4773,0.4883,0.5086,0.5325,0.576,0.6364,0.6919,0.7476,0.8003,0.8321,0.856,0.8765,0.8789,0.887,0.9067,0.9278,0.9445,0.9611,0.9978,1.0293,1.0475,1.0681,1.1186,1.1966,1.2305,1.2709,1.3302,1.384,1.4238,1.4425,1.4551,1.4587,1.4587,1.4587,1.4645,1.4732,1.4805,1.482,1.5019,1.5206,1.5337,1.5461,1.5603,1.57,1.5841,1.5938,1.6017,1.6202,1.6228,1.6333,1.6551,1.6586,1.6699,1.6839,1.6908,1.6908,1.6908,1.6908,1.6908,1.6908,1.6908,1.6908,1.6908,1.6908,1.6908,1.6908,1.6908,1.6926,1.6908,1.6943,1.7012,-0.1461,-0.1414,-0.1413,-0.1413,-0.1413,-0.1413,-0.1413,-0.1413,-0.1413,-0.1412,-0.1363,-0.1188,-0.085,-0.0434,-0.0191,0.0252,0.1,0.218,0.3096,0.3821,0.4394,0.4801,0.4998,0.4998,0.5004,0.5015,0.5015,0.5006,0.5001,0.4998,0.4998,0.4998,0.4998,0.4998,0.4998,0.4998,0.4998,0.4998,0.4998,0.4998,0.4998,0.499,0.4996,0.4982,0.4974,0.5057,0.5311,0.5668,0.6182,0.6854,0.7424,0.7937,0.8342,0.857,0.8764,0.8958,0.8971,0.907,0.9262,0.9478,0.9588,0.9634,0.9987,1.0299,1.05,1.0681,1.1254,1.2207,1.2659,1.3137,1.3748,1.4147,1.4415,1.4551,1.4595,1.4629,1.4603,1.4692,1.4779,1.507,1.5194,1.53,1.5469,1.5481,1.5538,1.5602,1.5841,1.607,1.6079,1.6184,1.6324,1.6473,1.6533,1.6586,1.6603,1.6638,1.6716,1.683,1.6908,1.6908,1.6908,1.6908,1.6908,1.6908,1.6908,1.6908,1.6908,1.6908,1.6908,1.6926,1.6951,1.6951,1.7089,1.7141,1.7279,-0.1463,-0.1413,-0.1413,-0.1413,-0.1413,-0.1413,-0.1413,-0.1413,-0.1413,-0.1402,-0.1364,-0.12,-0.0734,-0.0128,0.0478,0.109,0.1803,0.2763,0.3546,0.4199,0.4617,0.4928,0.5115,0.522,0.5217,0.5132,0.5124,0.5089,0.5004,0.4998,0.4998,0.4998,0.4998,0.4998,0.4998,0.4998,0.4998,0.4998,0.4998,0.4998,0.5004,0.4998,0.4998,0.4998,0.4998,0.5132,0.5482,0.588,0.6475,0.723,0.7748,0.8174,0.8546,0.8778,0.8981,0.9165,0.9194,0.9234,0.9335,0.9646,0.9771,0.9637,1.0018,1.0357,1.0496,1.0706,1.129,1.24,1.3105,1.3738,1.4389,1.4579,1.4551,1.4629,1.4829,1.4972,1.502,1.5147,1.5356,1.5524,1.5734,1.5915,1.5916,1.607,1.6107,1.5955,1.6096,1.6228,1.6246,1.6272,1.6385,1.6533,1.6603,1.6638,1.6795,1.6795,1.6812,1.6864,1.6908,1.6908,1.6908,1.6908,1.6908,1.6908,1.6908,1.6926,1.6926,1.7003,1.6995,1.7107,1.7115,1.7296,1.739,1.7562,1.7777,-0.1454,-0.1414,-0.1413,-0.1413,-0.1413,-0.1413,-0.1413,-0.1413,-0.1413,-0.1352,-0.1263,-0.0928,-0.0383,0.0374,0.1279,0.2098,0.2773,0.3367,0.3973,0.4538,0.4854,0.5087,0.5254,0.5351,0.5369,0.5267,0.5223,0.5129,0.5009,0.4998,0.4998,0.4998,0.505,0.5072,0.5078,0.5108,0.5129,0.5132,0.5132,0.5132,0.5129,0.5129,0.5109,0.5152,0.5172,0.5328,0.5604,0.5977,0.6639,0.7484,0.7996,0.841,0.8853,0.9019,0.9194,0.9373,0.9385,0.9426,0.955,0.9889,1.0019,0.9861,1.0257,1.062,1.0839,1.1122,1.1884,1.2935,1.3636,1.4312,1.4939,1.5047,1.4964,1.498,1.5197,1.5359,1.5367,1.5539,1.5744,1.5979,1.6244,1.6357,1.6294,1.6449,1.639,1.6149,1.6254,1.6394,1.6394,1.6464,1.6534,1.6664,1.6726,1.676,1.683,1.6856,1.6856,1.6891,1.6908,1.6908,1.6908,1.6908,1.6926,1.6908,1.6926,1.6934,1.6986,1.7072,1.721,1.7356,1.7562,1.7777,1.793,1.81,1.8303,-0.1414,-0.1413,-0.1413,-0.1413,-0.1413,-0.1413,-0.1413,-0.1413,-0.1368,-0.1263,-0.1021,-0.0404,0.025,0.1038,0.2138,0.3149,0.3744,0.4029,0.4408,0.4907,0.511,0.5253,0.5389,0.5419,0.5417,0.5381,0.5264,0.5152,0.504,0.5004,0.5001,0.5025,0.5127,0.5193,0.5189,0.5302,0.5391,0.5362,0.5354,0.5367,0.5389,0.5365,0.5377,0.5409,0.5572,0.5697,0.571,0.6061,0.6777,0.772,0.8213,0.8695,0.9189,0.9302,0.9396,0.9585,0.9623,0.9749,0.9981,1.0191,1.0351,1.0361,1.0739,1.116,1.1531,1.2002,1.2719,1.3692,1.4267,1.4792,1.5335,1.5594,1.5661,1.5685,1.5661,1.5701,1.5709,1.5744,1.5929,1.6411,1.672,1.674,1.6659,1.6693,1.6585,1.6334,1.6403,1.6595,1.6612,1.6726,1.6847,1.6874,1.6856,1.6856,1.6891,1.6908,1.6908,1.6908,1.6908,1.6908,1.6908,1.6908,1.696,1.6978,1.7115,1.7149,1.7442,1.7545,1.7699,1.7869,1.8066,1.8269,1.8438,1.8613,1.8858,-0.1413,-0.1413,-0.1413,-0.1413,-0.1413,-0.1413,-0.1413,-0.1391,-0.1256,-0.1042,-0.0716,0.0021,0.0795,0.1594,0.2639,0.3557,0.4252,0.4615,0.4948,0.5222,0.5354,0.5429,0.548,0.5559,0.5556,0.5451,0.5284,0.517,0.5127,0.5059,0.5031,0.5127,0.517,0.5253,0.5332,0.5373,0.5392,0.5392,0.5392,0.5392,0.5392,0.5413,0.5478,0.5624,0.5829,0.6153,0.6607,0.6897,0.7405,0.8175,0.8605,0.9021,0.9393,0.9503,0.9702,1.0012,1.0067,1.0196,1.0459,1.0647,1.0767,1.0877,1.1205,1.1642,1.2084,1.2671,1.3426,1.435,1.4939,1.5492,1.596,1.6264,1.6178,1.5748,1.5908,1.6059,1.6102,1.6397,1.677,1.7065,1.7311,1.7274,1.7111,1.7111,1.6969,1.6554,1.6648,1.6795,1.6812,1.6847,1.6908,1.6908,1.6908,1.6926,1.696,1.7012,1.7064,1.7064,1.702,1.7012,1.6995,1.7038,1.7055,1.721,1.7356,1.7552,1.7835,1.8039,1.8209,1.8378,1.8563,1.8774,1.8948,1.9158,1.9357,-0.1413,-0.1413,-0.1413,-0.1413,-0.1413,-0.1413,-0.1368,-0.1256,-0.1054,-0.0665,-0.0108,0.0663,0.1502,0.2391,0.3307,0.4058,0.4688,0.5075,0.5331,0.5475,0.5478,0.5529,0.5575,0.567,0.5626,0.5505,0.5375,0.5298,0.5272,0.5209,0.5206,0.5269,0.5341,0.5404,0.5453,0.5523,0.5575,0.5537,0.551,0.5547,0.5651,0.5734,0.5904,0.623,0.657,0.7034,0.7578,0.7916,0.8262,0.8663,0.9111,0.9498,0.9726,0.9826,0.9986,1.0233,1.0402,1.0549,1.0803,1.0906,1.1106,1.1303,1.1771,1.2314,1.2834,1.3494,1.4353,1.5118,1.561,1.6046,1.6421,1.6599,1.6495,1.6142,1.6269,1.6429,1.6557,1.6851,1.7188,1.742,1.7602,1.7587,1.7525,1.7416,1.7319,1.6946,1.6869,1.6908,1.6908,1.6908,1.6908,1.6908,1.6908,1.6943,1.7003,1.7107,1.722,1.721,1.7193,1.7193,1.7176,1.7287,1.7373,1.7733,1.7954,1.8141,1.8405,1.8596,1.8764,1.8942,1.9075,1.928,1.9489,1.9605,1.978,-0.1413,-0.1413,-0.1413,-0.1413,-0.1391,-0.1391,-0.1256,-0.1054,-0.074,-0.0111,0.0721,0.1497,0.2385,0.3365,0.4088,0.4699,0.5152,0.5386,0.5542,0.561,0.5588,0.5583,0.5664,0.5705,0.5656,0.5543,0.5497,0.5456,0.5403,0.5367,0.5413,0.5417,0.5534,0.5626,0.5599,0.5787,0.5801,0.571,0.5719,0.5838,0.6101,0.6322,0.6631,0.709,0.7523,0.7979,0.8473,0.8974,0.9225,0.9195,0.9702,1.0024,1.0089,1.0229,1.0323,1.0402,1.0603,1.085,1.1002,1.1174,1.1375,1.1856,1.2451,1.3045,1.3709,1.4532,1.5335,1.5991,1.6309,1.6515,1.6711,1.6761,1.6713,1.6681,1.661,1.6756,1.7033,1.7111,1.7294,1.7598,1.7715,1.7749,1.7787,1.7657,1.7445,1.7216,1.705,1.6928,1.6951,1.6968,1.6934,1.6986,1.7081,1.721,1.7365,1.7537,1.7674,1.7835,1.775,1.7674,1.7623,1.7716,1.7893,1.8259,1.8539,1.8724,1.8942,1.9142,1.9274,1.9374,1.9572,1.9818,1.9927,1.996,1.9976,-0.1413,-0.1413,-0.1413,-0.1413,-0.1391,-0.1234,-0.1031,-0.074,-0.0157,0.0536,0.1308,0.2294,0.3121,0.3822,0.4629,0.5132,0.5344,0.5546,0.5673,0.5702,0.5664,0.5656,0.5683,0.571,0.5694,0.5629,0.5556,0.5491,0.5475,0.5428,0.5449,0.548,0.5559,0.5645,0.577,0.5773,0.5789,0.5859,0.5947,0.6108,0.6368,0.6741,0.7139,0.7606,0.8087,0.857,0.91,0.9711,1.0019,1.001,1.0298,1.0533,1.0504,1.0564,1.0651,1.0801,1.0888,1.1195,1.1657,1.1811,1.2097,1.269,1.3327,1.3924,1.4391,1.5312,1.6063,1.6601,1.6917,1.7072,1.7135,1.7127,1.7024,1.6737,1.6781,1.686,1.7078,1.7241,1.7424,1.7679,1.7983,1.8082,1.8021,1.7837,1.7658,1.7451,1.7202,1.7003,1.7107,1.7193,1.7228,1.7348,1.7468,1.7606,1.7777,1.7964,1.8185,1.8445,1.8462,1.8371,1.832,1.8327,1.8563,1.8875,1.9025,1.9218,1.9456,1.9687,1.9769,1.9747,1.9878,2.0009,2.0053,2.0069,2.0069,-0.1413,-0.1413,-0.1413,-0.1368,-0.1256,-0.1031,-0.0673,-0.0157,0.0516,0.1345,0.2189,0.303,0.3851,0.4554,0.5058,0.5374,0.5525,0.5644,0.571,0.571,0.5708,0.571,0.571,0.571,0.571,0.5705,0.564,0.5591,0.5597,0.5553,0.5567,0.5583,0.5654,0.5751,0.5857,0.5904,0.5948,0.6076,0.624,0.6473,0.6877,0.7312,0.7867,0.8354,0.8811,0.9205,0.9716,1.0207,1.0467,1.0506,1.0624,1.0747,1.0811,1.0844,1.0936,1.1155,1.1346,1.1679,1.2043,1.2366,1.2837,1.3434,1.416,1.485,1.5419,1.6209,1.6885,1.7245,1.7434,1.7506,1.7506,1.7506,1.7411,1.7247,1.7167,1.7194,1.7237,1.7458,1.7647,1.7868,1.8135,1.8392,1.8317,1.803,1.7878,1.7779,1.7486,1.7393,1.739,1.7476,1.7623,1.7784,1.792,1.8083,1.8303,1.8506,1.8674,1.8942,1.9108,1.9025,1.8942,1.8925,1.9131,1.9357,1.9533,1.9681,1.9846,1.9976,1.9976,1.9976,2.0102,2.0102,2.0102,2.0102,2.0102,-0.1323,-0.1323,-0.1323,-0.1211,-0.1009,-0.0695,-0.0157,0.0493,0.1278,0.2196,0.3157,0.3781,0.449,0.5394,0.5378,0.5527,0.5688,0.5688,0.5688,0.571,0.571,0.571,0.571,0.571,0.571,0.571,0.571,0.5702,0.5686,0.5689,0.57,0.5686,0.5792,0.5922,0.6001,0.6107,0.6261,0.653,0.6808,0.718,0.766,0.8141,0.8637,0.9122,0.9471,0.9864,1.0277,1.0603,1.0764,1.0855,1.0828,1.1007,1.1156,1.1144,1.1328,1.1582,1.1965,1.2204,1.2417,1.3029,1.3595,1.4201,1.5057,1.579,1.6375,1.6987,1.752,1.7775,1.7848,1.787,1.7824,1.7801,1.7641,1.7554,1.7641,1.7629,1.7532,1.7693,1.7958,1.807,1.8314,1.8503,1.8516,1.8313,1.8035,1.8384,1.8062,1.7831,1.7886,1.8032,1.8185,1.8344,1.8472,1.8556,1.8808,1.9058,1.9208,1.939,1.9615,1.9632,1.9473,1.9489,1.9671,1.9818,1.9829,1.9889,2.0004,2.0085,2.0085,2.0102,2.0102,2.0102,2.0102,2.0102,2.0102,-0.0852,-0.0852,-0.0852,-0.083,-0.0673,-0.009,0.0448,0.1031,0.2106,0.3001,0.3782,0.4474,0.4966,0.5416,0.5552,0.5666,0.571,0.571,0.571,0.571,0.571,0.571,0.571,0.571,0.571,0.571,0.571,0.571,0.571,0.571,0.571,0.5744,0.579,0.591,0.6225,0.6475,0.6824,0.7286,0.7749,0.818,0.8566,0.9012,0.9353,0.9643,0.9943,1.0379,1.0743,1.0916,1.1222,1.1641,1.1789,1.1804,1.1909,1.2165,1.2327,1.2428,1.257,1.2894,1.343,1.387,1.4473,1.5307,1.6001,1.6615,1.6919,1.7447,1.7872,1.8097,1.8206,1.8176,1.8135,1.7697,1.756,1.7549,1.7608,1.7629,1.752,1.773,1.8033,1.8346,1.8539,1.8712,1.8906,1.8719,1.8647,1.888,1.8683,1.8354,1.8421,1.8573,1.8741,1.8898,1.8992,1.9092,1.9274,1.9473,1.9583,1.9681,1.9878,2.002,1.9862,1.9829,1.9927,1.9993,2.0025,2.0102,2.0102,2.0102,2.0102,2.0102,2.0102,2.0102,2.0102,2.0102,2.0102,-0.0695,-0.0695,-0.0605,-0.0493,-0.0247,0.0516,0.1211,0.1882,0.291,0.376,0.4407,0.4966,0.5327,0.553,0.5644,0.571,0.571,0.571,0.571,0.571,0.571,0.571,0.571,0.571,0.571,0.571,0.571,0.571,0.571,0.5733,0.5777,0.5888,0.5911,0.618,0.6613,0.6964,0.7393,0.7935,0.8557,0.9082,0.9549,0.9786,1.01,1.0214,1.0504,1.0843,1.1277,1.1332,1.1663,1.2125,1.2485,1.262,1.2598,1.2751,1.2854,1.2986,1.3234,1.3529,1.4056,1.4799,1.5525,1.6292,1.7016,1.7447,1.7756,1.81,1.829,1.8494,1.8526,1.8486,1.8311,1.8065,1.7775,1.7691,1.7758,1.7873,1.7995,1.8054,1.8137,1.8477,1.8689,1.896,1.9072,1.9108,1.9213,1.9421,1.9098,1.8795,1.8925,1.9075,1.9274,1.9423,1.9517,1.9632,1.9764,1.9878,1.9927,1.9971,2.002,2.0069,2.002,2.0036,2.0085,2.0102,2.0102,2.0102,2.0102,2.0102,2.0102,2.0102,2.0102,2.0102,2.0102,2.0102,2.0102,-0.0583,-0.0516,-0.0359,-0.0112,0.0292,0.1144,0.1905,0.2686,0.3602,0.4387,0.501,0.5327,0.553,0.5666,0.5688,0.571,0.571,0.571,0.571,0.571,0.571,0.571,0.571,0.5755,0.5799,0.5758,0.5713,0.571,0.5713,0.5777,0.593,0.6105,0.626,0.6595,0.7102,0.7603,0.81,0.8652,0.9336,0.9901,1.0362,1.0511,1.0763,1.0973,1.108,1.1349,1.1691,1.1847,1.2066,1.2567,1.3014,1.3274,1.3321,1.3194,1.3136,1.3438,1.3872,1.4306,1.4859,1.5651,1.6509,1.7138,1.7746,1.8218,1.8473,1.8587,1.8694,1.8741,1.8733,1.8614,1.8359,1.8195,1.8115,1.8013,1.7981,1.8222,1.8493,1.8414,1.8432,1.86,1.8972,1.9311,1.9578,1.9705,1.9823,1.9871,1.9545,1.9362,1.9512,1.9565,1.9735,1.9764,1.9813,1.9829,1.9971,2.0004,2.0085,2.0102,2.0102,2.0102,2.0102,2.0102,2.0102,2.0102,2.0102,2.0102,2.0102,2.0102,2.0102,2.0102,2.0102,2.0102,2.0102,2.0102,2.0102,0.0,0.0224,0.0247,0.0493,0.1009,0.175,0.2489,0.3181,0.4143,0.4859,0.5305,0.553,0.5644,0.5688,0.571,0.571,0.571,0.571,0.571,0.571,0.571,0.571,0.5797,0.5952,0.6041,0.5975,0.5888,0.5822,0.5844,0.5908,0.6235,0.6435,0.6764,0.7192,0.7715,0.8294,0.8904,0.946,1.0131,1.0669,1.1037,1.1331,1.1479,1.1622,1.1647,1.1895,1.2197,1.2328,1.2641,1.3304,1.3479,1.3738,1.3951,1.4005,1.4129,1.435,1.4654,1.5085,1.5759,1.6472,1.7209,1.7807,1.8234,1.8473,1.8658,1.8765,1.8741,1.8773,1.8757,1.8676,1.8357,1.8205,1.8005,1.781,1.7763,1.7907,1.8177,1.847,1.878,1.907,1.9379,1.9747,2.0111,2.0429,2.0632,2.0684,2.0495,2.0349,2.041,2.0272,2.0117,2.0107,2.0025,2.0053,2.0085,2.0085,2.0102,2.0102,2.0102,2.0102,2.0102,2.0102,2.0102,2.0102,2.0102,2.0102,2.0102,2.0102,2.0102,2.0102,2.0102,2.0102,2.0102,2.0102,2.0102,0.0157,0.0426,0.0673,0.1031,0.1592,0.2511,0.3251,0.3851,0.4681,0.524,0.5508,0.5644,0.571,0.571,0.571,0.571,0.571,0.571,0.571,0.571,0.571,0.5863,0.6038,0.6213,0.6523,0.6656,0.6567,0.6349,0.6282,0.6504,0.6786,0.7161,0.7492,0.7911,0.8372,0.8914,0.9521,1.013,1.0643,1.1167,1.1672,1.2047,1.2229,1.228,1.2411,1.2641,1.2875,1.2962,1.3207,1.3619,1.3743,1.3945,1.4256,1.4568,1.4783,1.4981,1.5291,1.5808,1.6574,1.7209,1.78,1.821,1.8504,1.8563,1.8567,1.8519,1.8573,1.8597,1.8733,1.8582,1.8081,1.8101,1.7905,1.763,1.7625,1.7867,1.8233,1.8694,1.9188,1.9644,2.0016,2.043,2.0913,2.1203,2.1437,2.147,2.1351,2.1303,2.1243,2.0981,2.0652,2.062,2.0532,2.0292,2.0249,2.0151,2.0113,2.0102,2.0102,2.0102,2.0102,2.0102,2.0102,2.0102,2.0102,2.0102,2.0102,2.0102,2.0102,2.0102,2.0102,2.0102,2.0102,2.0102,2.0102,0.0292,0.0628,0.1076,0.1569,0.2196,0.3205,0.3942,0.45,0.5102,0.5485,0.5688,0.571,0.571,0.571,0.571,0.571,0.571,0.571,0.5733,0.5822,0.5886,0.6102,0.6454,0.6716,0.7025,0.747,0.7511,0.725,0.7051,0.7117,0.7492,0.7889,0.8241,0.8684,0.9143,0.9606,1.0053,1.0434,1.085,1.1424,1.2144,1.2651,1.2935,1.294,1.3166,1.3322,1.3478,1.3519,1.3669,1.392,1.4076,1.4208,1.449,1.4951,1.5315,1.5499,1.5855,1.644,1.7138,1.7753,1.8234,1.8512,1.8618,1.852,1.8422,1.8359,1.8335,1.8359,1.8643,1.8594,1.8109,1.8121,1.797,1.7685,1.7733,1.8052,1.8554,1.9112,1.9775,2.0224,2.0654,2.1116,2.1583,2.1845,2.2059,2.2072,2.1976,2.1788,2.1701,2.1511,2.1275,2.1243,2.1079,2.0664,2.0445,2.0194,2.0162,2.0102,2.0102,2.0102,2.0102,2.0102,2.0113,2.0162,2.0102,2.0102,2.0102,2.0102,2.0102,2.0102,2.0102,2.0102,2.0102,2.0102,2.0102,0.0718,0.1301,0.1592,0.222,0.3047,0.365,0.4273,0.4899,0.526,0.5508,0.571,0.571,0.571,0.571,0.571,0.571,0.571,0.5755,0.5863,0.6019,0.6235,0.6587,0.7051,0.7474,0.7779,0.8175,0.8324,0.8101,0.7925,0.7841,0.7977,0.846,0.9052,0.9559,0.9764,1.0178,1.0681,1.0948,1.1354,1.2014,1.2784,1.3178,1.3351,1.3399,1.3495,1.3626,1.3817,1.3853,1.3979,1.4232,1.4472,1.4718,1.5029,1.5452,1.6086,1.6551,1.6897,1.7178,1.7823,1.8234,1.8473,1.8586,1.8543,1.8383,1.8208,1.8221,1.8228,1.8311,1.8755,1.8715,1.8224,1.8422,1.8259,1.811,1.8011,1.8434,1.8933,1.9637,2.0304,2.0944,2.1396,2.1816,2.226,2.2464,2.2635,2.2621,2.2568,2.235,2.2193,2.2007,2.1887,2.1865,2.1774,2.1391,2.1188,2.0849,2.0587,2.0423,2.0434,2.0401,2.0391,2.0434,2.0205,2.0216,2.0172,2.0113,2.0102,2.0102,2.0102,2.0102,2.0102,2.0102,2.0102,2.0102,2.0102,0.1368,0.166,0.2039,0.2732,0.3606,0.4143,0.4679,0.5191,0.5463,0.5621,0.5688,0.571,0.571,0.571,0.571,0.571,0.5735,0.5866,0.6063,0.6368,0.6653,0.7117,0.7669,0.8065,0.8416,0.8903,0.9122,0.9292,0.9047,0.8829,0.8837,0.9161,0.9663,1.0016,1.0234,1.0538,1.0786,1.1133,1.1678,1.2273,1.2771,1.3326,1.3714,1.3714,1.3847,1.3992,1.4064,1.4136,1.4256,1.452,1.479,1.5124,1.5553,1.6109,1.6779,1.7295,1.7683,1.8001,1.8303,1.8558,1.8594,1.8512,1.8351,1.8144,1.7888,1.7848,1.7926,1.7894,1.8414,1.8466,1.8182,1.829,1.8183,1.8118,1.8351,1.8845,1.94,2.0138,2.0847,2.1511,2.2092,2.2394,2.2639,2.2748,2.282,2.2829,2.2815,2.2717,2.2663,2.263,2.2542,2.2499,2.2357,2.2156,2.2051,2.1869,2.1542,2.1389,2.1448,2.1328,2.1007,2.0882,2.0631,2.0385,2.0298,2.0238,2.0162,2.0102,2.0102,2.0102,2.0102,2.0102,2.0102,2.0102,2.0102,0.2214,0.2338,0.2704,0.3358,0.4184,0.4681,0.5084,0.5463,0.5644,0.5688,0.571,0.571,0.571,0.571,0.571,0.5735,0.5822,0.6063,0.639,0.6719,0.7183,0.7779,0.8332,0.8745,0.9095,0.9711,0.9711,0.9859,0.9946,0.9886,0.9733,0.9886,1.0255,1.0472,1.0559,1.0851,1.1154,1.1532,1.2209,1.2637,1.2893,1.3595,1.3926,1.4064,1.4154,1.4322,1.4322,1.437,1.4514,1.479,1.5237,1.5635,1.6157,1.6864,1.7419,1.7885,1.8249,1.8465,1.8581,1.8665,1.8606,1.8375,1.8055,1.7767,1.7421,1.7448,1.765,1.7753,1.8277,1.8321,1.8141,1.8238,1.8355,1.8484,1.8663,1.9202,1.9825,2.0624,2.1309,2.1863,2.2365,2.2695,2.2889,2.2945,2.3001,2.3001,2.302,2.302,2.3034,2.3056,2.3154,2.3081,2.3045,2.2903,2.2859,2.271,2.2455,2.2237,2.2284,2.2044,2.1559,2.126,2.103,2.079,2.0555,2.032,2.0205,2.0145,2.0102,2.0102,2.0102,2.0102,2.0102,2.0118,2.0118,0.3345,0.3685,0.3774,0.4204,0.4919,0.5238,0.5463,0.5666,0.5688,0.571,0.571,0.571,0.571,0.571,0.5755,0.5866,0.606,0.6276,0.6805,0.7379,0.7911,0.8508,0.9017,0.9362,0.9646,0.9968,1.0147,1.0277,1.0359,1.0538,1.0538,1.0641,1.0738,1.0873,1.1024,1.1224,1.1652,1.2047,1.2653,1.3054,1.3321,1.3803,1.4142,1.4172,1.4244,1.4292,1.4292,1.444,1.4701,1.4992,1.5574,1.6201,1.6702,1.7357,1.7834,1.8164,1.8378,1.853,1.8576,1.8671,1.8598,1.824,1.7812,1.7461,1.726,1.7438,1.7636,1.7832,1.8292,1.8469,1.8414,1.8512,1.8658,1.8914,1.9212,1.9834,2.0469,2.1194,2.1835,2.2289,2.2628,2.2871,2.2964,2.3001,2.302,2.302,2.3023,2.3034,2.3252,2.3321,2.3594,2.3681,2.3703,2.3648,2.3615,2.3441,2.323,2.2841,2.2659,2.2306,2.1832,2.1599,2.1457,2.119,2.0932,2.0582,2.026,2.0194,2.0134,2.0113,2.0118,2.0199,2.0232,2.0264,2.0221,0.3825,0.4433,0.4616,0.4909,0.5258,0.5349,0.5508,0.5688,0.571,0.571,0.571,0.571,0.571,0.5755,0.5908,0.6083,0.6365,0.6871,0.7401,0.7977,0.8552,0.9078,0.9519,0.982,1.0103,1.025,1.0521,1.0721,1.0759,1.0954,1.1041,1.1089,1.1073,1.0986,1.1138,1.1483,1.1874,1.2214,1.2664,1.3008,1.3136,1.3533,1.3792,1.3815,1.3792,1.3792,1.3849,1.4196,1.4578,1.5058,1.573,1.6375,1.6957,1.7477,1.7822,1.8076,1.8211,1.8247,1.8341,1.8532,1.8619,1.8181,1.7722,1.7367,1.7331,1.7528,1.7664,1.7907,1.8243,1.8451,1.8466,1.8713,1.9008,1.9327,1.9814,2.0459,2.1139,2.1881,2.2376,2.2831,2.2878,2.2964,2.3001,2.302,2.302,2.302,2.3034,2.3092,2.3332,2.3648,2.3943,2.4344,2.441,2.4508,2.4486,2.4268,2.3995,2.3539,2.3073,2.2688,2.2313,2.2106,2.1931,2.1632,2.131,2.0965,2.0614,2.0303,2.0189,2.0249,2.0292,2.0362,2.0394,2.0399,2.0383,0.4301,0.4896,0.5174,0.5347,0.5477,0.5485,0.5574,0.5688,0.571,0.571,0.571,0.571,0.5755,0.5863,0.606,0.6457,0.6849,0.7404,0.7999,0.8552,0.9078,0.9515,0.9842,1.0077,1.0299,1.0494,1.0738,1.0965,1.0943,1.1262,1.1392,1.1375,1.1332,1.1311,1.1332,1.1656,1.2016,1.2289,1.2594,1.2873,1.2976,1.3309,1.3521,1.3533,1.3545,1.3642,1.383,1.4223,1.474,1.528,1.5892,1.6551,1.7013,1.7378,1.7597,1.7741,1.7828,1.7872,1.8016,1.8087,1.84,1.823,1.7897,1.7685,1.7692,1.7807,1.796,1.8005,1.8267,1.8442,1.8534,1.8969,1.9485,1.9854,2.0479,2.1109,2.1862,2.2562,2.2958,2.3361,2.3406,2.3512,2.3176,2.3176,2.3031,2.3031,2.3012,2.3198,2.355,2.3899,2.4344,2.476,2.5142,2.5282,2.5381,2.4911,2.4441,2.403,2.3605,2.3274,2.2936,2.2681,2.2368,2.2033,2.1691,2.1354,2.113,2.0961,2.0676,2.0417,2.0526,2.0684,2.054,2.0572,2.0604,0.4821,0.5098,0.5309,0.5507,0.5634,0.5686,0.568,0.5694,0.5708,0.571,0.571,0.5713,0.5886,0.6105,0.6368,0.6871,0.7489,0.8021,0.8614,0.9231,0.958,0.9929,1.0142,1.0381,1.0538,1.0711,1.0959,1.1116,1.1073,1.1462,1.1656,1.1742,1.1785,1.1823,1.1742,1.2139,1.2476,1.2677,1.2911,1.2983,1.3049,1.3268,1.3346,1.3424,1.3486,1.3593,1.3966,1.4481,1.5012,1.5537,1.6272,1.6845,1.7186,1.7439,1.7628,1.7709,1.7892,1.7989,1.8089,1.7843,1.809,1.849,1.8321,1.823,1.8276,1.8325,1.8363,1.8458,1.8518,1.8692,1.8973,1.942,1.9971,2.0615,2.1248,2.1912,2.2673,2.3201,2.3612,2.3824,2.4111,2.4266,2.3744,2.3354,2.3121,2.3023,2.302,2.3274,2.3725,2.4107,2.4563,2.5129,2.5577,2.5663,2.5641,2.5312,2.4898,2.4486,2.4042,2.3581,2.3307,2.3073,2.275,2.2448,2.2217,2.1978,2.1845,2.17,2.1413,2.114,2.102,2.1029,2.0846,2.0838,2.1023,0.4877,0.5162,0.5246,0.5365,0.5494,0.5537,0.5567,0.5583,0.5648,0.571,0.5755,0.5888,0.6083,0.639,0.694,0.7507,0.8171,0.8877,0.9493,0.9924,1.0168,1.0386,1.0554,1.0673,1.0808,1.0981,1.1224,1.1419,1.1505,1.1785,1.1871,1.1957,1.2118,1.2203,1.2198,1.2384,1.2497,1.2674,1.2801,1.2843,1.284,1.2964,1.3119,1.3304,1.3472,1.3788,1.4257,1.489,1.5412,1.5828,1.6509,1.679,1.6964,1.7167,1.7243,1.7316,1.7475,1.7719,1.8102,1.832,1.8632,1.8914,1.9032,1.8982,1.91,1.9009,1.8988,1.907,1.9239,1.937,1.942,2.0137,2.08,2.1597,2.2267,2.2925,2.3579,2.3935,2.4251,2.4272,2.4473,2.4301,2.391,2.3583,2.334,2.311,2.3067,2.3569,2.4071,2.4344,2.4725,2.5338,2.5807,2.5924,2.5856,2.539,2.5072,2.4692,2.4163,2.3627,2.3431,2.3316,2.3268,2.3036,2.2828,2.2648,2.2533,2.2378,2.2137,2.1913,2.2014,2.1856,2.1678,2.1705,2.1818,0.4942,0.5178,0.5143,0.5217,0.5337,0.5415,0.5464,0.5543,0.5722,0.5863,0.5994,0.6238,0.659,0.7007,0.7555,0.8237,0.8894,0.9532,1.0016,1.0424,1.0598,1.0689,1.0803,1.0959,1.1094,1.1267,1.1505,1.1699,1.1807,1.2016,1.2188,1.231,1.2412,1.2534,1.2577,1.2625,1.2647,1.2823,1.2918,1.2955,1.3022,1.3145,1.3268,1.357,1.391,1.4297,1.4821,1.5344,1.5864,1.6176,1.6456,1.6692,1.6784,1.6932,1.7054,1.7223,1.7643,1.8096,1.882,1.9114,1.9503,1.9935,1.9839,1.9773,1.9881,2.0,2.0105,2.0186,2.0301,2.0723,2.1083,2.175,2.2148,2.2955,2.3261,2.392,2.4346,2.4698,2.4836,2.4856,2.4878,2.4585,2.4213,2.3834,2.355,2.334,2.3143,2.3752,2.4307,2.4557,2.486,2.5461,2.5907,2.601,2.5806,2.5358,2.5057,2.485,2.4314,2.373,2.3574,2.3482,2.3556,2.3593,2.3339,2.3167,2.3196,2.3083,2.2973,2.312,2.341,2.3114,2.263,2.247,2.2445,0.5083,0.5156,0.5044,0.5083,0.5192,0.5353,0.5473,0.5548,0.5928,0.6223,0.6438,0.671,0.7187,0.7826,0.8328,0.8916,0.9559,1.0098,1.0446,1.0663,1.0819,1.0889,1.0981,1.1094,1.1311,1.157,1.1785,1.1952,1.2043,1.2268,1.2497,1.2625,1.2689,1.2833,1.2903,1.3009,1.3045,1.3194,1.3307,1.3466,1.3679,1.3797,1.4095,1.444,1.4834,1.5282,1.5821,1.6359,1.6615,1.6846,1.7047,1.7004,1.7087,1.7313,1.7501,1.7837,1.8382,1.916,1.9713,1.99,2.0425,2.0796,2.0628,2.0483,2.0629,2.108,2.1368,2.1742,2.205,2.2904,2.3622,2.3761,2.3918,2.4195,2.4297,2.4734,2.5115,2.5338,2.5448,2.5524,2.5654,2.5404,2.4889,2.4452,2.3886,2.3626,2.3511,2.3743,2.4268,2.464,2.4977,2.5521,2.588,2.6052,2.5766,2.5251,2.5092,2.4888,2.4374,2.3861,2.374,2.3758,2.3934,2.397,2.3769,2.3704,2.3792,2.3935,2.401,2.4191,2.4248,2.3973,2.3357,2.2928,2.2783,0.5037,0.5042,0.5012,0.5017,0.51,0.5356,0.5517,0.5687,0.6067,0.6427,0.6789,0.7296,0.7955,0.8588,0.9074,0.9707,1.0207,1.0629,1.0889,1.1062,1.1127,1.1154,1.1267,1.1397,1.1564,1.1758,1.1995,1.2182,1.231,1.2513,1.2619,1.2705,1.2903,1.3094,1.3343,1.3576,1.3717,1.3844,1.3956,1.4232,1.4559,1.4772,1.5106,1.5528,1.5911,1.6368,1.6833,1.7184,1.7413,1.7566,1.7609,1.7605,1.7849,1.7954,1.8096,1.8516,1.9181,1.9891,2.0166,2.0759,2.1353,2.177,2.1925,2.187,2.1948,2.2238,2.2749,2.3194,2.3735,2.4491,2.493,2.5123,2.536,2.5529,2.5577,2.5627,2.5939,2.595,2.6037,2.6016,2.6136,2.5863,2.5381,2.4801,2.4266,2.3991,2.388,2.4012,2.4254,2.4648,2.502,2.5514,2.5719,2.5853,2.5577,2.511,2.5032,2.4886,2.4432,2.42,2.4309,2.4363,2.4436,2.4381,2.4236,2.4327,2.4509,2.4544,2.4465,2.4634,2.4696,2.4431,2.4122,2.3661,2.3263,0.5054,0.511,0.511,0.5171,0.5279,0.5545,0.5808,0.6098,0.6512,0.6962,0.7507,0.821,0.8916,0.9589,1.0094,1.0571,1.1025,1.1278,1.1499,1.1543,1.1548,1.1586,1.1672,1.1742,1.1893,1.2059,1.2198,1.239,1.2513,1.2619,1.2726,1.2903,1.31,1.3455,1.3836,1.4251,1.4657,1.4762,1.4888,1.5078,1.5362,1.5706,1.6108,1.6589,1.6976,1.7381,1.7747,1.798,1.8221,1.8253,1.8204,1.8256,1.8436,1.8523,1.919,1.9667,2.0204,2.0802,2.124,2.1786,2.2247,2.2736,2.3275,2.3533,2.3653,2.3902,2.4303,2.4709,2.5304,2.5825,2.6076,2.6343,2.6626,2.6921,2.6759,2.6595,2.6584,2.6573,2.6529,2.6464,2.6343,2.6125,2.5677,2.514,2.4644,2.4356,2.4094,2.3964,2.4279,2.4695,2.5007,2.5414,2.5534,2.5595,2.526,2.5062,2.5024,2.4971,2.4752,2.4621,2.4801,2.4772,2.4682,2.47,2.4747,2.479,2.4778,2.4772,2.4736,2.4915,2.5046,2.4867,2.461,2.4309,2.3958,0.5151,0.5321,0.5337,0.5459,0.5657,0.5873,0.6264,0.6726,0.7246,0.7777,0.8463,0.9281,0.999,1.0566,1.0982,1.1284,1.1569,1.178,1.1823,1.2,1.1893,1.1887,1.1914,1.2022,1.2145,1.2299,1.2443,1.2534,1.2662,1.279,1.2924,1.3143,1.3434,1.3851,1.4475,1.495,1.5353,1.5679,1.5606,1.5647,1.61,1.6439,1.6781,1.7387,1.785,1.8249,1.8535,1.8803,1.9081,1.8929,1.8856,1.8828,1.8957,1.9334,2.0223,2.0792,2.1223,2.1708,2.2222,2.278,2.3275,2.3829,2.4453,2.4953,2.5212,2.5287,2.5571,2.5997,2.6535,2.6906,2.7172,2.7026,2.7149,2.715,2.6977,2.6813,2.6726,2.6715,2.6693,2.6682,2.6725,2.655,2.6515,2.6009,2.5503,2.4988,2.4428,2.4198,2.439,2.4835,2.5043,2.529,2.5184,2.5224,2.5205,2.5036,2.5073,2.4995,2.4866,2.4891,2.4975,2.4939,2.4832,2.4903,2.4992,2.4921,2.4903,2.4921,2.501,2.5141,2.5218,2.5253,2.5078,2.4881,2.4511,0.5482,0.554,0.5689,0.5786,0.5922,0.6421,0.6903,0.7346,0.822,0.8794,0.9239,1.0013,1.0749,1.1392,1.1542,1.1784,1.1946,1.2053,1.1995,1.2037,1.2059,1.2102,1.2059,1.2225,1.2347,1.2427,1.2534,1.2641,1.2769,1.2918,1.32,1.3561,1.394,1.4523,1.5153,1.5641,1.6082,1.643,1.6412,1.6582,1.7128,1.7422,1.7752,1.8198,1.862,1.8643,1.8858,1.9027,1.9155,1.912,1.9333,1.9457,1.958,2.0363,2.0905,2.1348,2.1995,2.2563,2.3104,2.3725,2.4259,2.4858,2.552,2.6171,2.6543,2.6577,2.6774,2.7197,2.7554,2.7839,2.7941,2.7695,2.749,2.7304,2.714,2.6998,2.6857,2.6867,2.6867,2.6944,2.7031,2.7075,2.7073,2.6816,2.6396,2.5724,2.4968,2.4631,2.4821,2.5132,2.5123,2.5223,2.4814,2.4775,2.4904,2.5055,2.511,2.5123,2.5034,2.5087,2.5176,2.5147,2.5123,2.5164,2.52,2.5182,2.5194,2.52,2.5288,2.543,2.5588,2.5658,2.5711,2.5561,2.5085,0.5657,0.577,0.6077,0.6309,0.656,0.7073,0.7591,0.8143,0.9033,0.9746,1.0268,1.081,1.1395,1.1992,1.21,1.2149,1.2289,1.231,1.2347,1.2326,1.2289,1.2353,1.239,1.2427,1.2513,1.2598,1.2662,1.2747,1.2881,1.313,1.3455,1.4038,1.4614,1.5276,1.5909,1.64,1.6788,1.7038,1.7088,1.7469,1.7928,1.7976,1.8152,1.8582,1.8897,1.8943,1.9104,1.9288,1.9494,1.9646,1.9888,2.0175,2.0445,2.0973,2.1575,2.2153,2.2819,2.351,2.4074,2.4602,2.5212,2.5868,2.6226,2.6767,2.7484,2.7466,2.7237,2.7579,2.7719,2.802,2.7717,2.7446,2.7391,2.7271,2.7217,2.7129,2.7152,2.7217,2.7261,2.7338,2.7337,2.7212,2.7142,2.6852,2.6517,2.656,2.5788,2.5784,2.5843,2.5548,2.5487,2.5344,2.5069,2.4842,2.4986,2.5093,2.5153,2.5159,2.5152,2.5271,2.5371,2.5394,2.5418,2.5523,2.5588,2.5571,2.5571,2.5594,2.5681,2.5851,2.599,2.6129,2.6176,2.6211,2.593,0.5809,0.6038,0.6521,0.693,0.7315,0.7768,0.828,0.8885,0.9688,1.0518,1.1197,1.148,1.1956,1.2344,1.2592,1.2656,1.2662,1.2577,1.2619,1.2641,1.2641,1.2577,1.2598,1.2662,1.2662,1.2705,1.2769,1.2939,1.3115,1.3534,1.4082,1.4634,1.5355,1.6107,1.6721,1.719,1.7502,1.7563,1.7689,1.792,1.8061,1.8077,1.8372,1.8727,1.9058,1.9211,1.9371,1.9585,1.9868,2.0065,2.0292,2.06,2.0985,2.1392,2.2041,2.2666,2.3411,2.4298,2.5109,2.5424,2.6134,2.6705,2.6886,2.7296,2.7955,2.8029,2.7771,2.7601,2.7749,2.7708,2.7392,2.7162,2.7173,2.7195,2.7173,2.7162,2.7261,2.7381,2.7491,2.7578,2.751,2.738,2.7286,2.6981,2.6937,2.7003,2.7062,2.7241,2.7162,2.655,2.6167,2.5973,2.5722,2.5522,2.532,2.5147,2.5206,2.5223,2.5259,2.543,2.5588,2.5716,2.5838,2.599,2.602,2.6025,2.606,2.6112,2.6198,2.6302,2.6444,2.6628,2.6714,2.6748,2.6794,0.6277,0.6502,0.708,0.7461,0.7787,0.8451,0.9027,0.9487,1.0116,1.0858,1.1449,1.1785,1.2131,1.2641,1.2662,1.2705,1.2705,1.2705,1.2705,1.2683,1.2705,1.2705,1.2705,1.2705,1.2705,1.2796,1.2957,1.317,1.3662,1.4286,1.4954,1.5619,1.6393,1.7008,1.7459,1.7797,1.789,1.7986,1.8061,1.8212,1.8448,1.8521,1.8635,1.892,1.9173,1.9333,1.9525,1.9754,1.9868,2.005,2.0428,2.0803,2.1266,2.1785,2.241,2.3096,2.3863,2.4675,2.5371,2.5722,2.6295,2.6801,2.7011,2.7376,2.7821,2.7933,2.7586,2.7074,2.713,2.7096,2.6854,2.6654,2.6597,2.6767,2.6819,2.6798,2.6861,2.7116,2.7327,2.7472,2.7603,2.7707,2.7902,2.7671,2.7567,2.7529,2.727,2.7466,2.7763,2.7325,2.6889,2.6702,2.6475,2.6135,2.5901,2.5343,2.5259,2.5294,2.5478,2.587,2.6103,2.6129,2.6272,2.6474,2.6543,2.656,2.6594,2.6645,2.6731,2.682,2.6973,2.7108,2.7192,2.7289,2.7339]},{"header":{"parameterUnit":"m.s-1","parameterCategory":1,"la1":31.0,"la2":29.5877,"lo1":-88.7671,"lo2":-86.6584,"dy":0.0162,"dx":0.0185,"nx":115,"ny":88,"refTime":"2024-02-23T18:00:00:Z","depth":0,"parameterNumber":3,"parameterNumberName":"V-component_of_WINDS"},"data":[0.0,0.0,0.0,0.0,0.0,0.0,0.0,0.0,0.0,0.0,0.0,0.0,0.0,0.0,0.0,0.0,0.0,0.0,0.0,0.0,0.0,0.0,0.0,0.0,0.0,0.0,0.0,0.0,0.0,0.0,0.0,0.0,0.0,0.0,0.0,0.0,0.0,0.0,0.0,0.0,0.0,0.0,0.0,0.0,0.0,0.0,0.0,0.0,0.0,0.0,0.0,0.0,0.0,0.0,0.0,0.0,0.0,0.0,0.0,0.0,0.0,0.0,0.0,0.0,0.0,0.0,0.0,0.0,0.0,0.0,0.0,0.0,0.0,0.0,0.0,0.0,0.0,0.0,0.0,0.0,0.0,0.0,0.0,0.0,0.0,0.0,0.0,0.0,0.0,0.0,0.0,0.0,0.0,0.0,0.0,0.0,0.0,0.0,0.0,0.0,0.0,0.0,0.0,0.0,0.0,0.0,0.0,0.0,0.0,0.0,0.0,0.0,0.0,0.0,0.0,0.0,0.0,0.0,0.0,0.0,0.0,0.0,0.0,0.0,0.0,0.0,0.0,0.0,0.0,0.0,0.0,0.0,0.0,0.0,0.0,0.0,0.0,0.0,0.0,0.0,0.0,0.0,0.0,0.0,0.0,0.0,0.0,0.0,0.0,0.0,0.0,0.0,0.0,0.0,0.0,0.0,0.0,0.0,0.0,0.0,0.0,0.0,0.0,0.0,0.0,0.0,0.0,0.0,0.0,0.0,0.0,0.0,0.0,0.0,0.0,0.0,0.0,0.0,0.0,0.0,0.0,0.0,0.0,0.0,0.0,0.0,0.0,0.0,0.0,0.0,0.0,0.0,0.0,0.0,0.0,0.0,0.0,0.0,0.0,0.0,0.0,0.0,0.0,0.0,0.0,0.0,0.0,0.0,0.0,0.0,0.0,0.0,0.0,0.0,0.0,0.0,0.0,0.0,0.0,0.0,0.0,0.0,0.0,0.0,0.0,0.0,0.0,0.0,0.0,0.0,0.0,0.0,0.0,0.0,0.0,0.0,0.0,0.0,0.0,0.0,0.0,0.0,0.0,0.0,0.0,0.0,0.0,0.0,0.0,0.0,0.0,0.0,0.0,0.0,0.0,0.0,0.0,0.0,0.0,0.0,0.0,0.0,0.0,0.0,0.0,0.0,0.0,0.0,0.0,0.0,0.0,0.0,0.0,0.0,0.0,0.0,0.0,0.0,0.0,0.0,0.0,0.0,0.0,0.0,0.0,0.0,0.0,0.0,0.0,0.0,0.0,0.0,0.0,0.0,0.0,0.0,0.0,0.0,0.0,0.0,0.0,0.0,0.0,0.0,0.0,0.0,0.0,0.0,0.0,0.0,0.0,0.0,0.0,0.0,0.0,0.0,0.0,0.0,0.0,0.0,0.0,0.0,0.0,0.0,0.0,0.0,0.0,0.0,0.0,0.0,0.0,0.0,0.0,0.0,0.0,0.0,0.0,0.0,0.0,0.0,0.0,0.0,0.0,0.0,0.0,0.0,0.0,0.0,0.0,0.0,0.0,0.0,0.0,0.0,0.0,0.0,0.0,0.0,0.0,0.0,0.0,0.0,0.0,0.0,0.0,0.0,0.0,0.0,0.0,0.0,0.0,0.0,0.0,0.0,0.0,0.0,0.0,0.0,0.0,0.0,0.0,0.0,0.0,0.0,0.0,0.0,0.0,0.0,0.0,0.0,0.0,0.0,0.0,0.0,0.0,0.0,0.0,0.0,0.0,0.0,0.0,0.0,0.0,0.0,0.0,0.0,0.0,0.0,0.0,0.0,0.0,0.0,0.0,0.0,0.0,0.0,0.0,0.0,0.0,0.0,0.0,0.0,0.0,0.0,0.0,0.0,0.0,0.0,0.0,0.0,0.0,0.0,0.0,0.0,0.0,0.0,0.0,0.0,0.0,0.0,0.0,0.0,0.0,0.0,0.0,0.0,0.0,0.0,0.0,0.0,0.0,0.0,0.0,0.0,0.0,0.0,0.0,0.0,0.0,0.0,0.0,0.0,0.0,0.0,0.0,0.0,0.0,0.0,0.0,0.0,0.0,0.0,0.0,0.0,0.0,0.0,0.0,0.0,0.0,0.0,0.0,0.0,0.0,0.0,0.0,0.0,0.0,0.0,0.0,0.0,0.0,0.0,0.0,0.0,0.0,0.0,0.0,0.0,0.0,0.0,0.0,0.0,0.0,0.0,0.0,0.0,0.0,0.0,0.0,0.0,0.0,0.0,0.0,0.0,0.0,0.0,0.0,0.0,0.0,0.0,0.0,0.0,0.0,0.0,0.0,0.0,0.0,0.0,0.0,0.0,0.0,0.0,0.0,0.0,0.0,0.0,0.0,0.0,0.0,0.0,0.0,0.0,0.0,0.0,0.0,0.0,0.0,0.0,0.0,0.0,0.0,0.0,0.0,0.0,0.0,0.0,0.0,0.0,0.0,0.0,0.0,0.0,0.0,0.0,0.0,0.0,0.0,0.0,0.0,0.0,0.0,0.0,0.0,0.0,0.0,0.0,0.0,0.0,0.0,0.0,0.0,0.0,0.0,0.0,0.0,0.0,0.0,0.0,0.0,0.0,0.0,0.0,0.0,0.0,0.0,0.0,0.0,0.0,0.0,0.0,0.0,0.0,0.0,0.0,0.0,0.0,0.0,0.0,0.0,0.0,0.0,0.0,0.0,0.0,0.0,0.0,0.0,0.0,0.0,0.0,0.0,0.0,0.0,0.0,0.0,0.0,0.0,0.0,0.0,0.0,0.0,0.0,0.0,0.0,0.0,0.0,0.0,0.0,0.0,0.0,0.0,0.0,0.0,0.0,0.0,0.0,0.0,0.0,0.0,0.0,0.0,0.0,0.0,0.0,0.0,0.0,0.0,0.0,0.0,0.0,0.0,0.0,0.0,0.0,0.0,0.0,0.0,0.0,0.0,0.0,0.0,0.0,0.0,0.0,0.0,0.0,0.0,0.0,0.0,0.0,0.0,0.0,0.0,0.0,0.0,0.0,0.0,0.0,0.0,0.0,0.0,0.0,0.0,0.0,0.0,0.0,0.0,0.0,0.0,0.0,0.0,0.0,0.0,0.0,0.0,0.0,0.0,0.0,0.0,0.0,0.0,0.0,0.0,0.0,0.0,0.0,0.0,0.0,0.0,0.0,0.0,0.0,0.0,0.0,0.0,0.0,0.0,0.0,0.0,0.0,0.0,0.0,0.0,0.0,0.0,0.0,0.0,0.0,0.0,0.0,0.0,0.0,0.0,0.0,0.0,0.0,0.0,0.0,0.0,0.0,0.0,0.0,0.0,0.0,0.0,0.0,0.0,0.0,0.0,0.0,0.0,0.0,0.0,0.0,0.0,0.0,0.0,0.0,0.0,0.0,0.0,0.0,0.0,0.0,0.0,0.0,0.0,0.0,0.0,0.0,0.0,0.0,0.0,0.0,0.0,0.0,0.0,0.0,0.0,0.0,0.0,0.0,0.0,0.0,0.0,0.0,0.0,0.0,0.0,0.0,0.0,0.0,0.0,0.0,0.0,0.0,0.0,0.0,0.0,0.0,0.0,0.0,0.0,0.0,0.0,0.0,0.0,0.0,0.0,0.0,0.0,0.0,0.0,0.0,0.0,0.0,0.0,0.0,0.0,0.0,0.0,0.0,0.0,0.0,0.0,0.0,0.0,0.0,0.0,0.0,0.0,0.0,0.0,0.0,0.0,0.0,0.0,0.0,0.0,0.0,0.0,0.0,0.0,0.0,0.0,0.0,0.0,0.0,0.0,0.0,0.0,0.0,0.0,0.0,0.0,0.0,0.0,0.0,0.0,0.0,0.0,0.0,0.0,0.0,0.0,0.0,0.0,0.0,0.0,0.0,0.0,0.0,0.0,0.0,0.0,0.0,0.0,0.0,0.0,0.0,0.0,0.0,0.0,0.0,0.0,0.0,0.0,0.0,0.0,0.0,0.0,0.0,0.0,0.0,0.0,0.0,0.0,0.0,0.0,0.0,0.0,0.0,0.0,0.0,0.0,0.0,0.0,0.0,0.0,0.0,0.0,0.0,0.0,0.0,0.0,0.0,0.0,0.0,0.0,0.0,0.0,0.0,0.0,0.0,0.0,0.0,0.0,0.0,0.0,0.0,0.0,0.0,0.0,0.0,0.0,0.0,0.0,0.0,0.0,0.0,0.0,0.0,0.0,0.0,0.0,0.0,0.0,0.0,0.0,0.0,0.0,0.0,0.0,0.0,0.0,0.0,1.4792,0.0,0.0,0.0,0.0,0.0,0.0,0.0,0.0,0.0,0.0,0.0,0.0,0.0,0.0,0.0,0.0,0.0,0.0,0.0,0.0,0.0,0.0,0.0,0.0,0.0,0.0,0.0,0.0,0.0,0.0,0.0,0.0,0.0,0.0,0.0,0.0,0.0,0.0,0.0,0.0,0.0,0.0,0.0,0.0,0.0,0.0,0.0,0.0,0.0,0.0,0.0,0.0,0.0,0.0,0.0,0.0,0.0,0.0,0.0,0.0,0.0,0.0,0.0,0.0,0.0,0.0,0.0,0.0,0.0,0.0,0.0,0.0,0.0,0.0,0.0,0.0,0.0,0.0,0.0,0.0,0.0,0.0,0.0,0.0,0.0,0.0,0.0,0.0,0.0,0.0,0.0,0.0,0.0,0.0,0.0,0.0,0.0,0.0,0.0,0.0,0.0,0.0,0.0,0.0,0.0,0.0,0.0,0.0,0.0,0.0,1.4837,1.4809,1.4829,1.4859,1.4853,0.0,0.0,0.0,0.0,0.0,0.0,0.0,0.0,0.0,0.0,0.0,0.0,0.0,0.0,0.0,0.0,0.0,0.0,0.0,0.0,0.0,0.0,0.0,0.0,0.0,0.0,0.0,0.0,0.0,0.0,0.0,0.0,0.0,0.0,0.0,0.0,0.0,0.0,0.0,0.0,0.0,0.0,0.0,0.0,0.0,0.0,0.0,0.0,0.0,0.0,0.0,0.0,0.0,0.0,0.0,0.0,0.0,0.0,0.0,0.0,0.0,0.0,0.0,0.0,0.0,0.0,0.0,0.0,0.0,0.0,0.0,0.0,0.0,0.0,0.0,0.0,0.0,0.0,0.0,0.0,0.0,0.0,0.0,0.0,0.0,0.0,0.0,0.0,0.0,0.0,0.0,0.0,0.0,0.0,0.0,0.0,0.0,0.0,0.0,0.0,0.0,0.0,0.0,0.0,0.0,0.0,0.0,0.0,0.0,0.0,0.0,0.0,1.4894,1.4942,1.4953,0.0,0.0,0.0,0.0,0.0,0.0,0.0,0.0,0.0,0.0,0.0,0.0,0.0,0.0,0.0,0.0,0.0,0.0,0.0,0.0,0.0,0.0,0.0,0.0,0.0,0.0,0.0,0.0,0.0,0.0,0.0,0.0,0.0,0.0,0.0,0.0,0.0,0.0,0.0,0.0,0.0,0.0,0.0,0.0,0.0,0.0,0.0,0.0,0.0,0.0,0.0,0.0,0.0,0.0,0.0,0.0,0.0,0.0,0.0,0.0,0.0,0.0,0.0,0.0,0.0,0.0,0.0,0.0,0.0,0.0,0.0,0.0,0.0,0.0,0.0,0.0,0.0,0.0,0.0,0.0,0.0,0.0,0.0,0.0,0.0,0.0,0.0,0.0,0.0,0.0,0.0,0.0,0.0,0.0,0.0,0.0,0.0,0.0,0.0,0.0,0.0,0.0,0.0,0.0,0.0,0.0,0.0,0.0,0.0,0.0,1.4887,1.49,1.4946,0.0,1.5075,0.0,0.0,0.0,0.0,0.0,0.0,0.0,0.0,0.0,0.0,0.0,0.0,0.0,0.0,0.0,0.0,0.0,0.0,0.0,0.0,0.0,0.0,0.0,0.0,0.0,0.0,0.0,0.0,0.0,0.0,0.0,0.0,0.0,0.0,0.0,0.0,0.0,0.0,0.0,0.0,0.0,0.0,0.0,0.0,0.0,0.0,0.0,0.0,0.0,0.0,0.0,0.0,0.0,0.0,0.0,0.0,0.0,0.0,0.0,0.0,0.0,0.0,0.0,0.0,0.0,0.0,0.0,0.0,0.0,0.0,0.0,0.0,0.0,0.0,0.0,0.0,0.0,0.0,0.0,0.0,0.0,0.0,0.0,0.0,0.0,0.0,0.0,0.0,0.0,0.0,0.0,0.0,0.0,0.0,0.0,0.0,0.0,0.0,0.0,0.0,0.0,0.0,0.0,0.0,0.0,0.0,0.0,0.0,0.0,0.0,1.4219,1.4248,1.4773,1.5094,0.0,0.0,0.0,0.0,0.0,0.0,0.0,0.0,0.0,0.0,0.0,0.0,0.0,0.0,0.0,0.0,0.0,0.0,0.0,0.0,0.0,0.0,0.0,0.0,0.0,0.0,0.0,0.0,0.0,0.0,0.0,0.0,0.0,0.0,0.0,0.0,0.0,0.0,0.0,0.0,0.0,0.0,0.0,0.0,0.0,0.0,0.0,0.0,0.0,0.0,0.0,0.0,0.0,0.0,0.0,0.0,0.0,0.0,0.0,0.0,0.0,0.0,0.0,0.0,0.0,0.0,0.0,0.0,0.0,0.0,0.0,0.0,0.0,0.0,0.0,0.0,0.0,0.0,0.0,0.0,0.0,0.0,0.0,0.0,0.0,0.0,0.0,0.0,0.0,0.0,0.0,0.0,0.0,0.0,0.0,0.0,0.0,0.0,0.0,0.0,0.0,0.0,0.0,0.0,0.0,0.0,0.0,0.0,0.0,0.0,1.305,1.3517,1.3836,1.4437,1.4895,1.5188,0.0,0.0,0.0,0.0,0.0,0.0,0.0,0.0,0.0,0.0,0.0,0.0,0.0,0.0,0.0,0.0,0.0,0.0,0.0,0.0,0.0,0.0,0.0,0.0,0.0,0.0,0.0,0.0,0.0,0.0,0.0,0.0,0.0,0.0,0.0,0.0,0.0,0.0,0.0,0.0,0.0,0.0,0.0,0.0,0.0,0.0,0.0,0.0,0.0,0.0,0.0,0.0,0.0,0.0,0.0,0.0,0.0,0.0,0.0,0.0,0.0,0.0,0.0,0.0,0.0,0.0,0.0,0.0,0.0,0.0,0.0,0.0,0.0,0.0,0.0,0.0,0.0,0.0,0.0,0.0,0.0,0.0,0.0,0.0,0.0,0.0,0.0,0.0,0.0,0.0,0.0,0.0,0.0,0.0,0.0,0.0,0.0,0.0,0.0,0.0,0.0,0.0,0.0,0.0,0.0,0.0,0.0,0.0,1.2465,1.2512,1.2966,1.383,1.3933,1.4348,0.0,0.0,0.0,0.0,0.0,0.0,0.0,0.0,0.0,0.0,0.0,0.0,0.0,0.0,0.0,0.0,0.0,0.0,0.0,0.0,0.0,0.0,0.0,0.0,0.0,0.0,0.0,0.0,0.0,0.0,0.0,0.0,0.0,0.0,0.0,0.0,0.0,0.0,0.0,0.0,0.0,0.0,0.0,0.0,0.0,0.0,0.0,0.0,0.0,0.0,0.0,0.0,0.0,0.0,0.0,0.0,0.0,0.0,0.0,0.0,0.0,0.0,0.0,0.0,0.0,0.0,0.0,0.0,0.0,0.0,0.0,0.0,0.0,0.0,0.0,0.0,0.0,0.0,0.0,0.0,0.0,0.0,0.0,0.0,0.0,0.0,0.0,0.0,0.0,0.0,0.0,0.0,0.0,0.0,0.0,0.0,0.0,0.0,0.0,0.0,0.0,0.0,0.0,0.0,0.0,0.0,0.0,0.0,0.0,1.0979,1.1467,1.2236,1.311,1.3666,1.4363,0.0,0.0,0.0,0.0,0.0,0.0,0.0,0.0,0.0,0.0,0.0,0.0,0.0,0.0,0.0,0.0,0.0,0.0,0.0,0.0,0.0,0.0,0.0,0.0,0.0,0.0,0.0,0.0,0.0,0.0,0.0,0.0,0.0,0.0,0.0,0.0,0.0,0.0,0.0,0.0,0.0,0.0,0.0,0.0,0.0,0.0,0.0,0.0,0.0,0.0,0.0,0.0,0.0,0.0,0.0,0.0,0.0,0.0,0.0,0.0,0.0,0.0,0.0,0.0,0.0,0.0,0.0,0.0,0.0,0.0,0.0,0.0,0.0,0.0,0.0,0.0,0.0,0.0,0.0,0.0,0.0,0.0,0.0,0.0,0.0,0.0,0.0,0.0,0.0,0.0,0.0,0.0,0.0,0.0,0.0,0.0,0.0,0.0,0.0,0.0,0.0,0.0,0.0,0.0,0.0,0.0,0.0,0.0,0.0,1.091,0.0,1.1821,1.2679,1.3268,1.3982,0.0,0.0,0.0,0.0,0.0,0.0,0.0,0.0,0.0,0.0,0.0,0.0,0.0,0.0,0.0,0.0,0.0,0.0,0.0,0.0,0.0,0.0,0.0,0.0,0.0,0.0,0.0,0.0,0.0,0.0,0.0,0.0,0.0,0.0,0.0,0.0,0.0,0.0,0.0,0.0,0.0,0.0,0.0,0.0,0.0,0.0,0.0,0.0,0.0,0.0,0.0,0.0,0.0,0.0,0.0,0.0,0.0,0.0,0.0,0.0,0.0,0.0,0.0,0.0,0.0,0.0,0.0,0.0,0.0,0.0,0.0,0.0,0.0,0.0,0.0,0.0,0.0,0.0,0.0,0.0,0.0,0.0,0.0,0.0,0.0,0.0,0.0,0.0,0.0,0.0,0.0,0.0,0.0,0.0,0.0,0.0,0.0,0.0,0.0,0.0,0.0,0.0,0.0,0.0,0.0,0.0,0.0,0.0,1.2555,1.2561,1.1865,1.1958,1.2717,1.2845,1.3203,0.0,0.0,0.0,0.0,0.0,0.0,0.0,0.0,0.0,0.0,0.0,0.0,0.0,0.0,0.0,0.0,0.0,0.0,0.0,0.0,0.0,0.0,0.0,0.0,0.0,0.0,0.0,0.0,0.0,0.0,0.0,0.0,0.0,0.0,0.0,0.0,0.0,0.0,0.0,0.0,0.0,0.0,0.0,0.0,0.0,0.0,0.0,0.0,0.0,0.0,0.0,0.0,0.0,0.0,0.0,0.0,0.0,0.0,0.0,0.0,0.0,0.0,0.0,0.0,0.0,0.0,0.0,0.0,0.0,0.0,0.0,0.0,0.0,0.0,0.0,0.0,0.0,0.0,0.0,0.0,0.0,0.0,0.0,0.0,0.0,0.0,0.0,0.0,0.0,0.0,0.0,0.0,0.0,0.0,0.0,0.0,0.0,0.0,0.0,0.0,0.0,0.0,0.0,0.0,0.0,0.0,0.0,0.0,0.0,1.3503,1.3306,1.3895,1.5284,1.48,1.4896,0.0,0.0,0.0,0.0,0.0,0.0,0.0,0.0,0.0,0.0,0.0,0.0,0.0,0.0,0.0,0.0,0.0,0.0,0.0,0.0,0.0,0.0,0.0,0.0,0.0,0.0,0.0,0.0,0.0,0.0,0.0,0.0,0.0,0.0,0.0,0.0,0.0,0.0,0.0,0.0,0.0,0.0,0.0,0.0,0.0,0.0,0.0,0.0,0.0,0.0,0.0,0.0,0.0,0.0,0.0,0.0,0.0,0.0,0.0,0.0,0.0,0.0,0.0,0.0,0.0,0.0,0.0,0.0,0.0,0.0,0.0,0.0,0.0,0.0,0.0,0.0,0.0,0.0,0.0,0.0,0.0,0.0,0.0,0.0,0.0,0.0,0.0,0.0,0.0,0.0,0.0,0.0,0.0,0.0,0.0,0.0,0.0,0.0,0.0,0.0,0.0,0.0,0.0,0.0,0.0,0.0,0.0,0.0,0.0,1.6257,1.5399,1.5596,1.7027,1.6232,1.5884,1.6077,0.0,0.0,0.0,0.0,0.0,0.0,0.0,0.0,0.0,0.0,0.0,0.0,0.0,0.0,0.0,0.0,0.0,0.0,0.0,0.0,0.0,0.0,0.0,0.0,0.0,0.0,0.0,0.0,0.0,0.0,0.0,0.0,0.0,0.0,0.0,0.0,0.0,0.0,0.0,0.0,0.0,0.0,0.0,0.0,0.0,0.0,0.0,0.0,0.0,0.0,0.0,0.0,0.0,0.0,0.0,0.0,0.0,0.0,0.0,0.0,0.0,0.0,0.0,0.0,0.0,0.0,0.0,0.0,0.0,0.0,0.0,0.0,0.0,0.0,0.0,0.0,0.0,0.0,0.0,0.0,0.0,0.0,0.0,0.0,0.0,0.0,0.0,0.0,0.0,0.0,0.0,0.0,0.0,0.0,0.0,0.0,0.0,0.0,0.0,0.0,0.0,0.0,0.0,0.0,0.0,0.0,0.0,0.0,2.0341,1.8085,1.7279,1.8076,1.7299,1.6405,0.0,0.0,0.0,0.0,0.0,0.0,0.0,0.0,0.0,0.0,0.0,0.0,0.0,0.0,0.0,0.0,0.0,0.0,0.0,0.0,0.0,0.0,0.0,0.0,0.0,0.0,0.0,0.0,0.0,0.0,0.0,0.0,0.0,0.0,0.0,0.0,0.0,0.0,0.0,0.0,0.0,0.0,0.0,0.0,0.0,0.0,0.0,0.0,0.0,0.0,0.0,0.0,0.0,0.0,0.0,0.0,0.0,0.0,0.0,0.0,0.0,0.0,0.0,0.0,0.0,0.0,0.0,0.0,0.0,0.0,0.0,0.0,0.0,0.0,0.0,0.0,0.0,0.0,0.0,0.0,0.0,0.0,0.0,0.0,0.0,0.0,0.0,0.0,0.0,0.0,0.0,0.0,0.0,0.0,0.0,0.0,0.0,0.0,0.0,0.0,0.0,0.0,0.0,0.0,0.0,0.0,0.0,0.0,0.0,2.1127,2.1222,2.133,2.1532,2.0173,1.8994,0.0,0.0,0.0,0.0,0.0,0.0,0.0,0.0,0.0,0.0,0.0,0.0,0.0,0.0,0.0,0.0,0.0,0.0,0.0,0.0,0.0,0.0,0.0,0.0,0.0,0.0,0.0,0.0,0.0,0.0,0.0,0.0,0.0,0.0,0.0,0.0,0.0,0.0,0.0,0.0,0.0,0.0,0.0,0.0,0.0,0.0,0.0,0.0,0.0,0.0,0.0,0.0,0.0,0.0,0.0,0.0,0.0,0.0,0.0,0.0,0.0,0.0,0.0,0.0,0.0,0.0,0.0,0.0,0.0,0.0,0.0,0.0,0.0,0.0,0.0,0.0,0.0,0.0,0.0,0.0,0.0,0.0,0.0,0.0,0.0,0.0,0.0,0.0,0.0,0.0,0.0,0.0,0.0,0.0,0.0,0.0,0.0,0.0,0.0,0.0,0.0,0.0,0.0,0.0,0.0,0.0,0.0,0.0,2.0511,2.2695,2.3912,2.4539,2.4539,2.2209,2.038,0.0,0.0,0.0,0.0,0.0,0.0,0.0,0.0,0.0,0.0,0.0,0.0,0.0,0.0,0.0,0.0,0.0,0.0,0.0,0.0,0.0,0.0,0.0,0.0,0.0,0.0,0.0,0.0,0.0,0.0,0.0,0.0,0.0,0.0,0.0,0.0,0.0,0.0,0.0,0.0,0.0,0.0,0.0,0.0,0.0,0.0,0.0,0.0,0.0,0.0,0.0,0.0,0.0,0.0,0.0,0.0,0.0,0.0,0.0,0.0,0.0,0.0,0.0,0.0,0.0,0.0,0.0,0.0,0.0,0.0,0.0,0.0,0.0,0.0,0.0,0.0,0.0,0.0,0.0,0.0,0.0,0.0,0.0,0.0,0.0,0.0,0.0,0.0,0.0,0.0,0.0,0.0,0.0,0.0,0.0,0.0,0.0,0.0,0.0,0.0,0.0,0.0,0.0,0.0,0.0,0.0,0.0,0.0,2.2585,2.4403,2.5988,2.681,2.6714,2.3739,2.1281,0.0,0.0,0.0,0.0,0.0,0.0,0.0,0.0,0.0,0.0,0.0,0.0,0.0,0.0,0.0,0.0,0.0,0.0,0.0,0.0,0.0,0.0,0.0,0.0,0.0,0.0,0.0,0.0,0.0,0.0,0.0,0.0,0.0,0.0,0.0,0.0,0.0,0.0,0.0,0.0,0.0,0.0,0.0,0.0,0.0,0.0,0.0,0.0,0.0,0.0,0.0,0.0,0.0,0.0,0.0,0.0,0.0,0.0,0.0,0.0,0.0,0.0,0.0,0.0,0.0,0.0,0.0,0.0,0.0,0.0,0.0,0.0,0.0,0.0,0.0,0.0,0.0,0.0,0.0,0.0,0.0,0.0,0.0,0.0,0.0,0.0,0.0,0.0,0.0,0.0,0.0,0.0,0.0,0.0,0.0,0.0,0.0,0.0,0.0,0.0,0.0,0.0,0.0,0.0,0.0,0.0,0.0,0.0,2.2874,2.5256,2.6333,2.6871,2.6884,2.5515,2.3659,0.0,0.0,0.0,0.0,0.0,0.0,0.0,0.0,0.0,0.0,0.0,0.0,0.0,0.0,0.0,0.0,0.0,0.0,0.0,0.0,0.0,0.0,0.0,0.0,0.0,0.0,0.0,0.0,0.0,0.0,0.0,0.0,0.0,0.0,0.0,0.0,0.0,0.0,0.0,0.0,0.0,0.0,0.0,0.0,0.0,0.0,0.0,0.0,1.556,0.0,0.0,0.0,0.0,0.0,0.0,0.0,0.0,0.0,0.0,0.0,0.0,0.0,0.0,0.0,0.0,0.0,0.0,0.0,0.0,0.0,0.0,0.0,0.0,0.0,0.0,0.0,0.0,0.0,0.0,0.0,0.0,0.0,0.0,0.0,0.0,0.0,0.0,0.0,0.0,0.0,0.0,0.0,0.0,0.0,0.0,0.0,0.0,0.0,0.0,0.0,0.0,0.0,0.0,0.0,0.0,0.0,0.0,0.0,2.3431,2.5575,2.6477,2.6952,2.6919,2.611,2.4425,0.0,0.0,0.0,0.0,0.0,0.0,0.0,0.0,0.0,0.0,0.0,0.0,0.0,0.0,0.0,0.0,0.0,0.0,0.0,0.0,0.0,0.0,0.0,0.0,0.0,0.0,0.0,0.0,0.0,0.0,0.0,0.0,0.0,0.0,0.0,0.0,0.0,0.0,0.0,0.0,0.0,0.0,0.0,0.0,0.0,0.0,0.0,0.0,0.0,0.0,0.0,0.0,0.0,0.0,0.0,0.0,0.0,0.0,0.0,0.0,0.0,0.0,0.0,0.0,0.0,0.0,0.0,0.0,0.0,0.0,0.0,0.0,0.0,0.0,0.0,0.0,0.0,0.0,0.0,0.0,0.0,0.0,0.0,0.0,0.0,0.0,0.0,0.0,0.0,0.0,0.0,0.0,0.0,0.0,0.0,0.0,0.0,0.0,0.0,0.0,0.0,0.0,0.0,0.0,0.0,0.0,0.0,2.1838,2.4014,2.5837,2.6622,2.6936,2.6799,2.6095,2.4412,2.1727,0.0,0.0,0.0,0.0,0.0,0.0,0.0,0.0,0.0,0.0,0.0,0.0,0.0,0.0,0.0,0.0,0.0,0.0,0.0,0.0,0.0,0.0,0.0,0.0,0.0,0.0,0.0,0.0,0.0,0.0,0.0,0.0,0.0,0.0,0.0,0.0,0.0,0.0,1.5218,1.6475,0.0,0.0,0.0,0.0,0.0,0.0,0.0,0.0,1.6034,0.0,0.0,0.0,0.0,0.0,0.0,0.0,0.0,0.0,0.0,0.0,0.0,0.0,0.0,0.0,0.0,0.0,0.0,0.0,0.0,0.0,0.0,0.0,0.0,0.0,0.0,0.0,0.0,0.0,0.0,0.0,0.0,0.0,0.0,0.0,0.0,0.0,0.0,0.0,0.0,0.0,0.0,0.0,0.0,0.0,0.0,0.0,0.0,0.0,0.0,0.0,0.0,0.0,0.0,0.0,0.0,2.026,2.2146,2.4299,2.67,2.6919,2.6647,2.5944,2.5768,2.4148,2.0989,0.0,0.0,0.0,0.0,0.0,0.0,0.0,0.0,0.0,0.0,0.0,0.0,0.0,0.0,0.0,0.0,0.0,0.0,0.0,0.0,0.0,0.0,0.0,0.0,0.0,0.0,0.0,0.0,0.0,0.0,0.0,0.0,0.0,0.0,0.0,0.0,0.0,0.0,0.0,1.7945,1.8284,0.0,0.0,0.0,0.0,0.0,0.0,0.0,0.0,1.8548,0.0,0.0,0.0,0.0,0.0,0.0,0.0,0.0,0.0,0.0,0.0,0.0,0.0,0.0,0.0,0.0,0.0,0.0,0.0,0.0,0.0,0.0,0.0,0.0,0.0,0.0,0.0,0.0,0.0,0.0,0.0,0.0,0.0,0.0,0.0,0.0,0.0,0.0,0.0,0.0,0.0,0.0,0.0,0.0,0.0,0.0,0.0,0.0,0.0,0.0,0.0,0.0,0.0,0.0,0.0,1.9899,2.1999,2.3918,2.5579,2.566,2.5466,2.5016,2.3767,2.2283,0.0,0.0,0.0,0.0,0.0,0.0,0.0,0.0,0.0,0.0,0.0,0.0,0.0,0.0,0.0,0.0,0.0,0.0,0.0,0.0,0.0,0.0,0.0,0.0,0.0,0.0,0.0,0.0,0.0,0.0,0.0,0.0,0.0,0.0,0.0,0.0,0.0,0.0,0.0,0.0,1.8319,1.9144,1.9867,0.0,0.0,0.0,0.0,0.0,0.0,1.9233,1.8771,0.0,0.0,0.0,0.0,0.0,0.0,0.0,0.0,0.0,0.0,0.0,0.0,0.0,0.0,0.0,0.0,0.0,0.0,0.0,0.0,0.0,0.0,0.0,0.0,0.0,0.0,0.0,0.0,0.0,0.0,0.0,0.0,0.0,0.0,0.0,0.0,0.0,0.0,0.0,0.0,0.0,0.0,0.0,0.0,0.0,0.0,0.0,0.0,0.0,0.0,0.0,0.0,0.0,0.0,0.0,1.9615,2.1751,2.3298,2.4121,2.416,2.4082,2.3867,2.1758,2.043,0.0,0.0,0.0,0.0,0.0,0.0,0.0,0.0,0.0,0.0,0.0,0.0,0.0,0.0,0.0,0.0,0.0,0.0,0.0,0.0,0.0,0.0,0.0,0.0,0.0,0.0,0.0,0.0,0.0,0.0,0.0,0.0,0.0,0.0,0.0,0.0,0.0,0.0,0.0,0.0,0.0,2.0221,2.1125,2.1094,0.0,0.0,0.0,0.0,2.1739,2.0331,0.0,0.0,0.0,0.0,0.0,0.0,0.0,0.0,0.0,0.0,0.0,0.0,0.0,0.0,0.0,0.0,0.0,0.0,0.0,0.0,0.0,0.0,0.0,0.0,0.0,0.0,0.0,0.0,0.0,0.0,0.0,0.0,0.0,0.0,0.0,0.0,0.0,0.0,0.0,0.0,0.0,0.0,0.0,0.0,0.0,0.0,0.0,0.0,0.0,0.0,0.0,0.0,0.0,0.0,0.0,0.0,2.0405,2.1502,2.248,2.3281,2.334,2.2988,2.2207,2.1152,1.9863,0.0,0.0,0.0,0.0,0.0,0.0,0.0,0.0,0.0,0.0,0.0,0.0,0.0,0.0,0.0,0.0,0.0,0.0,0.0,0.0,0.0,0.0,0.0,0.0,0.0,0.0,0.0,0.0,0.0,0.0,0.0,0.0,0.0,0.0,0.0,0.0,0.0,0.0,0.0,0.0,0.0,2.2074,2.3566,2.3153,2.2497,0.0,0.0,0.0,2.2827,2.2562,0.0,0.0,0.0,0.0,0.0,0.0,0.0,0.0,0.0,0.0,0.0,0.0,0.0,0.0,0.0,0.0,0.0,0.0,0.0,0.0,0.0,0.0,0.0,0.0,0.0,0.0,0.0,0.0,0.0,0.0,0.0,0.0,0.0,0.0,0.0,0.0,0.0,0.0,0.0,0.0,0.0,0.0,0.0,0.0,0.0,0.0,0.0,0.0,0.0,0.0,0.0,0.0,0.0,0.0,0.0,1.8861,2.0563,2.1463,2.2285,2.3105,2.3144,2.2969,2.2578,2.1289,2.0019,0.0,0.0,0.0,0.0,0.0,0.0,0.0,0.0,0.0,0.0,0.0,0.0,0.0,0.0,0.0,0.0,0.0,0.0,0.0,0.0,0.0,0.0,0.0,0.0,0.0,0.0,0.0,0.0,0.0,0.0,0.0,0.0,0.0,0.0,0.0,0.0,0.0,0.0,0.0,0.0,0.0,0.0,2.4585,2.4984,0.0,0.0,0.0,2.4515,2.4916,0.0,0.0,0.0,0.0,0.0,0.0,0.0,0.0,0.0,0.0,0.0,0.0,0.0,0.0,0.0,0.0,0.0,0.0,0.0,0.0,0.0,0.0,0.0,0.0,0.0,0.0,0.0,0.0,0.0,0.0,0.0,0.0,0.0,0.0,0.0,0.0,0.0,0.0,0.0,0.0,0.0,0.0,0.0,0.0,0.0,0.0,0.0,0.0,0.0,0.0,0.0,0.0,0.0,0.0,0.0,0.0,0.0,2.0897,2.1776,2.2519,2.3086,2.3105,2.3105,2.3066,2.1484,0.0,0.0,0.0,0.0,0.0,0.0,0.0,0.0,0.0,0.0,0.0,0.0,0.0,0.0,0.0,0.0,0.0,0.0,0.0,0.0,0.0,0.0,0.0,0.0,0.0,0.0,0.0,1.2386,0.0,0.0,0.0,0.0,0.0,0.0,0.0,0.0,0.0,0.0,0.0,0.0,0.0,0.0,2.3502,2.571,2.6486,2.6947,0.0,0.0,2.6138,2.6699,2.5533,2.4208,0.0,0.0,0.0,0.0,0.0,0.0,0.0,0.0,0.0,0.0,0.0,0.0,0.0,0.0,0.0,0.0,0.0,0.0,0.0,0.0,0.0,0.0,0.0,0.0,0.0,0.0,0.0,0.0,0.0,0.0,0.0,0.0,0.0,0.0,0.0,0.0,0.0,0.0,0.0,0.0,0.0,0.0,0.0,0.0,0.0,0.0,0.0,0.0,0.0,0.0,0.0,0.0,0.0,0.0,0.0,2.1776,2.2676,2.3105,2.3105,2.3105,2.3104,2.3063,2.1481,2.0582,0.0,0.0,0.0,0.0,0.0,0.0,0.0,0.0,0.0,0.0,0.0,0.0,0.0,0.0,0.0,0.0,0.0,0.0,0.0,0.0,0.0,0.0,0.0,0.0,0.0,0.0,0.0,0.0,0.0,0.0,0.0,0.0,0.0,0.0,0.0,0.0,0.0,0.0,0.0,0.0,0.0,2.5742,2.7412,2.764,2.7887,0.0,0.0,2.7466,2.7521,2.6689,2.5528,2.3955,0.0,0.0,0.0,0.0,0.0,0.0,0.0,0.0,0.0,0.0,0.0,0.0,0.0,0.0,0.0,0.0,0.0,0.0,0.0,0.0,0.0,0.0,0.0,0.0,0.0,0.0,0.0,0.0,0.0,0.0,0.0,0.0,0.0,0.0,0.0,0.0,0.0,0.0,0.0,0.0,0.0,0.0,0.0,0.0,0.0,0.0,0.0,0.0,0.0,0.0,0.0,0.0,0.0,2.0156,2.1875,2.2715,2.3379,2.3886,2.3886,2.3884,2.3899,2.3274,2.2433,0.0,0.0,0.0,0.0,0.0,0.0,0.0,0.0,0.0,0.0,0.0,0.0,0.0,0.0,0.0,0.0,0.0,0.0,0.0,0.0,0.0,0.0,0.0,0.0,0.0,0.0,0.0,0.0,1.7851,1.8867,1.9265,0.0,0.0,0.0,0.0,0.0,0.0,0.0,0.0,0.0,0.0,2.6148,2.8184,2.8413,0.0,0.0,2.8355,2.7447,2.7357,2.6266,2.4971,2.3681,2.1693,0.0,0.0,0.0,0.0,0.0,0.0,0.0,0.0,0.0,0.0,0.0,0.0,0.0,0.0,0.0,0.0,0.0,0.0,0.0,0.0,0.0,0.0,0.0,0.0,0.0,0.0,0.0,0.0,0.0,0.0,0.0,0.0,0.0,0.0,0.0,0.0,0.0,0.0,0.0,0.0,0.0,0.0,0.0,0.0,0.0,0.0,0.0,0.0,0.0,0.0,0.0,0.0,2.0527,2.2226,2.332,2.4179,2.4762,2.4781,2.4796,2.4765,2.4508,2.3801,0.0,0.0,0.0,0.0,0.0,0.0,0.0,0.0,0.0,0.0,0.0,0.0,0.0,0.0,0.0,0.0,0.0,0.0,0.0,0.0,0.0,0.0,0.0,0.0,0.0,0.0,0.0,0.0,1.819,1.8746,1.9242,0.0,0.0,0.0,0.0,0.0,0.0,0.0,0.0,0.0,0.0,2.6755,2.8607,2.8785,2.8984,2.9726,2.8585,2.7569,2.7479,2.6329,2.5003,2.3766,0.0,0.0,0.0,0.0,0.0,0.0,0.0,0.0,0.0,0.0,0.0,0.0,0.0,0.0,0.0,0.0,0.0,0.0,0.0,0.0,0.0,0.0,0.0,0.0,0.0,0.0,0.0,0.0,0.0,0.0,0.0,0.0,0.0,0.0,0.0,0.0,0.0,0.0,0.0,0.0,0.0,0.0,0.0,0.0,0.0,0.0,0.0,0.0,0.0,0.0,0.0,0.0,0.0,0.0,2.3085,2.4726,2.5641,2.5669,2.5683,2.5611,2.5546,2.4752,2.4271,2.4201,0.0,0.0,0.0,0.0,0.0,0.0,0.0,0.0,0.0,0.0,0.0,0.0,0.0,0.0,0.0,0.0,0.0,0.0,0.0,0.0,0.0,0.0,0.0,0.0,0.0,0.0,1.9195,1.9283,1.9242,0.0,0.0,0.0,0.0,0.0,0.0,0.0,0.0,0.0,0.0,2.6644,2.7891,2.8784,2.8687,2.8787,2.9575,2.877,2.8059,2.8034,2.7228,2.6102,0.0,0.0,0.0,0.0,0.0,0.0,0.0,0.0,0.0,0.0,0.0,0.0,0.0,0.0,0.0,0.0,0.0,0.0,0.0,0.0,0.0,0.0,0.0,0.0,0.0,0.0,0.0,1.9306,1.8751,0.0,0.0,0.0,0.0,0.0,0.0,0.0,0.0,0.0,0.0,0.0,2.2264,2.2265,0.0,0.0,0.0,0.0,0.0,0.0,0.0,0.0,0.0,0.0,0.0,0.0,2.2283,2.3923,2.5092,2.5986,2.652,2.6008,2.5659,2.5601,2.5323,2.4881,2.4311,0.0,0.0,0.0,0.0,0.0,0.0,0.0,0.0,0.0,0.0,0.0,0.0,0.0,0.0,0.0,0.0,0.0,0.0,0.0,0.0,0.0,0.0,0.0,0.0,0.0,1.9088,0.0,0.0,0.0,0.0,0.0,0.0,0.0,0.0,0.0,0.0,0.0,2.4463,2.6591,2.7306,2.8075,2.9324,2.8887,2.8694,0.0,0.0,0.0,0.0,0.0,0.0,0.0,0.0,0.0,0.0,0.0,0.0,0.0,0.0,2.1595,1.9309,1.8896,1.8896,1.889,0.0,0.0,0.0,0.0,0.0,0.0,0.0,0.0,0.0,0.0,0.0,0.0,0.0,0.0,0.0,0.0,2.0121,0.0,0.0,0.0,0.0,0.0,0.0,0.0,0.0,2.3278,2.4022,2.4902,2.4922,2.4492,0.0,2.3672,2.2324,0.0,0.0,0.0,0.0,0.0,0.0,0.0,0.0,2.345,2.4834,2.598,2.6693,2.6931,2.6413,2.5939,2.5582,2.5569,2.528,2.4736,2.3335,2.2172,0.0,0.0,0.0,0.0,0.0,0.0,0.0,0.0,0.0,0.0,0.0,0.0,0.0,0.0,0.0,0.0,0.0,0.0,0.0,0.0,0.0,0.0,0.0,1.994,0.0,0.0,0.0,0.0,0.0,0.0,0.0,0.0,0.0,2.3151,2.4398,2.5801,2.7365,2.7761,2.8214,2.917,0.0,0.0,0.0,0.0,0.0,0.0,0.0,2.6725,2.6651,2.5996,2.5636,2.6099,2.6195,2.635,2.6893,0.0,0.0,2.2612,2.1985,2.1992,2.1992,2.2636,2.3302,2.386,2.5326,2.673,0.0,0.0,0.0,0.0,0.0,0.0,0.0,0.0,2.2535,2.2812,0.0,2.1938,0.0,0.0,0.0,0.0,0.0,0.0,0.0,0.0,2.455,2.5879,2.8144,2.8203,2.7812,2.7031,2.6914,2.5625,2.3202,2.1601,0.0,0.0,0.0,0.0,0.0,0.0,2.4906,2.5877,2.7384,2.7794,2.7048,2.6922,2.6457,2.5557,2.5515,2.5501,2.5476,2.4647,2.386,2.3058,2.1402,0.0,0.0,0.0,0.0,0.0,0.0,0.0,0.0,0.0,0.0,0.0,0.0,0.0,0.0,0.0,0.0,0.0,0.0,0.0,0.0,2.0367,0.0,0.0,0.0,0.0,0.0,0.0,0.0,0.0,0.0,0.0,2.4213,2.5982,2.7392,2.755,0.0,0.0,0.0,0.0,2.8408,2.9048,2.8856,2.8897,2.9636,2.9608,2.9455,2.9506,0.0,0.0,2.8541,2.8575,2.9075,3.0515,3.0722,2.9636,2.6015,2.5377,2.5281,2.5274,2.5902,2.6816,2.8178,2.9041,3.0032,2.2554,0.0,0.0,0.0,0.0,2.2546,2.363,2.4328,2.6063,2.5968,2.4585,2.4582,0.0,0.0,0.0,0.0,0.0,0.0,2.5897,2.7167,2.7168,2.7598,2.8281,2.8281,2.7832,2.7011,2.7011,2.66,2.5875,2.5405,2.3919,2.1516,0.0,0.0,0.0,0.0,2.6342,2.8264,2.8279,2.8354,2.8691,2.7471,2.6403,2.5529,2.5523,2.5513,2.5499,2.5246,2.4725,2.388,2.2794,0.0,0.0,0.0,0.0,0.0,0.0,0.0,0.0,0.0,0.0,0.0,0.0,0.0,0.0,0.0,0.0,0.0,0.0,0.0,2.1995,2.236,2.2317,0.0,0.0,0.0,0.0,0.0,0.0,0.0,0.0,0.0,2.7,2.7727,2.8357,0.0,0.0,3.0097,3.0059,2.9872,2.9785,2.993,0.0,0.0,0.0,2.9727,2.9807,3.0265,3.1041,3.161,3.161,3.2076,3.2603,3.3051,3.3137,3.2723,3.1757,3.0584,2.9877,2.9903,3.0455,3.1032,3.1541,3.224,3.2869,2.6443,2.5145,2.2587,2.1838,2.2499,2.4551,2.5515,2.5836,2.7906,2.7848,2.6249,2.656,2.5954,2.4665,2.4996,0.0,0.0,0.0,2.7793,2.832,2.8672,2.9004,2.9316,2.9336,2.8867,2.8045,2.8024,2.7845,2.7488,2.7481,2.6416,2.443,0.0,0.0,2.6676,2.7012,2.7917,2.9392,2.9282,2.924,2.9347,2.7676,2.6362,2.5548,2.5517,2.5509,2.5509,2.5509,2.5258,2.4735,2.3886,2.2803,0.0,0.0,0.0,0.0,0.0,0.0,0.0,0.0,0.0,0.0,0.0,1.7253,0.0,0.0,0.0,0.0,2.088,2.1759,2.3534,2.34,0.0,0.0,0.0,0.0,0.0,0.0,0.0,2.5468,2.6441,2.7554,2.9005,2.9535,2.9818,2.9973,3.0385,3.065,3.0594,0.0,3.0439,3.0663,3.0517,3.0467,3.0697,3.0681,3.0881,3.1546,3.2311,3.3145,3.3749,3.4241,3.4621,3.4887,3.4966,3.4966,3.4966,3.4197,3.3369,3.2844,3.3068,3.3438,3.3731,3.4197,3.4621,3.0143,3.0364,2.569,2.378,2.4042,2.6412,2.7004,2.652,2.8885,2.8964,2.75,2.8242,2.8124,2.7362,2.8202,0.0,0.0,2.832,2.873,2.873,2.9531,3.0293,3.0976,3.0995,3.0545,2.9685,2.9699,2.9259,2.8443,2.8412,2.8384,2.8395,2.8373,2.8359,2.8337,2.903,2.9443,2.9498,3.0286,3.024,2.9305,2.7677,2.6433,2.5642,2.5548,2.5509,2.5509,2.5509,2.5509,2.549,2.4735,2.3907,2.3018,0.0,0.0,0.0,0.0,0.0,0.0,0.0,0.0,0.0,0.0,0.0,0.0,0.0,0.0,0.0,2.2932,0.0,2.4611,2.3964,0.0,0.0,0.0,2.3029,2.5144,2.472,2.538,2.8237,0.0,0.0,0.0,0.0,3.1505,3.0932,3.078,3.0659,3.0607,3.0594,3.0714,3.1331,3.1282,3.1436,3.1943,3.2082,3.2289,3.2831,3.3083,3.3645,3.4818,3.5242,3.5559,3.6094,3.6266,3.6249,3.6266,3.6111,3.5887,3.4483,3.4293,3.45,3.5076,3.5249,3.5466,3.1222,3.072,2.9469,2.9356,3.0005,3.0612,3.1143,3.1616,3.2242,3.1892,3.0898,3.1112,3.0741,3.0018,3.0879,3.1133,3.0937,3.1797,3.2187,3.2187,3.2402,3.2246,3.1816,3.1815,3.1363,3.0553,3.0507,3.0395,3.0189,3.0128,3.0098,3.0098,3.0041,2.9705,2.9147,2.9313,2.971,3.0296,3.0528,3.0197,2.9322,2.8245,2.7269,2.6435,2.5816,2.5509,2.5509,2.5509,2.5509,2.5509,2.5296,2.4815,2.3925,2.2247,0.0,0.0,0.0,0.0,0.0,0.0,0.0,0.0,0.0,1.9716,2.0668,0.0,2.2167,0.0,2.4285,2.5439,2.6242,2.6154,0.0,0.0,2.5801,2.5686,2.6091,2.6932,2.7718,2.8303,2.9395,3.0467,3.1304,3.1571,3.1882,3.2299,3.2337,3.2321,3.2287,3.2162,3.2092,3.2228,3.2131,3.2126,3.2205,3.2577,3.2903,3.3074,3.393,3.4766,3.5128,3.569,3.6122,3.6277,3.6284,3.6284,3.6284,3.6284,3.618,3.5863,3.5783,3.5828,3.6008,3.6008,3.6077,3.3198,3.3084,3.2694,3.3047,3.3772,3.3013,3.2743,3.2883,3.3646,3.3492,3.2673,3.2673,3.2438,3.2048,3.2518,3.2714,3.2714,3.3183,3.3379,3.3379,3.3379,3.3144,3.2674,3.2671,3.2234,3.1381,3.1344,3.1142,3.0773,3.0724,3.0671,3.0673,3.0996,3.0942,3.0477,3.0109,3.0163,3.0597,3.0606,3.0169,2.9306,2.8455,2.758,2.6723,2.5913,2.5509,2.5509,2.5509,2.5509,2.5509,2.5509,2.5252,2.4741,2.346,2.2308,0.0,0.0,0.0,0.0,0.0,0.0,0.0,0.0,0.0,0.0,0.0,2.4056,0.0,2.5731,0.0,2.6851,2.7222,2.756,2.7835,2.8106,2.8329,2.847,2.9106,2.9616,2.9847,3.0628,3.1405,3.2114,3.2232,3.24,3.2829,3.2908,3.2908,3.2884,3.2729,3.2588,3.258,3.2473,3.2371,3.231,3.2483,3.2765,3.3119,3.3708,3.4283,3.4655,3.5328,3.5801,3.5818,3.6059,3.6284,3.6266,3.6008,3.5818,3.5766,3.5542,3.5594,3.6146,3.6284,3.6284,3.5485,3.6091,3.5467,3.5623,3.6227,3.471,3.3502,3.2701,3.421,3.4446,3.3744,3.3744,3.3725,3.3725,3.3725,3.3726,3.3728,3.3729,3.373,3.373,3.373,3.367,3.3552,3.3561,3.3117,3.2285,3.2205,3.1772,3.1033,3.102,3.0982,3.0942,3.1673,3.2029,3.1949,3.1272,3.0868,3.0752,3.0656,3.023,2.9478,2.861,2.7755,2.688,2.6068,2.5604,2.5509,2.5509,2.5509,2.5509,2.5509,2.5518,2.556,2.4743,2.3949,0.0,2.2374,0.0,0.0,0.0,0.0,0.0,0.0,0.0,0.0,2.5048,2.6246,2.6986,2.7153,2.726,2.7352,2.8096,2.8825,2.9426,2.9994,3.0545,3.1,3.0932,3.1084,3.1734,3.1816,3.2125,3.2775,3.2908,3.289,3.2908,3.2908,3.29,3.2876,3.2721,3.2588,3.2588,3.2473,3.2406,3.238,3.224,3.2343,3.2898,3.3035,3.3128,3.3827,3.4579,3.5069,3.5121,3.5535,3.5939,3.6008,3.5483,3.5076,3.5052,3.4604,3.4604,3.5576,3.587,3.6008,3.6911,3.7105,3.7635,3.7966,3.8063,3.7772,3.6717,3.5292,3.5625,3.5668,3.5517,3.5521,3.552,3.5498,3.5502,3.5521,3.5499,3.5505,3.5507,3.5527,3.5507,3.5134,3.4483,3.445,3.3976,3.3092,3.3072,3.2949,3.2719,3.2669,3.2643,3.265,3.2786,3.2858,3.2856,0.0,0.0,0.0,3.0924,3.0523,3.0346,2.95,2.8629,2.7776,2.6921,0.0,2.5548,2.5509,2.5509,2.5509,2.5509,0.0,0.0,0.0,0.0,0.0,0.0,0.0,0.0,0.0,0.0,0.0,2.7807,2.727,2.5469,2.6135,2.7009,2.7798,2.8523,2.9192,2.9829,3.0623,3.1084,3.1065,3.1084,3.1065,3.0986,3.1329,3.1637,3.1719,3.2275,3.2721,3.2846,3.2908,3.2908,3.2908,3.2908,3.2876,3.2847,3.2698,3.2588,3.2597,3.2482,3.2406,3.2406,3.224,3.2143,3.2325,3.2673,3.293,3.3145,3.3783,3.4293,3.431,3.4441,3.4569,3.4552,3.4397,3.431,3.431,3.4182,3.4182,3.4458,3.4517,3.4517,3.7946,0.0,3.8415,3.8611,0.0,3.8611,3.8102,3.7281,3.7281,3.7031,3.6624,3.6178,3.6021,3.6019,3.6022,3.6005,3.6008,3.6013,3.6015,3.6015,3.6009,3.5764,3.5284,3.5255,3.479,3.391,3.3884,3.3619,3.3165,3.3118,3.3117,3.3107,3.3535,3.3731,3.3748,3.3728,3.309,3.1811,3.1408,3.1001,3.0598,2.9747,2.9093,2.8649,0.0,0.0,0.0,0.0,0.0,0.0,0.0,0.0,0.0,0.0,0.0,2.7649,2.7546,2.7797,2.8514,2.883,2.9308,3.0117,3.0462,2.9942,2.8246,2.8491,2.9062,2.9837,3.0326,3.0753,3.1162,3.1871,3.2266,3.2133,3.2273,3.2313,3.2148,3.2229,3.2332,3.2329,3.2632,3.2908,3.2908,3.2908,3.2908,3.29,3.2878,3.2855,3.2797,3.269,3.2581,3.2524,3.2439,3.2406,3.2388,3.2232,3.2099,3.2142,3.2249,3.2344,3.2342,3.299,3.3517,3.3534,3.38,3.4086,3.4052,3.381,3.3507,3.3465,3.3224,3.2982,3.3017,3.3561,3.4086,3.8806,3.8825,3.8982,3.904,3.904,3.904,3.904,3.9021,0.0,0.0,0.0,3.6774,3.6383,3.6226,3.6226,3.6156,3.601,3.6014,3.6015,3.601,3.599,3.595,3.5897,3.5824,3.5412,3.4744,3.4706,3.4313,3.3585,3.3562,3.3552,3.3632,3.4272,3.4626,3.4626,3.4626,3.385,3.2317,3.1949,3.1463,3.083,2.9962,2.9439,2.9306,2.8608,2.8165,2.801,2.7991,2.7991,2.7991,2.7987,2.81,2.8357,2.8953,2.936,2.9518,3.0014,3.0586,3.1186,3.1226,3.1606,3.2446,3.2384,3.1897,3.0907,3.0809,3.1087,3.1738,3.1924,3.2011,3.2018,3.2659,3.3038,3.2892,3.3232,3.3404,3.3244,3.3052,3.2872,3.2908,3.289,3.2908,3.2908,3.2908,3.2908,3.2892,3.2846,3.2782,3.2758,3.2648,3.254,3.244,3.2414,3.2397,3.2345,3.224,3.2099,3.2055,3.1928,3.1809,3.1886,3.23,3.2662,3.2714,3.3275,3.3551,3.362,3.3137,3.2714,3.2697,3.2231,3.18,3.1903,3.2792,3.3586,3.9624,3.9702,4.0445,4.0738,4.0758,4.0738,4.0738,4.0621,3.9235,3.8533,3.8415,3.8298,3.7828,3.7125,3.7105,3.6701,3.6025,3.6014,3.6015,0.0,3.5939,3.5902,3.5894,3.5838,3.5707,3.5548,3.5514,3.5465,3.5347,3.532,3.532,3.5336,3.5455,3.5513,3.5513,3.5513,3.5032,3.4043,3.2551,3.1736,3.162,3.0827,3.0058,2.9345,2.9188,2.8745,2.803,2.801,2.7991,2.7989,2.7986,2.8635,3.0028,3.0143,3.0748,3.2016,3.2098,3.208,3.2128,3.2644,3.3253,3.3923,3.3969,3.3307,3.1799,3.1645,3.1682,3.1831,3.2438,3.2805,3.2808,3.3383,3.368,3.3488,3.3426,3.3319,3.3091,3.2963,3.2908,3.2908,3.2908,3.2908,3.2908,3.2908,3.2908,3.2874,3.282,3.2732,3.2591,3.2515,3.2482,3.2414,3.2406,3.2345,3.2258,3.2179,3.2073,3.1948,3.1848,3.18,3.18,3.1921,3.2041,3.1972,3.2179,3.2231,3.2231,3.2051,3.2024,3.2024,3.1869,3.18,3.18,3.2093,3.2223,4.0503,4.0542,4.0933,4.1108,4.1108,4.1108,4.1108,4.103,4.0309,3.9684,3.9215,3.8806,3.8122,3.7321,3.7301,3.6822,3.6011,3.6015,3.599,3.5946,3.5883,3.5833,3.5844,3.5769,3.573,3.5706,3.5697,3.5701,3.5706,3.5706,3.5706,3.5706,3.5706,3.5706,3.5706,3.5706,3.5513,3.5087,3.385,3.2764,3.1833,3.1444,3.0847,3.0017,3.0017,2.9824,2.9439,2.9401,2.9392,2.9359,2.9772,3.0348,3.1073,3.1816,3.2562,3.3198,3.3571,3.3729,3.3656,3.3919,3.4164,3.439,3.4387,3.4024,3.3221,3.313,3.3101,3.3101,3.343,3.3586,3.3512,3.3711,3.3766,3.3552,3.336,3.3173,3.3044,3.294,3.2908,3.2908,3.2908,3.2908,3.2908,3.2908,3.2908,3.2892,3.277,3.2632,3.2465,3.2439,3.244,3.2414,3.2406,3.2345,3.2232,3.2144,3.2055,3.1912,3.1839,3.1809,3.18,3.18,3.18,3.18,3.18,3.18,3.18,3.18,3.18,3.18,3.18,3.18,3.18,3.18,3.18,4.1108,4.1108,4.1108,4.1108,4.1108,4.1108,4.1108,4.1108,4.1089,4.0718,4.0054,3.9411,3.8689,3.7906,3.7694,3.7118,3.6346,3.6073,3.5957,3.5906,3.5832,3.5792,3.5788,3.572,3.57,3.5716,3.5698,3.5706,3.5706,3.5706,3.5706,3.5706,3.5706,3.5706,3.5706,3.5706,3.5706,3.5668,3.5029,3.3946,3.2452,3.2198,3.1792,3.1214,3.1178,3.1156,3.1176,3.1171,3.1134,3.1101,3.1615,3.1996,3.2176,3.3223,3.3927,3.4043,3.4562,3.4863,3.4778,3.4737,3.4645,3.4506,3.4444,3.4381,3.4305,3.4239,3.4191,3.4179,3.408,3.4024,3.3884,3.3748,3.3605,3.3426,3.3218,3.3065,3.2979,3.2932,3.2908,3.2908,3.2908,3.2908,3.2908,3.2908,3.2884,3.2802,3.268,3.254,3.244,3.2406,3.2379,3.2362,3.2388,3.2336,3.2223,3.2126,3.2046,3.1912,3.1838,3.1809,3.18,3.18,3.18,3.18,3.18,3.18,3.18,3.18,3.18,3.18,3.18,3.18,3.18,3.18,3.18,4.1108,4.1108,4.1108,4.1108,4.1108,4.1108,4.1108,4.1108,4.1108,4.1069,4.0913,4.0894,4.0347,3.9547,3.8772,3.7961,3.7089,3.6302,3.5918,3.5887,3.5823,3.5764,3.572,3.5703,3.5709,3.5709,3.5706,3.5706,3.5706,3.5706,3.5706,3.5706,3.5706,3.5706,3.5706,3.5706,3.5706,3.5706,3.5629,3.5126,3.4181,3.338,3.2952,3.2875,3.2856,3.2856,3.2778,3.2871,3.2819,3.2766,3.2695,3.3013,3.3658,3.3827,3.4134,3.4793,3.4894,3.4848,3.4737,3.4697,3.4645,3.4512,3.445,3.4369,3.4305,3.4239,3.4179,3.4111,3.4042,3.3946,3.3746,3.3598,3.3419,3.3185,3.3073,3.2997,3.2924,3.2908,3.2908,3.2908,3.2908,3.2908,3.2892,3.2884,3.282,3.2681,3.259,3.2481,3.2431,3.2406,3.2354,3.2284,3.2319,3.231,3.2161,3.2117,3.201,3.1873,3.1809,3.18,3.18,3.18,3.18,3.18,3.18,3.18,3.18,3.18,3.18,3.18,3.18,3.18,3.18,3.18,3.18,4.1108,4.1108,4.1108,4.1108,4.1108,4.1108,4.1108,4.1108,4.1108,4.1108,4.1108,4.1108,4.0642,3.9807,3.8993,3.8142,3.7245,3.6312,3.5878,3.5848,3.5797,3.5769,3.5706,3.5715,3.5706,3.5706,3.5706,3.5706,3.5706,3.5706,3.5706,3.5706,3.5706,3.5706,3.5706,3.5706,3.5706,3.5706,3.5706,3.5516,3.5126,3.4314,3.3612,3.3165,3.3104,3.3116,3.31,3.3048,3.3003,3.2926,3.3262,3.3609,3.3865,3.4285,3.4641,3.4908,3.4922,3.4888,3.4833,3.4783,3.4727,3.4629,3.4517,3.4414,3.437,3.4311,3.4185,3.3992,3.3939,3.3788,3.3594,3.3397,3.3211,3.3065,3.2979,3.2924,3.2908,3.2908,3.2908,3.2908,3.2908,3.2894,3.2846,3.2771,3.269,3.2574,3.2524,3.2482,3.2423,3.2406,3.2345,3.2232,3.2232,3.2179,3.2029,3.1984,3.1921,3.1829,3.18,3.18,3.18,3.18,3.18,3.18,3.18,3.18,3.18,3.18,3.18,3.18,3.18,3.18,3.18,3.18,3.18,4.1304,4.1128,4.1108,4.1108,4.1108,4.1108,4.1108,4.1108,4.1108,4.1108,4.1089,4.0876,4.0472,3.9835,3.8979,3.8223,3.7552,3.6433,3.5851,3.5807,3.5769,3.573,3.5709,3.5706,3.5706,3.5706,3.5706,3.5706,3.5706,3.5706,3.5706,3.5706,3.5706,3.5706,3.5706,3.5706,3.5706,3.5706,3.5706,3.5706,3.561,3.5068,3.4449,3.388,3.3825,3.3809,3.3779,3.3742,3.3631,3.3522,3.401,3.4252,3.4153,3.466,3.5064,3.5235,3.5249,3.5249,3.5219,3.5164,3.5018,3.473,3.4585,3.4473,3.4397,3.4334,3.4173,3.3908,3.3807,3.3657,3.3448,3.3208,3.3039,3.2979,3.2924,3.2908,3.2908,3.2908,3.2989,3.3186,3.3302,3.3189,3.31,3.2842,3.2565,3.2506,3.2439,3.2413,3.2345,3.2319,3.2258,3.2144,3.2109,3.2055,3.1921,3.1903,3.1866,3.1837,3.18,3.18,3.18,3.18,3.18,3.18,3.18,3.18,3.18,3.18,3.18,3.18,3.18,3.1791,3.18,3.1781,3.1744,4.1849,4.1147,4.1108,4.1108,4.1108,4.1108,4.1108,4.1108,4.1108,4.1089,4.0954,4.0314,3.9932,3.9763,3.8847,3.8476,3.817,3.6634,3.5843,3.5793,3.5786,3.5714,3.5706,3.5706,3.5745,3.5823,3.5823,3.5764,3.5726,3.5706,3.5706,3.5706,3.5706,3.5706,3.5706,3.5706,3.5706,3.5706,3.5706,3.5706,3.5706,3.5648,3.5549,3.5452,3.5532,3.5422,3.5405,3.5409,3.5283,3.5158,3.5022,3.499,3.4916,3.4941,3.5315,3.6012,3.6149,3.6125,3.6056,3.6,3.5627,3.4886,3.4685,3.4491,3.441,3.4334,3.4192,3.3884,3.3801,3.3618,3.35,3.3227,3.3005,3.2924,3.2926,3.2953,3.2944,3.3096,3.3293,3.3847,3.4027,3.3916,3.3796,3.3058,3.2621,3.2482,3.2345,3.2232,3.2205,3.2153,3.2082,3.1984,3.193,3.1903,3.1894,3.1876,3.1857,3.1819,3.18,3.18,3.18,3.18,3.18,3.18,3.18,3.18,3.18,3.18,3.18,3.1791,3.1755,3.1755,3.1681,3.1653,3.1578,4.1888,4.1108,4.1108,4.1108,4.1108,4.1108,4.1108,4.1108,4.1108,4.0777,4.0309,4.0001,3.9583,3.9023,3.8102,3.7679,3.7535,3.6379,3.5801,3.5809,3.6289,3.6505,3.6538,3.6997,3.6977,3.6516,3.6458,3.6207,3.5745,3.5706,3.5706,3.5706,3.5706,3.5706,3.5706,3.5706,3.5706,3.5706,3.5706,3.5706,3.5745,3.5706,3.5706,3.5706,3.5706,3.5668,3.5616,3.5493,3.5369,3.5242,3.5132,3.5056,3.5007,3.5453,3.6107,3.6846,3.696,3.695,3.6924,3.6884,3.6467,3.5654,3.5447,3.5106,3.4534,3.4347,3.4365,3.4478,3.4363,3.4326,3.4418,3.3679,3.2924,3.2953,3.3356,3.3677,3.3784,3.407,3.449,3.4714,3.4727,3.4472,3.389,3.3363,3.2888,3.2398,3.2197,3.2152,3.2143,3.2108,3.2029,3.193,3.1894,3.1876,3.1838,3.1838,3.1829,3.1801,3.18,3.18,3.18,3.18,3.18,3.18,3.18,3.1791,3.1791,3.1727,3.1754,3.1671,3.1645,3.1568,3.1494,3.1399,3.13,4.1635,4.1147,4.1108,4.1108,4.1108,4.1108,4.1108,4.1108,4.1108,4.0622,3.9902,3.9559,3.8963,3.8104,3.7205,3.6952,3.7045,3.6211,3.5914,3.6142,3.6712,3.7074,3.7386,3.7925,3.7903,3.7326,3.7016,3.6497,3.5784,3.5706,3.5706,3.5706,3.5936,3.6091,3.6129,3.6342,3.6497,3.6516,3.6516,3.6516,3.6497,3.6497,3.65,3.6513,3.651,3.6192,3.5636,3.5477,3.5498,3.5589,3.5517,3.5542,3.5756,3.6258,3.696,3.768,3.7818,3.7807,3.7776,3.7729,3.7311,3.6484,3.6293,3.5924,3.5246,3.5076,3.5134,3.524,3.5121,3.5147,3.514,3.4349,3.3659,3.3695,3.4133,3.4446,3.4464,3.49,3.5258,3.5473,3.5439,3.4978,3.4208,3.3678,3.3054,3.2301,3.2117,3.2046,3.2046,3.201,3.1974,3.1884,3.1874,3.1856,3.1819,3.1827,3.1827,3.1809,3.18,3.18,3.18,3.18,3.1791,3.18,3.1791,3.1764,3.1736,3.169,3.1615,3.1513,3.1399,3.13,3.1213,3.1114,3.0995,4.1128,4.1108,4.1108,4.1108,4.1108,4.1108,4.1108,4.1108,4.111,4.0625,3.9831,3.8982,3.8222,3.731,3.6598,3.6446,3.6979,3.6418,3.6394,3.6961,3.7091,3.7525,3.8196,3.8409,3.8389,3.8138,3.7306,3.6513,3.5858,3.5745,3.5726,3.59,3.6477,3.6803,3.6922,3.7577,3.8057,3.8002,3.7944,3.8041,3.8196,3.8022,3.7961,3.8035,3.7992,3.7282,3.5797,3.5621,3.5909,3.6417,3.6389,3.6659,3.7202,3.7395,3.7775,3.8533,3.8684,3.8653,3.8593,3.8538,3.8132,3.7359,3.7069,3.6863,3.6503,3.633,3.6168,3.6021,3.5818,3.571,3.5586,3.5388,3.5124,3.5177,3.5124,3.5213,3.5231,3.5258,3.5517,3.6114,3.6166,3.5747,3.4878,3.4037,3.3219,3.2405,3.202,3.1921,3.1912,3.1874,3.181,3.1818,3.1827,3.1827,3.1809,3.18,3.18,3.18,3.18,3.18,3.18,3.18,3.1772,3.1763,3.1645,3.1626,3.1466,3.1408,3.1322,3.1225,3.1134,3.1015,3.0915,3.0787,3.0661,4.1108,4.1108,4.1108,4.1108,4.1108,4.1108,4.1108,4.1109,4.1114,4.0631,3.9779,3.8887,3.8332,3.7935,3.7152,3.7154,3.7867,3.7589,3.7586,3.7904,3.8398,3.8782,3.9149,3.971,3.9691,3.8937,3.7599,3.6787,3.6477,3.5994,3.5939,3.6477,3.6787,3.7229,3.779,3.808,3.8215,3.8215,3.8215,3.8215,3.8215,3.8212,3.8223,3.8201,3.8151,3.7783,3.7231,3.7099,3.712,3.7258,3.7181,3.7484,3.8117,3.8291,3.8644,3.9332,3.9459,3.9425,3.9377,3.9306,3.8909,3.8168,3.7828,3.7349,3.6715,3.6475,3.6454,3.6604,3.6515,3.6496,3.687,3.6907,3.639,3.532,3.5677,3.6016,3.606,3.6399,3.6745,3.691,3.686,3.6164,3.4985,3.4179,3.3529,3.2315,3.1937,3.1838,3.1829,3.181,3.18,3.18,3.18,3.1791,3.1772,3.1744,3.1716,3.1716,3.1718,3.1744,3.1754,3.1709,3.1699,3.1615,3.1513,3.1382,3.1244,3.1127,3.1028,3.0928,3.0818,3.0712,3.0582,3.0474,3.0348,4.1108,4.1108,4.1108,4.1108,4.1108,4.1108,4.111,4.1114,4.11,4.0619,3.9785,3.9233,3.8779,3.8402,3.7805,3.8007,3.8701,3.8712,3.8855,3.9111,3.9288,3.9655,3.9984,4.0503,4.0352,3.9481,3.8395,3.7696,3.7364,3.6919,3.69,3.7345,3.8005,3.845,3.8798,3.9301,3.9511,3.924,3.9204,3.916,3.9125,3.9093,3.9068,3.9057,3.9001,3.89,3.8758,3.8691,3.8458,3.819,3.8226,3.8635,3.9101,3.9137,3.9318,3.9658,3.9775,3.9717,3.9709,3.9661,3.9463,3.8858,3.8576,3.8181,3.7472,3.7136,3.7148,3.7244,3.7168,3.7237,3.7542,3.7613,3.7104,3.6256,3.6542,3.6791,3.6862,3.7137,3.7283,3.7197,3.7111,3.6361,3.5391,3.4506,3.3898,3.264,3.202,3.18,3.18,3.18,3.18,3.18,3.18,3.1781,3.1727,3.1671,3.1632,3.1615,3.1625,3.1625,3.1634,3.1551,3.1504,3.1303,3.1176,3.1068,3.0935,3.0797,3.0695,3.0609,3.0526,3.0374,3.0263,3.0189,3.0098,4.1108,4.1108,4.1108,4.1108,4.1109,4.1109,4.1114,4.11,4.1107,4.0664,4.0032,3.9757,3.9342,3.8702,3.8494,3.8798,3.947,3.9576,3.991,4.0236,4.0081,4.0042,4.0623,4.0755,4.0407,3.9752,3.9423,3.8975,3.8292,3.8041,3.8212,3.8389,3.9536,4.0352,4.0001,4.1177,4.1274,4.0794,4.0694,4.0578,4.052,4.0486,4.0436,4.0339,4.022,4.0112,3.9971,3.9862,3.9564,3.9049,3.9369,3.9651,3.9816,3.982,3.9736,3.9775,3.9743,3.9797,3.9756,3.987,3.9752,3.955,3.9265,3.8989,3.8512,3.8104,3.7957,3.7961,3.7846,3.7757,3.7756,3.7755,3.7648,3.7577,3.7416,3.7415,3.7376,3.7383,3.7299,3.7156,3.7036,3.6695,3.5675,3.4888,3.4009,3.3116,3.2278,3.1878,3.1755,3.1746,3.1764,3.1736,3.1707,3.1615,3.153,3.1435,3.1358,3.1244,3.1293,3.1358,3.1387,3.1312,3.1189,3.0998,3.0855,3.0743,3.0609,3.0485,3.0401,3.0338,3.021,3.0049,3.0,2.9979,2.9968,4.1108,4.1108,4.1108,4.1108,4.1109,4.1114,4.11,4.1107,4.1113,4.0953,4.0643,4.0012,3.9937,4.015,3.9476,3.965,4.0252,4.0422,4.0523,4.0736,4.0623,4.0565,4.0758,4.0794,4.0678,4.0371,3.9849,3.9385,3.9111,3.8624,3.8621,3.9149,3.971,4.0487,4.1219,4.1238,4.1354,4.1522,4.1016,4.0716,4.0637,4.0557,4.0489,4.0423,4.031,4.021,4.0114,3.997,3.9813,3.9594,3.9641,3.9741,3.9809,3.9773,3.975,3.979,3.9767,3.9945,4.0321,4.0439,4.0355,4.0172,3.9903,3.9389,3.8554,3.8198,3.8248,3.8465,3.8562,3.8515,3.8487,3.8469,3.8237,3.7702,3.7746,3.7647,3.742,3.7345,3.726,3.7118,3.6972,3.6466,3.5754,3.4818,3.3965,3.3126,3.2352,3.1727,3.1671,3.1625,3.1606,3.154,3.1473,3.1397,3.13,3.1193,3.1065,3.0888,3.0878,3.0955,3.0985,3.0958,3.0818,3.0651,3.0558,3.0459,3.0285,3.0135,3.0081,3.0119,3.0033,2.9946,2.994,2.9929,2.9929,4.1108,4.1108,4.1108,4.111,4.1114,4.11,4.1108,4.1113,4.111,4.1091,4.0918,4.0473,4.0462,4.0762,4.0289,4.0307,4.076,4.0803,4.0794,4.0794,4.0774,4.0794,4.0794,4.0794,4.0794,4.0755,4.0291,4.01,3.9981,3.9514,3.9611,4.0042,4.0387,4.1084,4.1838,4.2009,4.1825,4.1905,4.1447,4.1016,4.0554,4.0438,4.0354,4.0275,4.0158,4.007,3.9989,3.9826,3.9758,3.9728,3.9737,3.9846,4.0172,3.986,3.9855,4.0139,4.0146,4.0315,4.0656,4.0926,4.1027,4.0815,4.0548,4.005,3.9458,3.9013,3.9066,3.925,3.9273,3.9262,3.9262,3.9262,3.9048,3.8736,3.8558,3.8225,3.7497,3.7653,3.7522,3.7201,3.6876,3.6639,3.5998,3.496,3.4071,3.3306,3.2332,3.1827,3.1494,3.1447,3.1387,3.1274,3.1196,3.1124,3.0995,3.0875,3.0773,3.0609,3.0506,3.0558,3.0609,3.062,3.0468,3.0348,3.0259,3.0162,3.0055,2.9968,2.9968,2.9968,2.9907,2.9907,2.9907,2.9907,2.9907,4.1111,4.1111,4.1111,4.1115,4.1101,4.1107,4.1113,4.111,4.1093,4.1054,4.0972,4.09,4.0789,4.0797,4.0681,4.0779,4.0797,4.0797,4.0797,4.0794,4.0794,4.0794,4.0794,4.0794,4.0794,4.0794,4.0794,4.0736,4.0619,4.0639,4.0716,4.0777,4.1374,4.1809,4.2035,4.2611,4.2688,4.2272,4.209,4.1512,4.0831,4.0578,4.0416,4.0109,4.0027,3.9933,3.9828,3.9743,3.974,3.9816,3.9803,4.02,4.0746,4.0183,4.0334,4.081,4.0883,4.0873,4.1013,4.156,4.1687,4.1464,4.116,4.0801,4.0338,3.9957,3.9876,4.004,4.0029,4.0019,3.9976,3.9922,3.9565,3.9369,3.9565,3.8907,3.7921,3.7997,3.8131,3.7255,3.6984,3.6758,3.6291,3.532,3.4054,3.3422,3.2417,3.1516,3.1215,3.1154,3.1065,3.0948,3.0895,3.0844,3.0692,3.0537,3.0443,3.0327,3.0205,3.0194,3.0274,3.0263,3.0146,3.0049,3.0065,3.0049,2.9973,2.9918,2.9918,2.9907,2.9907,2.9907,2.9907,2.9907,2.9907,4.1104,4.1104,4.1104,4.1105,4.1108,4.1113,4.1111,4.11,4.104,4.0984,4.0919,4.0849,4.0812,4.0794,4.0796,4.08,4.0794,4.0794,4.0794,4.0794,4.0794,4.0794,4.0794,4.0794,4.0794,4.0794,4.0794,4.0794,4.0794,4.0794,4.0794,4.0868,4.1039,4.1397,4.1963,4.2221,4.2483,4.2683,4.2721,4.2203,4.1408,4.1074,4.0717,4.0167,3.9973,3.9862,3.9746,3.9698,3.9958,4.0346,4.0527,4.0746,4.094,4.115,4.1366,4.154,4.1599,4.1766,4.2191,4.2295,4.2258,4.1984,4.1683,4.1189,4.0346,4.0185,4.0318,4.0646,4.0832,4.0824,4.0671,3.969,3.9324,3.9243,3.9088,3.8628,3.7732,3.8022,3.8182,3.7772,3.7133,3.6674,3.6464,3.4929,3.3946,3.3414,3.2401,3.1237,3.0925,3.0834,3.0733,3.0613,3.0578,3.0516,3.0401,3.0274,3.0227,3.0162,3.0033,2.9962,3.0044,3.0065,3.0,2.9957,2.9935,2.9907,2.9907,2.9907,2.9907,2.9907,2.9907,2.9907,2.9907,2.9907,2.9907,4.1107,4.1107,4.1109,4.111,4.1112,4.111,4.1095,4.1051,4.0971,4.0921,4.0857,4.0812,4.0806,4.0799,4.0803,4.0794,4.0794,4.0794,4.0794,4.0794,4.0794,4.0794,4.0794,4.0794,4.0794,4.0794,4.0794,4.0794,4.0794,4.079,4.0784,4.0768,4.0765,4.1199,4.1903,4.2183,4.2605,4.2945,4.3263,4.2957,4.2094,4.1458,4.1081,4.059,4.0435,4.0467,4.0835,4.086,4.101,4.1263,4.1564,4.1768,4.1693,4.1789,4.1962,4.231,4.2294,4.2344,4.2625,4.2828,4.2799,4.2512,4.2249,4.1861,4.1391,4.1135,4.1201,4.1538,4.1609,4.152,4.1127,4.0574,3.9805,3.9329,3.9192,3.8882,3.8481,3.8388,3.8133,3.7622,3.6927,3.6568,3.587,3.4651,3.3786,3.326,3.1863,3.0745,3.062,3.0526,3.0401,3.0306,3.0269,3.0194,3.0109,3.0033,3.0,2.9995,2.9962,2.9929,2.9962,2.9951,2.9918,2.9907,2.9907,2.9907,2.9907,2.9907,2.9907,2.9907,2.9907,2.9907,2.9907,2.9907,2.9907,4.1109,4.111,4.1112,4.1113,4.1112,4.1117,4.1069,4.0986,4.0916,4.0878,4.0807,4.0806,4.0799,4.08,4.0797,4.0794,4.0794,4.0794,4.0794,4.0794,4.0794,4.0794,4.0794,4.0787,4.0781,4.0807,4.0813,4.0794,4.0813,4.0784,4.0742,4.0697,4.0673,4.0917,4.1605,4.231,4.2536,4.2527,4.3342,4.3316,4.2545,4.1865,4.1619,4.1221,4.1172,4.1362,4.1713,4.1831,4.1992,4.2089,4.2648,4.2998,4.2983,4.2654,4.2386,4.311,4.3014,4.2912,4.2848,4.3002,4.3078,4.2957,4.271,4.2532,4.2358,4.218,4.2111,4.2155,4.2137,4.1869,4.1234,4.0687,4.0273,3.9698,3.9455,3.9301,3.9045,3.8498,3.7687,3.7255,3.6738,3.6318,3.5641,3.4652,3.3863,3.2948,3.1545,3.0576,3.0481,3.0308,3.0244,3.0109,3.0076,3.0065,2.9995,2.9973,2.9918,2.9907,2.9907,2.9907,2.9907,2.9907,2.9907,2.9907,2.9907,2.9907,2.9907,2.9907,2.9907,2.9907,2.9907,2.9907,2.9907,2.9907,2.9907,4.1152,4.1113,4.1112,4.111,4.1101,4.1115,4.1057,4.099,4.0924,4.0864,4.0809,4.0799,4.0803,4.0797,4.0794,4.0794,4.0794,4.0794,4.0794,4.0794,4.0794,4.0794,4.0762,4.0739,4.0726,4.0736,4.0768,4.0778,4.0775,4.0746,4.0657,4.0626,4.0553,4.0658,4.088,4.1344,4.1776,4.1914,4.2922,4.3093,4.2678,4.2661,4.2561,4.1996,4.1908,4.2,4.2015,4.2038,4.2169,4.2682,4.2831,4.3241,4.3583,4.3587,4.3567,4.3597,4.3558,4.3349,4.315,4.305,4.2929,4.2727,4.2568,4.2422,4.2341,4.2272,4.2155,4.2226,4.219,4.1948,4.1171,4.0533,3.968,3.8911,3.8201,3.7702,3.7529,3.7299,3.7209,3.7127,3.6591,3.5994,3.532,3.4639,3.3834,3.3021,3.1939,3.1149,3.0946,3.0592,3.025,3.0092,2.9935,2.994,2.9918,2.9918,2.9907,2.9907,2.9907,2.9907,2.9907,2.9907,2.9907,2.9907,2.9907,2.9907,2.9907,2.9907,2.9907,2.9907,2.9907,2.9907,2.9907,2.9907,2.9907,4.1171,4.1111,4.1108,4.11,4.1102,4.1056,4.1024,4.0932,4.0885,4.0837,4.0802,4.0803,4.0794,4.0794,4.0794,4.0794,4.0794,4.0794,4.0794,4.0794,4.0794,4.0752,4.0707,4.0661,4.0612,4.0591,4.0605,4.066,4.067,4.0635,4.0549,4.0485,4.0425,4.0345,4.0471,4.1055,4.1239,4.1496,4.2295,4.2987,4.2812,4.3256,4.3002,4.2825,4.2665,4.276,4.3119,4.3154,4.3284,4.3524,4.3588,4.3729,4.3875,4.3937,4.3865,4.3818,4.3711,4.3506,4.3178,4.2929,4.2709,4.2578,4.243,4.2126,4.1826,4.1655,4.1716,4.177,4.2137,4.1798,4.061,4.0066,3.9232,3.8133,3.7424,3.7093,3.6871,3.6639,3.6714,3.6848,3.6202,3.561,3.5238,3.4515,3.3771,3.2983,3.222,3.1806,3.1494,3.1105,3.069,3.0642,3.0512,3.0156,3.0091,2.9945,2.9924,2.9907,2.9907,2.9907,2.9907,2.9907,2.9907,2.9907,2.9907,2.9907,2.9907,2.9907,2.9907,2.9907,2.9907,2.9907,2.9907,2.9907,2.9907,4.1151,4.1108,4.1099,4.1083,4.1054,4.1008,4.0943,4.0886,4.0815,4.0805,4.0797,4.0794,4.0794,4.0794,4.0794,4.0794,4.0794,4.0794,4.079,4.0778,4.0749,4.0678,4.0604,4.0541,4.0489,4.0429,4.0401,4.0469,4.0504,4.0492,4.0425,4.0349,4.0279,4.0206,4.0304,4.0598,4.0892,4.1179,4.1859,4.2636,4.333,4.349,4.3407,4.3425,4.3317,4.3575,4.3998,4.4046,4.402,4.4064,4.4056,4.4055,4.3942,4.3808,4.3703,4.3617,4.3489,4.325,4.2957,4.2728,4.2568,4.2447,4.2188,4.1718,4.1377,4.1234,4.1181,4.1234,4.1749,4.1579,4.0319,3.9821,3.8923,3.7763,3.7179,3.696,3.671,3.6423,3.6045,3.5929,3.5549,3.523,3.4878,3.4622,3.3928,3.3546,3.2813,3.2492,3.2174,3.1854,3.1542,3.1494,3.1251,3.0635,3.0312,3.001,2.9961,2.9907,2.9907,2.9907,2.9907,2.9907,2.9924,2.9961,2.9907,2.9907,2.9907,2.9907,2.9907,2.9907,2.9907,2.9907,2.9907,2.9907,2.9907,4.1107,4.1112,4.1102,4.1073,4.1,4.0951,4.0871,4.082,4.0815,4.0802,4.0794,4.0794,4.0794,4.0794,4.0794,4.0794,4.0794,4.0787,4.0752,4.0729,4.0657,4.0582,4.0504,4.0448,4.0371,4.0292,4.0242,4.0267,4.0302,4.0339,4.0332,4.0233,4.0104,4.0007,3.9997,4.0075,3.9863,4.0155,4.1381,4.2778,4.3858,4.4047,4.4097,4.4083,4.4054,4.4054,4.4158,4.4188,4.4169,4.4047,4.3968,4.3907,4.3802,4.3634,4.3383,4.3187,4.3032,4.292,4.2699,4.2568,4.2358,4.2116,4.1708,4.1288,4.0895,4.0804,4.0822,4.1127,4.1635,4.1245,3.9988,3.9618,3.8659,3.7756,3.698,3.6771,3.6516,3.612,3.575,3.5379,3.513,3.4871,3.4566,3.4387,3.4157,3.3815,3.3498,3.3174,3.2902,3.2627,3.2449,3.2417,3.2243,3.1676,3.1413,3.0982,3.0593,3.035,3.0366,3.0318,3.0301,3.0366,3.0026,3.0042,2.9977,2.9924,2.9907,2.9907,2.9907,2.9907,2.9907,2.9907,2.9907,2.9907,2.9907,4.111,4.1099,4.1043,4.1003,4.0955,4.0924,4.0866,4.0804,4.0808,4.0806,4.0797,4.0794,4.0794,4.0794,4.0794,4.0794,4.081,4.0771,4.0723,4.0637,4.0571,4.0492,4.0392,4.0314,4.0243,4.0158,4.0109,4.0049,4.0085,4.0134,4.0172,4.008,3.9961,3.9895,3.9839,3.976,3.9734,4.0145,4.1148,4.2278,4.3027,4.3758,4.4252,4.4252,4.4169,4.4124,4.4101,4.4078,4.4039,4.3953,4.3883,4.3769,4.3618,4.3375,4.3078,4.2873,4.2757,4.2667,4.2538,4.2427,4.2134,4.1701,4.1217,4.0753,4.0118,3.9794,3.9737,3.9666,4.0288,4.0114,3.9384,3.8946,3.8176,3.7406,3.6856,3.654,3.6248,3.5821,3.5436,3.506,3.472,3.4525,3.4366,3.4247,3.4152,3.4005,3.3825,3.368,3.3599,3.355,3.342,3.3356,3.3145,3.2809,3.2692,3.2461,3.1975,3.1748,3.1873,3.1695,3.1181,3.0959,3.0587,3.0258,3.0128,3.0075,2.9961,2.9907,2.9907,2.9907,2.9907,2.9907,2.9907,2.9907,2.9907,4.0956,4.0773,4.0907,4.0956,4.088,4.0885,4.0857,4.0808,4.0803,4.0797,4.0794,4.0794,4.0794,4.0794,4.0794,4.081,4.0778,4.0723,4.0633,4.056,4.0481,4.0371,4.028,4.0172,4.0094,3.997,3.997,3.9914,3.9892,3.9927,3.9965,3.9927,3.9834,3.9777,3.9754,3.9716,3.9713,4.0134,4.1218,4.1987,4.2502,4.3532,4.4001,4.4101,4.4051,4.3997,4.3997,4.3981,4.3934,4.3883,4.3709,4.3548,4.3357,4.3087,4.2844,4.2652,4.254,4.2468,4.2417,4.2295,4.1851,4.127,4.0493,3.9788,3.8787,3.8453,3.8618,3.8786,3.9362,3.9234,3.8628,3.8344,3.779,3.7226,3.6677,3.6353,3.5996,3.5543,3.516,3.4818,3.4521,3.4329,3.4176,3.4138,3.4101,3.4101,3.4088,3.4088,3.4149,3.4182,3.4327,3.4259,3.4165,3.3955,3.389,3.3708,3.3291,3.2967,3.3076,3.272,3.1963,3.1482,3.1142,3.0786,3.0474,3.0161,3.0026,2.9972,2.9907,2.9907,2.9907,2.9907,2.9907,2.9896,2.9896,4.0526,3.9869,4.0587,4.0858,4.0798,4.0818,4.0808,4.08,4.0797,4.0794,4.0794,4.0794,4.0794,4.0794,4.0787,4.0771,4.0704,4.0631,4.0526,4.0426,4.0345,4.0243,4.0152,4.0053,3.9986,3.9887,3.9862,3.9828,3.9787,3.976,3.976,3.9712,3.9727,3.971,3.9668,3.9633,3.9814,4.0268,4.1145,4.188,4.2492,4.3282,4.3768,4.3861,4.392,4.3986,4.3986,4.3712,4.3542,4.3463,4.3155,4.2902,4.2605,4.2427,4.2207,4.2087,4.2016,4.1927,4.1907,4.2121,4.1833,4.0967,3.9831,3.8705,3.7873,3.8264,3.8475,3.8406,3.873,3.8775,3.839,3.8061,3.7423,3.6922,3.6371,3.6013,3.5633,3.5229,3.4859,3.457,3.4349,3.4188,3.4126,3.4101,3.4088,3.4088,3.4133,3.4149,3.4473,3.4615,3.502,3.515,3.5182,3.5101,3.5053,3.4793,3.4441,3.3903,3.3672,3.3109,3.2368,3.1984,3.1773,3.1341,3.0996,3.055,3.0107,3.001,2.9956,2.9924,2.9896,2.9841,2.9819,2.9797,2.9803,3.9503,3.9675,3.9929,4.0347,4.0795,4.0803,4.0802,4.0797,4.0794,4.0794,4.0794,4.0794,4.0794,4.0787,4.0746,4.07,4.0617,4.0515,4.0422,4.0332,4.0234,4.0118,4.0036,3.9943,3.9873,3.9815,3.9785,3.9751,3.9721,3.9668,3.9644,3.965,3.9675,3.9699,3.9657,3.9558,3.9688,3.9952,4.0549,4.1178,4.1424,4.2118,4.2526,4.2519,4.2526,4.2526,4.2467,4.2352,4.2263,4.2157,4.1932,4.1705,4.1514,4.1298,4.1171,4.1082,4.1022,4.0985,4.1135,4.1563,4.1696,4.0244,3.8887,3.7781,3.7433,3.7642,3.7665,3.7702,3.7822,3.783,3.7496,3.7177,3.6807,3.6398,3.6023,3.5661,3.5399,3.506,3.4955,3.4823,3.4442,3.4126,3.4101,3.4088,3.4088,3.4088,3.4149,3.4275,3.4631,3.5101,3.5539,3.6092,3.6189,3.6335,3.6303,3.5979,3.5574,3.4939,3.4288,3.3676,3.308,3.2773,3.2514,3.2032,3.1519,3.1045,3.0598,3.0172,2.9966,2.9879,2.9802,2.9731,2.9709,2.9681,2.9692,3.8687,3.9168,3.9132,3.9779,4.0747,4.0805,4.0793,4.0797,4.0794,4.0794,4.0794,4.0794,4.0787,4.0752,4.0704,4.0623,4.0519,4.0441,4.0328,4.0234,4.0118,4.0017,3.9938,3.9859,3.9823,3.9772,3.9727,3.9705,3.9711,3.9602,3.9564,3.9589,3.9602,3.9608,3.9602,3.9508,3.9379,3.95,4.0018,4.0442,4.0614,4.1266,4.169,4.1727,4.1765,4.1754,4.1712,4.1601,4.1337,4.1141,4.0866,4.0519,4.0264,4.0087,3.9991,3.9906,3.9867,3.9848,4.0168,4.0329,4.0788,3.9771,3.8655,3.7871,3.7566,3.749,3.7655,3.707,3.6941,3.6788,3.6721,3.6586,3.6358,3.6002,3.565,3.5349,3.5371,3.5161,3.5184,3.5129,3.4864,3.4816,3.436,3.436,3.4104,3.4104,3.4117,3.4392,3.4955,3.5474,3.6092,3.6707,3.7274,3.7439,3.7584,3.6888,3.6192,3.5668,3.5036,3.4505,3.4003,3.3586,3.3161,3.2704,3.2158,3.1584,3.1216,3.093,3.0367,2.9811,2.976,2.9746,2.9608,2.9586,2.9563,3.8232,3.8236,3.8227,3.9185,4.0568,4.0777,4.0739,4.0678,4.0774,4.0794,4.0794,4.0813,4.0749,4.0697,4.0637,4.0515,4.0406,4.0323,4.0201,4.0084,4.0001,3.9916,3.9843,3.9781,3.976,3.9714,3.9686,3.9663,3.9675,3.9565,3.9508,3.9482,3.9469,3.9438,3.9482,3.9321,3.9195,3.9233,3.9958,4.0181,4.0385,4.091,4.1152,4.1393,4.1352,4.1297,4.144,4.1035,4.0761,4.0543,4.0085,3.9805,3.9702,3.9634,3.9593,3.96,3.9603,3.9645,3.9749,3.9153,3.9298,3.9651,3.8846,3.8327,3.8262,3.8151,3.7807,3.7173,3.6838,3.6684,3.6496,3.6237,3.5937,3.5797,3.5493,3.5409,3.5461,3.5515,3.5548,3.5571,3.5873,3.5933,3.5202,3.4664,3.4279,3.4133,3.4088,3.4505,3.5215,3.5782,3.6416,3.7212,3.7876,3.7912,3.788,3.7395,3.6826,3.6303,3.5519,3.4675,3.4271,3.3887,3.3492,3.3202,3.2745,3.2128,3.1934,3.1797,3.1047,3.0332,2.9916,2.979,2.9633,2.9519,2.9507,3.6886,3.732,3.7328,3.8022,3.9088,3.9713,3.9926,4.0042,4.0507,4.0794,4.0787,4.0768,4.07,4.0633,4.0523,4.0382,4.0273,4.0143,4.0022,3.9897,3.9856,3.98,3.9735,3.9744,3.9728,3.968,3.9633,3.9577,3.9552,3.9469,3.9444,3.9418,3.9328,3.9301,3.9283,3.9204,3.9188,3.9152,3.9398,3.9528,3.9591,3.99,4.0301,4.0795,4.0781,4.0985,4.1258,4.0702,4.0214,3.9863,3.9311,3.8788,3.8669,3.8558,3.8503,3.8384,3.8291,3.8436,3.8819,3.8954,3.9562,3.971,3.9458,3.8918,3.8839,3.823,3.7826,3.7478,3.7106,3.6817,3.6237,3.5866,3.5667,3.5899,3.5809,3.5856,3.5921,3.5991,3.6038,3.607,3.6241,3.6027,3.549,3.5004,3.4603,3.4262,3.4198,3.4943,3.5687,3.6092,3.6613,3.7566,3.8215,3.8254,3.8064,3.7247,3.6566,3.5927,3.5034,3.4098,3.3854,3.3886,3.3777,3.3439,3.306,3.2686,3.2481,3.2183,3.1542,3.0935,3.072,3.0256,2.9975,2.9738,2.9485,3.6168,3.6845,3.6593,3.6977,3.7828,3.8685,3.9191,3.9594,4.0397,4.0752,4.0713,4.0677,4.0601,4.0512,4.0393,4.026,4.012,3.9993,3.9895,3.977,3.9724,3.972,3.9709,3.9686,3.9669,3.962,3.9552,3.9495,3.9463,3.9379,3.9327,3.9268,3.9215,3.9156,3.9142,3.9147,3.914,3.9103,3.9175,3.9142,3.9202,3.9429,3.98,4.0193,4.0469,4.0727,4.0789,4.0366,3.9638,3.9174,3.8591,3.7935,3.7809,3.7807,3.7859,3.7847,3.8106,3.8477,3.9127,3.9462,4.0098,4.0648,3.9955,3.9551,3.9497,3.9306,3.8879,3.8418,3.7782,3.753,3.7217,3.6695,3.6364,3.6646,3.6337,3.6398,3.6609,3.6702,3.6821,3.6807,3.684,3.6448,3.5898,3.5377,3.4955,3.4603,3.4311,3.5172,3.5952,3.6279,3.664,3.7483,3.8006,3.7888,3.746,3.6725,3.6078,3.5531,3.4643,3.3693,3.3707,3.3771,3.372,3.3694,3.3371,3.3086,3.2898,3.2548,3.217,3.1969,3.1854,3.1272,3.0512,3.0022,2.965,3.6168,3.669,3.6035,3.6168,3.6942,3.7787,3.8638,3.9475,4.0269,4.058,4.0507,4.0503,4.05,4.0381,4.0261,4.0115,4.0007,3.9854,3.9764,3.9706,3.9684,3.9685,3.968,3.9669,3.9608,3.9533,3.9469,3.9399,3.9391,3.9281,3.9188,3.9147,3.9126,3.9059,3.9057,3.9021,3.8989,3.8939,3.8921,3.8969,3.9102,3.9578,4.0012,4.0428,4.0826,4.1078,4.1082,4.0682,4.005,3.9507,3.8974,3.8417,3.8209,3.8321,3.8515,3.8748,3.9141,3.9613,3.9974,4.0187,4.0688,4.1202,4.087,4.0418,4.0323,4.0441,4.0135,3.9733,3.9272,3.9324,3.9216,3.8491,3.7817,3.7525,3.7015,3.7148,3.741,3.7566,3.7728,3.7841,3.7989,3.7663,3.6856,3.6208,3.5412,3.4904,3.4652,3.4872,3.5601,3.6104,3.6512,3.7134,3.748,3.7336,3.6798,3.6062,3.5505,3.4931,3.429,3.3529,3.3591,3.3578,3.3477,3.345,3.3594,3.3424,3.3049,3.3019,3.3085,3.288,3.2473,3.1922,3.1066,3.0289,2.9859,3.5839,3.6016,3.5803,3.5842,3.6146,3.6938,3.7763,3.8627,3.9419,3.9737,3.9638,4.0222,4.0336,4.0186,4.0099,3.9951,3.9826,3.9756,3.9685,3.9638,3.9619,3.9632,3.962,3.9583,3.9514,3.9457,3.9386,3.9308,3.9268,3.9163,3.9129,3.9101,3.9057,3.8993,3.8888,3.8807,3.8737,3.8691,3.8672,3.8904,3.92,3.9642,4.0268,4.0985,4.1382,4.1687,4.1859,4.1357,4.0837,4.058,3.99,3.9368,3.9279,3.9339,3.9424,3.9315,3.9712,4.0169,4.0447,4.1242,4.1795,4.1931,4.2005,4.2012,4.1772,4.1441,4.1252,4.0892,4.0444,4.0311,4.0041,3.9435,3.9097,3.8846,3.837,3.8219,3.8456,3.8472,3.8602,3.857,3.8748,3.8343,3.7584,3.6726,3.5933,3.5318,3.4991,3.5019,3.5208,3.5696,3.6151,3.6735,3.6688,3.6497,3.6023,3.5325,3.4852,3.4331,3.3744,3.3309,3.3229,3.3189,3.3136,3.3176,3.3282,3.3216,3.3009,3.3056,3.3139,3.2989,3.2625,3.2164,3.1614,3.0835,3.018,3.5679,3.5651,3.5651,3.5662,3.5725,3.6159,3.6672,3.7317,3.8654,3.9231,3.919,3.9906,4.0115,3.9939,3.9835,3.9711,3.9587,3.9577,3.9533,3.9521,3.9539,3.9508,3.9483,3.9482,3.9437,3.9366,3.9283,3.9222,3.9163,3.9129,3.9094,3.9057,3.9011,3.887,3.8736,3.8564,3.8433,3.8393,3.847,3.8836,3.9249,3.9744,4.0698,4.1515,4.1886,4.2353,4.2582,4.1912,4.1594,4.1239,4.0469,4.006,3.9934,3.9894,4.0573,4.0605,4.1082,4.1439,4.1743,4.2187,4.2454,4.2593,4.2924,4.2894,4.2672,4.2354,4.2147,4.1843,4.1394,4.0979,4.0588,4.0275,4.0323,4.0338,3.9906,3.9475,3.9458,3.9442,3.9377,3.928,3.9055,3.8732,3.8068,3.7228,3.6408,3.573,3.5057,3.4625,3.4835,3.5187,3.5589,3.6043,3.5838,3.5554,3.5049,3.4614,3.4207,3.3785,3.3412,3.3047,3.2912,3.291,3.2978,3.2964,3.2953,3.2897,3.2881,3.291,3.2937,3.2802,3.2677,3.2371,3.1928,3.1396,3.0803,3.5665,3.5601,3.5578,3.5599,3.5588,3.5573,3.5526,3.564,3.7828,3.8878,3.8875,3.9611,3.9881,3.9692,3.9599,3.9514,3.9452,3.9451,3.9438,3.9405,3.9437,3.9418,3.9431,3.9398,3.934,3.9231,3.9165,3.9156,3.9115,3.9073,3.905,3.8997,3.8877,3.871,3.846,3.832,3.8181,3.8027,3.8205,3.8547,3.9353,4.0059,4.0826,4.159,4.2116,4.254,4.2437,4.217,4.1809,4.1298,4.0902,4.0549,4.0424,4.0592,4.1464,4.1989,4.2277,4.249,4.2687,4.3012,4.2924,4.3044,4.3276,4.3328,4.3178,4.3089,4.2875,4.2527,4.2055,4.1679,4.1296,4.0784,4.0631,4.049,4.0136,3.9799,3.9669,3.9653,3.962,3.9604,3.9622,3.9316,3.908,3.8244,3.7194,3.6315,3.5254,3.4558,3.4471,3.4777,3.4988,3.5292,3.4863,3.452,3.4219,3.3834,3.3539,3.3207,3.2961,3.2845,3.2732,3.2759,3.2841,3.2786,3.2718,3.2773,3.2786,3.2773,3.2705,3.258,3.2496,3.2468,3.2134,3.1668,3.1338,3.5616,3.5607,3.5544,3.5528,3.5506,3.5399,3.5308,3.5318,3.6328,3.7257,3.7934,3.9069,3.9683,3.9483,3.9439,3.9388,3.938,3.9348,3.9386,3.9373,3.9366,3.9353,3.9366,3.9295,3.9236,3.919,3.9156,3.9122,3.908,3.9031,3.8957,3.8833,3.8761,3.8588,3.8345,3.8233,3.8177,3.8071,3.8142,3.8771,3.9748,4.0068,4.0584,4.1604,4.2379,4.2369,4.2295,4.2176,4.2032,4.1834,4.1757,4.1549,4.134,4.1808,4.2217,4.2585,4.2936,4.317,4.3282,4.3413,4.3318,4.3383,4.3541,4.3609,4.3635,4.3637,4.3425,4.3,4.2632,4.226,4.1817,4.1253,4.0803,4.0528,4.0285,4.0074,3.9863,3.9833,3.9833,3.9946,4.0075,3.9905,3.9669,3.9017,3.8049,3.678,3.5329,3.4491,3.4282,3.4394,3.4303,3.44,3.3804,3.3444,3.3275,3.3211,3.3022,3.2889,3.2736,3.2621,3.2552,3.2551,3.2594,3.2537,3.2509,3.2523,3.2539,3.2509,3.2441,3.233,3.2205,3.2149,3.2107,3.1777,3.1607,3.5588,3.555,3.5479,3.5439,3.5393,3.5255,3.5147,3.5183,3.5731,3.6454,3.7263,3.841,3.9096,3.9223,3.9272,3.9277,3.9275,3.9268,3.9236,3.9242,3.9275,3.9254,3.9222,3.919,3.9163,3.9135,3.9115,3.9087,3.9064,3.896,3.887,3.8767,3.87,3.8779,3.8587,3.8636,3.8725,3.8722,3.855,3.9236,4.0208,4.0315,4.077,4.1798,4.2256,4.2236,4.2163,4.2079,4.1984,4.1892,4.1755,4.1596,4.1573,4.2008,4.2515,4.2899,4.3256,4.364,4.36,4.3484,4.3449,4.3426,4.3165,4.2993,4.3141,4.306,4.265,4.2266,4.2128,4.1787,4.1286,4.0738,4.0657,4.0479,4.0398,4.0268,4.0159,4.0115,4.0085,4.0104,3.9962,3.9456,3.9171,3.8707,3.787,3.7625,3.6112,3.561,3.5205,3.433,3.4131,3.3824,3.342,3.3004,3.2895,3.2813,3.2669,3.2566,3.2521,3.2454,3.2401,3.2358,3.2315,3.2231,3.2205,3.2219,3.2219,3.2176,3.2106,3.1994,3.1881,3.1768,3.1754,3.1726,3.1526,3.5544,3.5486,3.54,3.5343,3.5265,3.5128,3.4991,3.4983,3.5458,3.6158,3.6913,3.7623,3.8356,3.8929,3.9117,3.9096,3.9115,3.9142,3.9129,3.9122,3.9122,3.9142,3.9135,3.9115,3.9115,3.9101,3.908,3.9024,3.8986,3.9029,3.9021,3.8817,3.9042,3.9372,3.9391,3.9593,3.9777,3.9622,3.9672,4.019,4.0447,4.0483,4.1143,4.1754,4.2184,4.2093,4.2019,4.1941,4.183,4.1714,4.1604,4.1431,4.1521,4.1928,4.2341,4.2741,4.3117,4.3498,4.3599,4.3054,4.3015,4.2893,4.2457,4.2334,4.2487,4.2298,4.1907,4.1504,4.1382,4.1079,4.0562,4.0175,4.0144,4.0082,4.005,4.0034,3.9991,4.0027,4.0046,4.0033,3.9701,3.9149,3.8833,3.8355,3.8027,3.7813,3.7506,3.728,3.6707,3.5434,3.4647,3.4156,3.3636,3.3223,3.2812,3.2551,3.248,3.2467,3.2439,3.233,3.2205,3.2078,3.1979,3.1881,3.1882,3.1853,3.1824,3.1782,3.171,3.1625,3.148,3.135,3.1278,3.1248,3.1234,3.5484,3.5404,3.5293,3.5194,3.5124,3.495,3.4826,3.4723,3.4708,3.5445,3.659,3.6955,3.7685,3.9122,3.9115,3.9101,3.9101,3.9101,3.9101,3.9108,3.9101,3.9101,3.9101,3.9101,3.9101,3.9092,3.908,3.9008,3.9191,3.9383,3.9406,3.9211,3.9761,3.9948,3.9796,4.0031,4.0182,4.016,4.0212,4.0487,4.0894,4.1055,4.1368,4.1817,4.2132,4.2058,4.1991,4.1884,4.183,4.1743,4.1538,4.1329,4.1401,4.1682,4.2036,4.2154,4.2555,4.2632,4.254,4.2077,4.1929,4.1817,4.1494,4.1606,4.1686,4.1658,4.1091,4.0329,4.0127,3.989,3.9441,3.9009,3.8835,3.8719,3.8659,3.8674,3.863,3.8952,3.9209,3.9371,3.9422,3.9205,3.9163,3.8704,3.8249,3.7891,3.7234,3.6992,3.6843,3.5975,3.5202,3.4681,3.4116,3.3564,3.3226,3.2621,3.2439,3.2411,3.2391,3.2305,3.2091,3.1768,3.1624,3.1481,3.1423,3.1408,3.1379,3.1336,3.1263,3.1161,3.1029,3.0911,3.0836,3.0777,3.0732]}]]